[[[{"header":{"parameterUnit":"kt","parameterCategory":2,"dx":1,"dy":1,"la1":29.285339999999998,"la2":30.599998999999997,"lo1":-89.70041500000002,"lo2":-87.6738589999976,"nx":112,"ny":82,"refTime":"2022-10-15T12:00:00:Z","depth":0,"parameterNumber":1,"parameterNumberName":"U-component_of_WINDS"},"data":[0.0,0.0,0.0,0.1072,0.2562,0.0,0.4836,0.0,0.7888,0.0,0.0,0.0,0.0,0.4281,0.2552,0.247,0.1077,0.0,0.0,0.0,0.0,0.0,0.0,0.0,0.0,0.0,0.0,0.0,0.0,0.0,0.0,0.0,0.0,0.0,0.0,0.0,0.0,0.0,0.0,0.0,0.0,0.0,0.0,0.0,0.0,0.0,0.0,0.0,0.0,0.0,0.0,0.0,0.0,0.0,0.0,0.0,0.0,0.0,0.0,0.0,0.0,0.0,0.0,0.0,0.0,0.0,0.0,0.0,0.0,0.0,0.0,0.0,0.0,0.0,0.0,0.0,0.0,0.0,0.0,0.0,0.0,0.0,0.0,0.0,0.0,0.0,0.0,0.0,0.0,0.0,0.0,0.0,0.0,0.0,0.0,0.0,0.0,0.0,0.0,0.0,0.0,0.0,0.0,0.0,0.0,0.0,0.0,0.0,0.0,0.0,0.0,0.0,0.0,0.0,0.0219,0.1032,0.0,0.0,0.0,0.0,0.0,0.0,0.0,0.0,0.0,0.5541,0.2903,0.3749,0.1731,0.0,0.0,0.0,0.0,0.0,0.0,0.0,0.0,0.0,0.0,0.0,0.0,0.0,0.0,0.0,0.0,0.0,0.0,0.0,0.0,0.0,0.0,0.0,0.0,0.0,0.0,0.0,0.0,0.0,0.0,0.0,0.0,0.0,0.0,0.0,0.0,0.0,0.0,0.0,0.0,0.0,0.0,0.0,0.0,0.0,0.0,0.0,0.0,0.0,0.0,0.0,0.0,0.0,0.0,0.0,0.0,0.0,0.0,0.0,0.0,0.0,0.0,0.0,0.0,0.0,0.0,0.0,0.0,0.0,0.0,0.0,0.0,0.0,0.0,0.0,0.0,0.0,0.0,0.0,0.0,0.0,0.0,0.0,0.0,0.0,0.0,0.0,0.0,0.0,0.0,0.0,0.0,0.0,0.0,0.0,0.0,0.0,0.0,0.2868,0.0,0.0,0.0,0.0,1.2686,0.0,0.0,0.0,1.1077,0.5299,0.0948,0.3442,0.1671,0.0,0.0,0.0,0.0,0.0,0.0,0.0,0.0,0.0,0.0,0.0,0.0,0.0,0.0,0.0,0.0,0.0,0.0,0.0,0.0,0.0,0.0,0.0,0.0,0.0,0.0,0.0,0.0,0.0,0.0,0.0,0.0,0.0,0.0,0.0,0.0,0.0,0.0,0.0,0.0,0.0,0.0,0.0,0.0,0.0,0.0,0.0,0.0,0.0,0.0,0.0,0.0,0.0,0.0,0.0,0.0,0.0,0.0,0.0,0.0,0.0,0.0,0.0,0.0,0.0,0.0,0.0,0.0,0.0,0.0,0.0,0.0,0.0,0.0,0.0,0.0,0.0,0.0,0.0,0.0,0.0,0.0,0.0,0.0,0.0,0.0,0.0,0.0,0.0,0.0,0.0,0.0,0.0,0.0,0.0,0.0,0.0,0.0103,0.0805,0.2398,0.0,0.0,0.0,0.0,0.0,0.0,0.0,0.0,0.0,0.3067,0.3724,0.0,0.0,0.0,0.0,0.0,0.0,0.0,0.0,0.0,0.0,0.0,0.0,0.0,0.0,0.0,0.0,0.0,0.0,0.0,0.0,0.0,0.0,0.0,0.0,0.0,0.0,0.0,0.0,0.0,0.0,0.0,0.0,0.0,0.0,0.0,0.0,0.0,0.0,0.0,0.0,0.0,0.0,0.0,0.0,0.0,0.0,0.0,0.0,0.0,0.0,0.0,0.0,0.0,0.0,0.0,0.0,0.0,0.0,0.0,0.0,0.0,0.0,0.0,0.0,0.0,0.0,0.0,0.0,0.0,0.0,0.0,0.0,0.0,0.0,0.0,0.0,0.0,0.0,0.0,0.0,0.0,0.0,0.0,0.0,0.0,0.0,0.0,0.0,0.0,0.0,0.0,0.0,0.0,0.0,0.0,0.0,0.0,0.0,0.0,0.0,0.1102,0.2581,0.3629,0.0,0.6482,0.0,0.0,0.0,0.0,0.0,0.0,0.0,0.1696,0.0,0.0,0.0,0.0,0.0,0.0,0.0,0.0,0.0,0.0,0.0,0.0,0.0,0.0,0.0,0.0,0.0,0.0,0.0,0.0,0.0,0.0,0.0,0.0,0.0,0.0,0.0,0.0,0.0,0.0,0.0,0.0,0.0,0.0,0.0,0.0,0.0,0.0,0.0,0.0,0.0,0.0,0.0,0.0,0.0,0.0,0.0,0.0,0.0,0.0,0.0,0.0,0.0,0.0,0.0,0.0,0.0,0.0,0.0,0.0,0.0,0.0,0.0,0.0,0.0,0.0,0.0,0.0,0.0,0.0,0.0,0.0,0.0,0.0,0.0,0.0,0.0,0.0,0.0,0.0,0.0,0.0,0.0,0.0,0.0,0.0,0.0,0.0,0.0,0.0,0.0,0.0,0.0,0.0,0.0,0.0,0.0,0.0,0.0,0.0,0.0586,0.0,0.0,0.4107,0.6412,0.0,0.0,0.0,0.0,0.0,0.0,0.0,0.0,0.0,0.0,0.0,0.0,0.0,0.0,0.0,0.0,0.0,0.0,0.0,0.0,0.0,0.0,0.0,0.0,0.0,0.0,0.0,0.0,0.0,0.0,0.0,0.0,0.0,0.0,0.0,0.0,0.0,0.0,0.0,0.0,0.0,0.0,0.0,0.0,0.0,0.0,0.0,0.0,0.0,0.0,0.0,0.0,0.0,0.0,0.0,0.0,0.0,0.0,0.0,0.0,0.0,0.0,0.0,0.0,0.0,0.0,0.0,0.0,0.0,0.0,0.0,0.0,0.0,0.0,0.0,0.0,0.0,0.0,0.0,0.0,0.0,0.0,0.0,0.0,0.0,0.0,0.0,0.0,0.0,0.0,0.0,0.0,0.0,0.0,0.0,0.0,0.0,0.0,0.0,0.0,0.0,0.0,0.0,0.0,0.0,0.0,0.0,0.0094,0.0,0.0,0.0,0.0,0.0,0.0,0.0,0.0,0.0,0.0,0.0,0.0,0.0,0.0,0.0,0.0,0.0,0.0,0.0,0.0,0.0,0.0,0.0,0.0,0.0,0.0,0.0,0.0,0.0,0.0,0.0,0.0,0.0,0.0,0.0,0.0,0.0,0.0,0.0,0.0,0.0,0.0,0.0,0.0,0.0,0.0,0.0,0.0,0.0,0.0,0.0,0.0,0.0,0.0,0.0,0.0,0.0,0.0,0.0,0.0,0.0,0.0,0.0,0.0,0.0,0.0,0.0,0.0,0.0,0.0,0.0,0.0,0.0,0.0,0.0,0.0,0.0,0.0,0.0,0.0,0.0,0.0,0.0,0.0,0.0,0.0,0.0,0.0,0.0,0.0,0.0,0.0,0.0,0.0,0.0,0.0,0.0,0.0,0.0,0.0,0.0,0.0,0.0,0.0,0.0,0.0,-0.0397,0.0,0.0,0.0,0.0,0.0,0.0,0.0,0.0,0.0,0.0,0.0,0.0,0.0,0.0,0.0,0.0,0.0,0.0,0.0,0.0,0.0,0.0,0.0,0.0,0.0,0.0,0.0,0.0,0.0,0.0,0.0,0.0,0.0,0.0,0.0,0.0,0.0,0.0,0.0,0.0,0.0,0.0,0.0,0.0,0.0,0.0,0.0,0.0,0.0,0.0,0.0,0.0,0.0,0.0,0.0,0.0,0.0,0.0,0.0,0.0,0.0,0.0,0.0,0.0,0.0,0.0,0.0,0.0,0.0,0.0,0.0,0.0,0.0,0.0,0.0,0.0,0.0,0.0,0.0,0.0,0.0,0.0,0.0,0.0,0.0,0.0,0.0,0.0,0.0,0.0,0.0,0.0,0.0,0.0,0.0,0.0,0.0,0.0,0.0,0.0,0.0,0.0,0.0,0.0,0.0,0.0,0.0,0.0,0.0,0.0,0.0,-0.1248,-0.038,0.0,0.0,0.0,0.0,0.0,0.0,0.0,0.0,0.0,0.0,0.0,0.0,0.0,0.0,0.0,-0.0472,-0.1634,0.0,0.0,0.0,0.0,0.0,0.0,0.0,0.0,0.0,0.0,0.0,0.0,0.0,0.0,0.0,0.0,0.0,0.0,0.0,0.0,0.0,0.0,0.0,0.0,0.0,0.0,0.0,0.0,0.0,0.0,0.0,0.0,0.0,0.0,0.0,0.0,0.0,0.0,0.0,0.0,0.0,0.0,0.0,0.0,0.0,0.0,0.0,0.0,0.0,0.0,0.0,0.0,0.0,0.0,0.0,0.0,0.0,0.0,0.0,0.0,0.0,0.0,0.0,0.0,0.0,0.0,0.0,0.0,0.0,0.0,0.0,0.0,0.0,0.0,0.0,0.0,0.0,0.0,0.0,0.0,0.0,0.0,0.0,0.0,0.0,0.0,0.0,0.0,0.0,0.0,0.0,0.0,0.0,-0.3162,-0.1579,0.0,0.0,0.0,0.0,0.0,0.0,0.0,0.0,0.0,0.0,0.0,0.0,0.0,0.0,0.0,-0.1924,-0.736,-0.3431,0.0,0.0,0.0,0.0,0.0,0.0,0.0,0.0,0.0,0.0,0.0,0.0,0.0,0.0,0.0,0.0,0.0,0.0,0.0,0.0,0.0,0.0,0.0,0.0,0.0,0.0,0.0,0.0,0.0,0.0,0.0,0.0,0.0,0.0,0.0,0.0,0.0,0.0,0.0,0.0,0.0,0.0,0.0,0.0,0.0,0.0,0.0,0.0,0.0,0.0,0.0,0.0,0.0,0.0,0.0,0.0,0.0,0.0,0.0,0.0,0.0,0.0,0.0,0.0,0.0,0.0,0.0,0.0,0.0,0.0,0.0,0.0,0.0,0.0,0.0,0.0,0.0,0.0,0.0,0.0,0.0,0.0,0.0,0.0,0.0,0.0,0.0,0.0,0.0,0.0,0.0,0.0,-0.3895,-0.1819,0.0,0.0,0.0,0.0,0.0,-0.1537,-0.3008,0.0,-0.4746,-0.6085,-0.6178,-0.6144,-0.6032,-0.5769,-0.5464,-0.6216,-0.8819,-0.6826,-0.5594,0.0,0.0,0.0,0.0,-0.098,0.0,0.0,0.0,0.0,0.0,0.0,0.0,0.0,0.0,0.0,0.0,0.0,0.0,0.0,0.0,0.0,0.0,0.0,0.0,0.0,0.0,0.0,0.0,0.0,0.0,0.0,0.0,0.0,0.0,0.0,0.0,0.0,0.0,0.0,0.0,0.0,0.0,0.0,0.0,0.0,0.0,0.0,0.0,0.0,0.0,0.0,0.0,0.0,0.0,0.0,0.0,0.0,0.0,0.0,0.0,0.0,0.0,0.0,0.0,0.0,0.0,0.0,0.0,0.0,0.0,0.0,0.0,0.0,0.0,0.0,0.0,0.0,0.0,0.0,0.0,0.0,0.0,0.0,0.0,0.0,0.0,0.0,0.0,0.0,0.0,0.0,-0.598,0.0,0.0,0.0,0.0,0.0,-0.2744,-0.4683,-0.659,-0.6681,-0.8722,-1.0404,-1.0346,-1.0357,-1.0851,-1.2189,-1.1417,-1.0772,-1.1433,-0.993,-0.8989,-0.9833,-0.7324,0.0,0.0,0.0,0.0,0.0,-0.2394,-0.2394,-0.2394,-0.1632,-0.0871,0.0,0.0,0.0,0.0,0.0,0.0,0.0,0.0,0.0,0.0,0.0,0.0,0.0,0.0,0.0,0.0,0.0,0.0,0.0,0.0,0.0,0.0,0.0,0.0,0.0,0.0,0.0,0.0,0.0,0.0,0.0,0.0,0.0,0.0,0.0,0.0,0.0,0.0,0.0,0.0,0.0,0.0,0.0,0.0,0.0,0.0,0.0,0.0,0.0,0.0,0.0,0.0,0.0,0.0,0.0,0.0,0.0,0.0,0.0,0.0,0.0,0.0,0.0,0.0,0.0,0.0,0.0,0.0,0.0,0.0,0.0,0.0,0.0,0.0,0.0,0.0,0.0,0.0,0.0,0.0,0.0,0.0,-0.8426,-0.871,-0.9028,-0.9477,-0.9663,-0.9922,-1.0268,-1.0484,-1.0402,-1.0009,-0.9976,-1.1818,-1.7795,-1.6223,-1.5022,-1.726,-1.2451,-0.9727,-1.2517,-1.0317,-0.8581,-0.8581,-0.8581,-0.8473,-0.8473,-0.8473,-0.8473,-0.8473,-0.5756,-0.2827,-0.0109,0.0,0.0,0.0,0.0,0.0,0.0,0.0,0.0,0.0,0.0,0.0,0.0,0.0,0.0,0.0,0.0,0.0,0.0,0.0,0.0,0.0,0.0,0.0,0.0,0.0,0.0,0.0,0.0,0.0,0.0,0.0,0.0,0.0,0.0,0.0,0.0,0.0,0.0,0.0,0.0,0.0,0.0,0.0,0.0,0.0,0.0,0.0,0.0,0.0,0.0,0.0,0.0,0.0,0.0,0.0,0.0,0.0,0.0,0.0,0.0,0.0,0.0,0.0,0.0,0.0,0.0,0.0,0.0,0.0,0.0,0.0,0.0,0.0,0.0,0.0,0.0,0.0,0.0,-1.1658,-1.0249,-0.8623,-0.9136,-0.9333,-0.9429,-0.9584,-1.149,-1.3097,-1.306,-1.4901,-1.645,-1.624,-1.5912,-1.6342,-1.8253,-1.7546,-1.6989,-1.7723,-1.5863,-1.474,-1.5751,-1.3352,-1.1615,-1.1615,-0.9884,-0.8798,-0.8798,-0.8798,0.0,-0.8798,-0.7819,-0.5865,-0.2936,-0.2827,-0.1959,0.0,-0.185,-0.185,0.0,-0.1959,-0.185,0.0,0.0,0.0,0.0,0.0,0.0,0.0,0.0,0.0,0.0,0.0,0.0,0.0,0.0,0.0,0.0,0.0,0.0,0.0,0.0,0.0,0.0,0.0,0.0,0.0,0.0,0.0,0.0,0.0,0.0,0.0,0.0,0.0,0.0,0.0,0.0,0.0,0.0,0.0,0.0,0.0,0.0,0.0,0.0,0.0,0.0,0.0,0.0,0.0,0.0,0.0,0.0,0.0,0.0,0.0,0.0,0.0,0.0,0.0,0.0,0.0,0.0,0.0,0.0,0.0,0.0,0.0,0.0,0.0,0.0,-1.3437,-1.2656,-1.1847,-1.252,-1.2764,-1.2823,-1.3082,-1.4835,-1.6352,-1.6233,-1.7942,-1.9354,-1.9151,-1.8756,-1.8301,-1.811,-1.8023,-1.7864,-1.7655,-1.749,-1.7271,-1.7271,-1.5638,-1.4549,-1.4549,-1.292,-1.1835,-1.1835,-1.1835,-1.1835,-1.1835,-1.0858,-0.9444,-0.7488,-0.6407,-0.4999,-0.3155,-0.4999,-0.4999,-0.3155,-0.3913,-0.3261,-0.1524,-0.0436,0.0,-0.0109,-0.2177,-0.3155,-0.3155,-0.3155,-0.3155,-0.3155,-0.3155,-0.3176,-0.2985,-0.188,-0.1559,-0.1349,-0.0337,0.0,0.0,0.0,0.0,0.0,0.0,0.0,0.0,0.0,0.0,0.0,0.0,0.0,0.0,0.0,0.0,0.0,0.0,0.0,0.0,0.0,0.0,0.0,0.0,0.0,0.0,0.0,0.0,0.0,0.0,0.0,0.0,0.0,0.0,0.0,0.0,0.0,0.0,0.0,0.0,0.0,0.0,0.0,0.0,0.0,0.0,0.0,0.0,0.0,0.0,0.0,0.0,0.0,-1.5994,-1.6574,-1.7207,-1.8064,-1.8492,-1.8842,-1.9269,-1.9387,-1.938,-1.9354,-1.9348,-1.9177,-1.8736,-1.8163,-1.7884,-1.7884,-1.7884,-1.7675,-1.7303,-1.7271,-1.7271,-1.7271,-1.7271,-1.7271,-1.7271,-1.7271,-1.7271,-1.7271,-1.7271,-1.7271,-1.7271,-1.4764,-1.3136,-1.3028,-1.0425,-0.8906,-0.8798,-0.8798,-0.8798,-0.8689,-0.5973,-0.4671,-0.4454,-0.1741,-0.0436,-0.0762,-0.6303,-0.8798,-0.8798,-0.8798,-0.8798,-0.8798,-0.8798,-0.8798,-0.8364,-0.5539,-0.4563,-0.4128,-0.1415,-0.044,-0.0446,-0.0223,-0.0226,-0.0228,0.0,0.0,0.0,0.0,0.0,0.0,0.0,0.0,0.0,0.0,0.0,0.0,0.0,0.0,0.0,0.0,0.0,0.0,0.0,0.0,0.0,0.0,0.0,0.0,0.0,0.0,0.0,0.0,0.0,0.0,0.0,0.0,0.0,0.0,0.0,0.0,0.0,0.0,0.0,0.0,0.0,0.0,0.0,0.0,0.0,0.0,0.0,0.0,-1.7187,-1.7731,-1.8057,-1.871,-1.8928,-1.9026,-1.9171,-1.9204,-1.9086,-1.8651,-1.8565,-1.8453,-1.8196,-1.7721,-1.7477,-1.7477,-1.7477,-1.7457,-1.7277,-1.7271,-1.7271,-1.7271,-1.7271,-1.7271,-1.7271,-1.7271,-1.7271,-1.7271,-1.7271,-1.7271,-1.7271,-1.6613,-1.5201,-1.3136,-1.2267,-1.0858,-0.8798,-0.8798,-0.8798,-0.8798,-1.0097,-0.966,-0.7602,-0.6846,-0.6521,-0.6629,-0.8147,-0.8798,-0.8798,-0.8798,-0.8798,-0.8798,-0.8798,-0.8798,-0.8689,-0.7931,-0.7605,-0.7494,-0.6735,-0.6538,-0.6123,-0.3938,-0.3182,-0.2754,-0.0662,0.0,0.0,0.0,0.0,0.0,0.0,0.0,0.0,0.0,0.0,0.0,0.0,0.0,0.0,0.0,0.0,0.0,0.0,0.0,0.0,0.0,0.0,0.0,0.0,0.0,0.0,0.0,0.0,0.0,0.0,0.0,0.0,0.0,0.0,0.0,0.0,0.0,0.0,0.0,0.0,0.0,0.0,0.0,0.0,0.0,0.0,0.0,-1.7207,-1.782,-1.8374,-1.8947,-1.9092,-1.9092,-1.9092,-1.9092,-1.896,-1.8525,-1.8328,-1.8143,-1.7957,-1.7563,-1.7271,-1.7271,-1.7271,-1.7271,-1.7271,-1.7271,-1.7271,-1.7271,-1.7271,-1.7271,-1.7271,-1.7271,-1.7271,-1.7271,-1.7271,-1.7271,-1.7271,-1.7271,-1.6613,-1.498,-1.4872,-1.4112,-1.2483,-1.2483,-1.2483,-1.2483,-1.2812,-1.2159,-1.0533,-0.9339,-1.0101,-1.2483,-1.2483,-1.2483,-1.2483,-1.2483,-1.2483,-1.2483,-1.2483,-1.2483,-1.2375,-1.1074,-1.0642,-1.0425,-0.9231,-0.8798,-0.8473,-0.6841,-0.6193,-0.565,-0.272,-0.1862,-0.1655,-0.0331,0.0,0.0,0.0,0.0,0.0,0.0,0.0,0.0,0.0,0.0,0.0,0.0,0.0,0.0,0.0,0.0,0.0,0.0,0.0,0.0,0.0,0.0,0.0,0.0,0.0,0.0,0.0,0.0,0.0,0.0,0.0,0.0,0.0,0.0,0.0,0.0,0.0,0.0,0.0,0.0,0.0,0.0,0.0,0.0,-1.6956,-1.7662,-1.8426,-1.8954,-1.9092,-1.9092,-1.9092,-1.9092,-1.9013,-1.8736,-1.8446,-1.8156,-1.801,-1.7589,-1.7271,-1.7271,-1.7271,-1.7271,-1.7271,-1.7271,-1.7271,-1.7271,-1.7271,-1.7271,-1.7271,-1.7271,-1.7271,-1.7271,-1.7271,-1.7271,-1.7271,-1.7271,-1.7271,-1.7271,-1.7271,-1.7271,-1.7271,-1.7271,-1.7271,-1.7264,-1.4764,-1.3568,-1.346,-1.1074,-1.2591,-1.7271,-1.7271,-1.7271,-1.7271,-1.7271,-1.7271,-1.7271,-1.7271,-1.7271,-1.7049,-1.4543,-1.3568,-1.3244,-1.075,-0.9884,-0.9776,-0.9451,-0.9339,-0.8798,-0.5756,-0.4888,-0.4237,-0.1415,-0.0545,-0.0437,-0.0111,0.0,0.0,0.0,0.0,0.0,0.0,0.0,0.0,0.0,0.0,0.0,0.0,0.0,0.0,0.0,0.0,0.0,0.0,0.0,0.0,0.0,0.0,0.0,0.0,0.0,0.0,0.0,0.0,0.0,0.0,0.0,0.0,0.0,0.0,0.0,0.0,0.0,0.0,0.0,0.0,0.0,-1.7605,-1.811,-1.8677,-1.9007,-1.9092,-1.9092,-1.9092,-1.9092,-1.9013,-1.8736,-1.8446,-1.8216,-1.8169,-1.7728,-1.7271,-1.7271,-1.7271,-1.7271,-1.7271,-1.7271,-1.7271,-1.7271,-1.7271,-1.7271,-1.7271,-1.7271,-1.7271,-1.7271,-1.7271,-1.7271,-1.7271,-1.7271,-1.7271,-1.7271,-1.7271,-1.7271,-1.7271,-1.7271,-1.7271,-1.7271,-1.6828,-1.6613,-1.6505,-1.6068,-1.6391,-1.7271,-1.7271,-1.7271,-1.7271,-1.7271,-1.7271,-1.7271,-1.7271,-1.7271,-1.7264,-1.6726,-1.6613,-1.6505,-1.5961,-1.5853,-1.5416,-1.3028,-1.2267,-1.1723,-0.8906,-0.7931,-0.7386,-0.4345,-0.3587,-0.2937,-0.0656,0.0,0.0,0.0,0.0,0.0,0.0,0.0,0.0,0.0,0.0,0.0,0.0,0.0,0.0,0.0,0.0,0.0,0.0,0.0,0.0,0.0,0.0,0.0,0.0,0.0,0.0,0.0,0.0,0.0,0.0,0.0,0.0,0.0,0.0,0.0,0.0,0.0,0.0,0.0,0.0,0.0,-1.942,-1.8977,-1.8479,-1.8611,-1.8868,-1.9092,-1.9092,-1.9092,-1.9053,-1.8921,-1.8545,-1.8235,-1.8235,-1.7767,-1.7271,-1.7271,-1.7271,-1.7271,-1.7271,-1.7271,-1.7271,-1.7271,-1.7271,-1.7271,-1.7271,-1.7271,-1.7271,-1.7271,-1.7271,-1.7271,-1.7271,-1.7271,-1.7271,-1.7271,-1.7271,-1.7271,-1.7271,-1.7271,-1.7271,-1.7271,-1.7271,-1.7271,-1.7271,-1.7271,-1.7271,-1.7271,-1.7271,-1.7271,-1.7271,-1.7271,-1.7271,-1.7271,-1.7271,-1.7271,-1.7271,-1.7271,-1.7271,-1.7271,-1.7271,-1.7271,-1.7049,-1.5739,-1.5201,-1.4764,-1.1835,-1.0966,-1.0313,-0.7386,-0.6627,-0.6301,-0.4892,-0.3372,-0.2176,-0.2176,-0.3372,-0.4131,-0.2611,-0.2176,-0.1741,-0.0327,0.0,0.0,0.0,0.0,0.0,0.0,0.0,0.0,0.0,0.0,0.0,0.0,0.0,0.0,0.0,0.0,0.0,0.0,0.0,0.0,0.0,0.0,0.0,0.0,0.0,0.0,0.0,0.0,0.0,0.0,0.0,0.0,-2.1217,-2.0086,-1.9031,-1.8541,-1.867,-1.902,-1.9079,-1.9092,-1.9092,-1.9092,-1.8684,-1.8308,-1.8248,-1.7813,-1.7444,-1.7277,-1.7271,-1.7271,-1.7271,-1.7271,-1.7271,-1.7271,-1.7271,-1.7271,-1.7271,-1.7271,-1.7271,-1.7271,-1.7271,-1.7271,-1.7271,-1.7271,-1.7271,-1.7271,-1.7271,-1.7271,-1.7271,-1.7271,-1.7271,-1.7271,-1.7271,-1.7271,-1.7271,-1.7271,-1.7271,-1.7271,-1.7271,-1.7271,-1.7271,-1.7271,-1.7271,-1.7271,-1.7271,-1.7271,-1.7271,-1.7271,-1.7271,-1.7271,-1.7271,-1.7271,-1.7271,-1.7271,-1.7271,-1.6834,-1.4657,-1.3896,-1.3352,-1.0425,-0.9668,-0.9556,-0.8906,-0.6952,-0.5431,-0.5971,-0.7494,-0.8147,-0.5756,-0.5214,-0.4564,-0.2285,-0.1306,-0.0871,-0.0871,-0.0436,0.0,0.0,0.0,0.0,0.0,0.0,0.0,0.0,0.0,0.0,0.0,0.0,0.0,0.0,0.0,0.0,0.0,0.0,0.0,0.0,0.0,0.0,0.0,0.0,0.0,0.0,0.0,0.0,-2.1755,-2.1536,-2.14,-1.9132,-1.8677,-1.8782,-1.9033,-1.9092,-1.9092,-1.9092,-1.8848,-1.8558,-1.8288,-1.8083,-1.7668,-1.731,-1.7271,-1.7271,-1.7271,-1.7271,-1.7271,-1.7271,-1.7271,-1.7271,-1.7271,-1.7271,-1.7271,-1.7271,-1.7271,-1.7271,-1.7271,-1.7271,-1.7271,-1.7271,-1.7271,-1.7271,-1.7271,-1.7271,-1.7271,-1.7271,-1.7271,-1.7271,-1.7271,-1.7271,-1.7271,-1.7271,-1.7271,-1.7271,-1.7271,-1.7271,-1.7271,-1.7271,-1.7271,-1.7271,-1.7271,-1.7271,-1.7271,-1.7271,-1.7271,-1.7271,-1.7271,-1.7271,-1.7271,-1.7264,-1.6942,-1.6942,-1.629,-1.346,-1.2591,-1.2051,-0.9451,-0.8581,-0.9014,-1.1615,-1.0425,-0.8689,-0.8364,-0.8364,-0.8256,-0.8039,-0.5759,-0.3911,-0.3911,-0.1741,0.0,0.0,0.0,0.0,0.0,0.0,0.0,0.0,0.0,0.0,0.0,0.0,0.0,0.0,0.0,0.0,0.0,0.0,0.0,0.0,0.0,0.0,0.0,0.0,0.0,0.0,0.0,0.0,-2.52,-2.4323,-2.3203,-2.0596,-2.0584,-2.0868,-1.9158,-2.0102,-2.09,-1.9185,-1.8473,-1.8163,-1.8222,-1.7853,-1.7556,-1.7616,-1.7484,-1.7271,-1.7271,-1.7271,-1.7271,-1.7271,-1.7271,-1.7271,-1.7271,-1.7271,-1.7271,-1.7271,-1.7271,-1.7271,-1.7271,-1.7271,-1.7271,-1.7271,-1.7271,-1.7271,-1.7271,-1.7271,-1.7271,-1.7271,-1.7271,-1.7271,-1.7271,-1.7271,-1.7271,-1.7271,-1.7271,-1.7271,-1.7271,-1.7271,-1.7271,-1.7271,-1.7271,-1.7271,-1.7271,-1.7271,-1.7271,-1.7271,-1.7271,-1.7271,-1.7271,-1.7271,-1.7271,-1.7271,-1.7271,-1.7271,-1.7049,-1.5961,-1.5632,-1.5309,-1.422,-1.2591,-1.2051,-1.4872,-1.4764,-1.346,-1.1723,-1.129,-1.0858,-0.9123,-0.7819,-0.6952,-0.6952,-0.5976,-0.5218,-0.5218,-0.5218,-0.4675,-0.2827,-0.1089,0.0,0.0,0.0,0.0,0.0,0.0,0.0,0.0,0.0,0.0,0.0,0.0,0.0,0.0,0.0,0.0,0.0,0.0,0.0,0.0,0.0,0.0,-2.7578,-2.6612,-2.5482,-2.284,-2.3031,-2.3507,-2.1688,-2.2871,-2.3573,-2.0725,-1.9144,-1.8189,-1.8229,-1.7906,-1.7668,-1.7884,-1.7556,-1.7271,-1.7271,-1.7271,-1.7271,-1.7271,-1.7271,-1.7271,-1.7271,-1.7271,-1.7271,-1.7271,-1.7271,-1.7271,-1.7271,-1.7271,-1.7271,-1.7271,-1.7271,-1.7271,-1.7271,-1.7271,-1.7271,-1.7271,-1.7271,-1.7271,-1.7271,-1.7271,-1.7271,-1.7271,-1.7271,-1.7271,-1.7271,-1.7271,-1.7271,-1.7271,-1.7271,-1.7271,-1.7271,-1.7271,-1.7271,-1.7271,-1.7271,-1.7271,-1.7271,-1.7271,-1.7271,-1.7271,-1.7271,-1.7271,-1.7271,-1.7271,-1.7271,-1.7271,-1.7271,-1.5853,-1.4764,-1.6828,-1.7271,-1.6726,-1.4764,-1.4328,-1.3675,-1.1723,-1.0642,-0.9992,-0.9992,-0.9339,-0.8798,-0.8798,-0.8798,-0.8039,-0.5865,-0.3805,-0.2612,-0.2612,-0.1851,-0.1306,-0.1306,-0.0436,0.0,0.0,0.0,-0.0436,-0.1198,-0.1306,-0.1306,-0.1306,-0.0436,-0.0871,-0.2612,-0.1741,-0.1741,-0.2612,-0.2612,-0.2612,-2.821,-2.8264,-2.8527,-2.5895,-2.5702,-2.6461,-2.7289,-2.7587,-2.6807,-2.4239,-2.1178,-1.8908,-1.8341,-1.8235,-1.813,-1.795,-1.7556,-1.7271,-1.7271,-1.7271,-1.7271,-1.7271,-1.7271,-1.7271,-1.7271,-1.7271,-1.7271,-1.7271,-1.7271,-1.7271,-1.7271,-1.7271,-1.7271,-1.7271,-1.7271,-1.7271,-1.7271,-1.7271,-1.7271,-1.7271,-1.7271,-1.7271,-1.7271,-1.7271,-1.7271,-1.7271,-1.7271,-1.7271,-1.7271,-1.7271,-1.7271,-1.7271,-1.7271,-1.7271,-1.7271,-1.7271,-1.7271,-1.7271,-1.7271,-1.7271,-1.7271,-1.7271,-1.7271,-1.7271,-1.7271,-1.7271,-1.7271,-1.7271,-1.7271,-1.7271,-1.7271,-1.7264,-1.7264,-1.7271,-1.7271,-1.7264,-1.7264,-1.7264,-1.7264,-1.7264,-1.4872,-1.3023,-1.3023,-1.0642,-0.8798,-0.8798,-0.8798,-0.8689,-0.8689,-0.8689,-0.8689,-0.8689,-0.5973,-0.4237,-0.4237,-0.1632,0.0,0.0,0.0,-0.1306,-0.4128,-0.4237,-0.4237,-0.4237,-0.1415,-0.2829,-0.8689,-0.5648,-0.5756,-0.8689,-0.8689,-0.8689,-2.989,-3.05,-3.0851,-2.8516,-2.8528,-3.0029,-3.3129,-3.2229,-2.99,-2.7215,-2.4166,-2.1176,-1.8754,-1.7912,-1.7682,-1.789,-1.7556,-1.7271,-1.7271,-1.7271,-1.7271,-1.7271,-1.7271,-1.7271,-1.7271,-1.7271,-1.7271,-1.7271,-1.7271,-1.7271,-1.7271,-1.7271,-1.7271,-1.7271,-1.7271,-1.7271,-1.7271,-1.7271,-1.7271,-1.7271,-1.7271,-1.7271,-1.7271,-1.7271,-1.7271,-1.7271,-1.7271,-1.7271,-1.7271,-1.7271,-1.7271,-1.7271,-1.7271,-1.7271,-1.7271,-1.7271,-1.7271,-1.7271,-1.7271,-1.7271,-1.7271,-1.7271,-1.7271,-1.7271,-1.7271,-1.7271,-1.7271,-1.7271,-1.7271,-1.7271,-1.7271,-1.7271,-1.7271,-1.7271,-1.7271,-1.7271,-1.7271,-1.7271,-1.7271,-1.7271,-1.6613,-1.5961,-1.5961,-1.5201,-1.4549,-1.4549,-1.4549,-1.3896,-1.1939,-1.1723,-1.0966,-0.8906,-0.7931,-0.7386,-0.7386,-0.6521,-0.5978,-0.5978,-0.5978,-0.6412,-0.7277,-0.7386,-0.7386,-0.7386,-0.641,-0.6846,-0.8798,-0.7819,-0.7819,-0.8798,-0.8798,-0.8798,-3.1294,-3.2086,-3.2586,-3.1603,-3.1608,-3.2556,-3.5191,-3.4244,-3.2093,-2.9528,-2.745,-2.5192,-2.201,-2.1,-2.0056,-1.82,-1.8411,-1.896,-1.896,-1.8009,-1.7687,-1.8746,-1.8009,-1.7271,-1.7271,-1.7271,-1.7271,-1.7271,-1.7271,-1.7271,-1.7271,-1.7271,-1.7271,-1.7271,-1.7271,-1.7271,-1.7271,-1.7271,-1.7271,-1.7271,-1.7271,-1.7271,-1.7271,-1.7271,-1.7271,-1.7271,-1.7271,-1.7271,-1.7271,-1.7271,-1.7271,-1.7271,-1.7271,-1.7271,-1.7271,-1.7271,-1.7271,-1.7271,-1.7271,-1.7271,-1.7271,-1.7271,-1.7271,-1.7271,-1.7271,-1.7271,-1.7271,-1.7271,-1.7271,-1.7271,-1.7271,-1.7271,-1.7271,-1.7271,-1.7271,-1.7271,-1.7271,-1.7271,-1.7271,-1.7271,-1.7271,-1.7271,-1.7271,-1.7271,-1.7271,-1.7271,-1.7271,-1.6613,-1.4872,-1.4651,-1.4004,-1.2159,-1.1943,-1.1507,-1.0425,-0.9339,-0.8798,-0.8798,-1.075,-1.1507,-1.0425,-1.0313,-1.0313,-1.0313,-0.9339,-0.9776,-1.1943,-1.0858,-1.0966,-1.1943,-1.1943,-1.1943,-3.206,-3.2839,-3.3693,-3.4631,-3.4631,-3.4371,-3.4371,-3.4332,-3.3609,-3.1135,-3.079,-3.0037,-2.7163,-2.6372,-2.4491,-1.9063,-1.9903,-2.13,-2.1276,-1.8938,-1.8296,-2.1268,-1.9251,-1.756,-1.758,-1.7587,-1.7479,-1.7271,-1.7271,-1.7271,-1.7271,-1.7271,-1.7271,-1.7271,-1.7271,-1.7271,-1.7271,-1.7271,-1.7271,-1.7271,-1.7271,-1.7271,-1.7271,-1.7271,-1.7271,-1.7271,-1.7271,-1.7271,-1.7271,-1.7271,-1.7271,-1.7271,-1.7271,-1.7271,-1.7271,-1.7271,-1.7271,-1.7271,-1.7271,-1.7271,-1.7271,-1.7271,-1.7271,-1.7271,-1.7271,-1.7271,-1.7271,-1.7271,-1.7271,-1.7271,-1.7271,-1.7271,-1.7271,-1.7271,-1.7271,-1.7271,-1.7271,-1.7271,-1.7271,-1.7271,-1.7271,-1.7271,-1.7271,-1.7271,-1.7271,-1.7271,-1.7271,-1.7271,-1.7271,-1.7271,-1.7271,-1.7271,-1.7271,-1.6176,-1.3568,-1.0858,-0.9339,-0.9339,-1.4328,-1.6068,-1.346,-1.3352,-1.3352,-1.3352,-1.075,-1.1943,-1.7271,-1.4651,-1.4657,-1.7271,-1.7271,-1.7271,-3.1006,-3.2229,-3.3393,-3.3125,-3.4644,-3.6176,-3.6176,-3.5839,-3.4687,-3.1725,-3.1207,-3.0239,-2.6954,-2.6295,-2.5046,-2.1331,-1.9631,-1.869,-1.8359,-1.7599,-1.8158,-2.1244,-2.0815,-2.0347,-2.0516,-2.0539,-1.9693,-1.7479,-1.7271,-1.7271,-1.7271,-1.7271,-1.7271,-1.7271,-1.7271,-1.7271,-1.7271,-1.7271,-1.7271,-1.7271,-1.7271,-1.7271,-1.7271,-1.7271,-1.7271,-1.7271,-1.7271,-1.7271,-1.7271,-1.7271,-1.7271,-1.7271,-1.7271,-1.7271,-1.7271,-1.7271,-1.7271,-1.7271,-1.7271,-1.7271,-1.7271,-1.7271,-1.7271,-1.7271,-1.7271,-1.7271,-1.7271,-1.7271,-1.7271,-1.7271,-1.7271,-1.7271,-1.7271,-1.7271,-1.7271,-1.7271,-1.7271,-1.7271,-1.7271,-1.7271,-1.7271,-1.7271,-1.7271,-1.7271,-1.7271,-1.7271,-1.7271,-1.7271,-1.7271,-1.7271,-1.7271,-1.7271,-1.7271,-1.7049,-1.6391,-1.5638,-1.5303,-1.5303,-1.6613,-1.7049,-1.629,-1.629,-1.629,-1.629,-1.5632,-1.5961,-1.7271,-1.6613,-1.6613,-1.7271,-1.7271,-1.7271,-3.476,-3.5077,-3.512,-3.3974,-3.4436,-3.5124,-3.4865,-3.4774,-3.4305,-3.2584,-3.2451,-3.2184,-3.0543,-2.895,-2.7932,-2.7794,-2.4306,-2.1908,-2.2974,-2.079,-2.0636,-2.4915,-2.4221,-2.3349,-2.3564,-2.3582,-2.2321,-1.948,-1.9273,-1.8639,-1.7372,-1.7271,-1.7271,-1.7271,-1.7271,-1.7271,-1.7271,-1.8646,-1.9273,-1.9273,-1.7902,-1.8009,-1.9166,-1.7902,-1.7271,-1.7271,0.0,-1.7271,-1.7271,-1.7271,-1.7271,-1.7271,-1.7271,-1.7271,-1.7271,-1.7271,-1.7271,-1.7271,-1.7271,-1.7271,-1.7271,-1.7271,-1.7271,-1.7271,-1.7271,-1.7271,-1.7271,-1.7271,-1.7271,-1.7271,-1.7271,-1.7271,-1.7271,-1.7271,-1.7271,-1.7271,-1.7271,-1.7271,-1.7271,-1.7271,-1.7271,-1.7271,-1.7271,-1.7271,-1.7271,-1.7271,-1.7271,-1.7271,-1.7271,-1.7271,-1.7271,-1.7271,-1.7271,-1.7271,-1.7271,-1.7271,-1.7271,-1.7271,-1.7271,-1.7271,-1.7271,-1.7271,-1.7271,-1.7271,-1.7271,-1.7271,-1.7271,-1.7271,-1.7271,-1.7271,-1.7271,-1.7271,-3.935,-3.8696,-3.7696,-3.6352,-3.4787,-3.3458,-3.2956,-3.3177,-3.3563,-3.3563,-3.3953,-3.4332,-3.4839,-3.2431,-3.1317,-3.3893,-2.9835,-2.7063,-2.9012,-2.5201,-2.4036,-2.9323,-2.7813,-2.6447,-2.6518,-2.6518,-2.5259,-2.2427,-2.2224,-2.117,-1.8746,-1.8646,-1.8646,-1.8646,-1.8646,-1.8646,-1.8646,-2.1063,-2.2224,-2.2215,-1.9273,-1.9273,-2.1481,-1.8646,-1.7271,-1.7271,0.0,-1.7271,-1.7271,-1.7271,-1.7271,-1.7271,-1.7271,-1.7271,-1.7271,-1.7271,-1.7271,-1.7271,-1.7271,-1.7271,-1.7271,-1.7271,-1.7271,-1.7271,-1.7271,-1.7271,-1.7271,-1.7271,-1.7271,-1.7271,-1.7271,-1.7271,-1.7271,-1.7271,-1.7271,-1.7271,-1.7271,-1.7271,-1.7271,-1.7271,-1.7271,-1.7271,-1.7271,-1.7271,-1.7271,-1.7271,-1.7271,-1.7271,-1.7271,-1.7271,-1.7271,-1.7271,-1.7271,-1.7271,-1.7271,-1.7271,-1.7271,-1.7271,-1.7271,-1.7271,-1.7271,-1.7271,-1.7271,-1.7271,-1.7271,-1.7271,-1.7271,-1.7271,-1.7271,-1.7271,-1.7271,-1.7271,-3.8347,-3.8786,-3.9438,-3.9593,-3.6863,-3.4164,-3.4475,-3.4358,-3.4047,-3.4047,-3.4112,-3.4203,-3.4293,-3.3535,-3.2556,-3.1348,-2.975,-2.8149,-2.6677,-2.546,-2.597,-2.9497,-2.9409,-2.9012,-2.9301,-2.9334,-2.819,-2.5364,-2.5154,-2.5058,-2.4532,-2.4532,-2.4532,-2.4532,-2.4532,-2.4532,-2.4532,-2.4943,-2.5154,-2.5163,-2.2321,-2.117,-2.1481,-1.8646,-1.7271,-1.7271,-1.7271,0.0,-1.7271,-1.7271,-1.7271,-1.7271,-1.7271,-1.7271,-1.7271,-1.7271,-1.7271,-1.7271,-1.7271,-1.7271,-1.7271,-1.7271,-1.7271,-1.7271,-1.7271,-1.7271,-1.7271,-1.7271,-1.7271,-1.7271,-1.7271,-1.7271,-1.7271,-1.7271,-1.7271,-1.7271,-1.7271,-1.7271,-1.7271,-1.7271,-1.7271,-1.7271,-1.7271,-1.7271,-1.7271,-1.7271,-1.7271,-1.7271,-1.7271,-1.7271,-1.7271,-1.7271,-1.7271,-1.7271,-1.7271,-1.7271,-1.7271,-1.7271,-1.7271,-1.7271,-1.7271,-1.7271,-1.7271,-1.7271,-1.7271,-1.7271,-1.7271,-1.7271,-1.7271,-1.7271,-1.7271,-1.7271,-4.1914,-4.1123,-4.0932,-4.2379,-4.0033,-3.7284,-3.679,-3.6484,-3.5871,-3.4471,-3.4177,-3.4177,-3.4177,-3.381,-3.3189,-3.2639,-3.1893,-3.0544,-2.7998,-2.7518,-2.8583,-3.1895,-3.2183,-3.2121,-3.2253,-3.2277,-3.1118,-2.8294,-2.8086,-2.7459,-2.5889,-2.5889,-2.5889,-2.5889,-2.5889,-2.6518,-2.8086,-2.8086,-2.8086,-2.7981,-2.5259,-2.4628,-2.5984,-2.1587,-1.9594,-1.9487,-1.8009,-1.8224,-1.9487,-1.7902,-1.8217,-1.9487,-1.7902,-1.7271,-1.7271,-1.7271,-1.7271,-1.7271,-1.7271,-1.7271,-1.7271,-1.7271,-1.7271,-1.7271,-1.7271,-1.7271,-1.7271,-1.7271,-1.7271,-1.7271,-1.7271,-1.7271,-1.7271,-1.7271,-1.7271,-1.7271,-1.7271,-1.7271,-1.7271,-1.7271,-1.7271,-1.7271,-1.7271,-1.7271,-1.7271,-1.7271,-1.7271,-1.7271,-1.7271,-1.7271,-1.7271,-1.7271,-1.7271,-1.7271,-1.7271,-1.7271,-1.7271,-1.7271,-1.7271,-1.7271,-1.7271,-1.7271,-1.7271,-1.7271,-1.7271,-1.7271,-1.7271,-1.7271,-1.7271,-1.7271,-1.7271,-1.7271,-4.5605,0.0,-4.2424,-4.4294,-4.2062,-3.9149,0.0,-3.7664,-3.6627,-3.4504,-3.4084,-3.3943,-3.38,-3.3419,-3.3224,-3.3683,-3.3406,-3.2264,-3.0259,-2.997,-3.1025,-3.3881,-3.4177,-3.4228,-3.4384,-3.4254,-3.333,-3.113,-3.0912,-3.0072,-2.7981,-2.7773,-2.7773,-2.7773,-2.7561,-2.8437,-3.0735,-3.0735,-3.0794,-3.0912,-2.8086,-2.7877,-2.975,-2.4838,-2.2533,-2.2427,-2.0219,-2.0539,-2.2321,-1.9487,-1.9594,-2.1276,-1.8431,-1.7271,-1.7271,-1.7271,-1.7271,-1.7271,-1.7271,-1.7271,-1.7372,-1.8117,-1.8324,-1.8224,-1.7479,-1.7271,-1.7271,-1.7271,-1.7271,-1.7271,-1.7271,-1.7271,-1.7271,-1.7271,-1.7271,-1.7271,-1.7271,-1.7271,-1.7271,-1.7271,-1.7271,-1.7271,-1.7271,-1.7271,-1.7271,-1.7271,-1.7271,-1.7271,-1.7271,-1.7271,-1.7271,-1.7271,-1.7271,-1.7271,-1.7271,-1.7271,-1.7271,-1.7271,-1.7271,-1.7271,-1.7271,-1.7271,-1.7271,-1.7271,-1.7271,-1.7271,-1.7271,-1.7271,-1.7271,-1.7271,-1.7271,-1.7271,0.0,-4.5524,-4.3901,-4.4574,-4.1107,-3.7619,-3.7993,-3.6263,0.0,-3.3602,-3.3498,-3.3328,-3.2696,-3.2125,-3.193,-3.2501,-3.2125,-3.193,-3.2158,-3.2235,-3.2733,-3.4047,-3.4177,-3.4397,-3.4864,-3.4514,-3.4177,-3.3959,-3.3856,-3.3856,-3.3651,-3.3651,-3.3651,-3.3651,-3.2541,-3.2347,-3.3184,-3.3184,-3.3442,-3.3856,-3.1015,-2.9761,-2.9865,-2.6832,-2.5574,0.0,-2.5364,-2.5364,-2.5364,-2.2427,-2.1382,-2.1276,-1.8431,-1.7271,-1.7271,-1.7271,-1.7271,-1.7271,-1.7271,-1.7271,-1.7694,-2.0432,-2.1276,-2.0744,-1.8117,-1.7271,-1.7271,-1.7271,-1.7271,-1.7271,-1.7271,-1.7271,-1.7271,-1.7271,-1.7271,-1.7271,-1.7271,-1.7271,-1.7271,-1.7271,-1.7271,-1.7271,-1.7271,-1.7271,-1.7271,-1.7271,-1.7271,-1.7271,-1.7271,-1.7271,-1.7271,-1.7271,-1.7271,-1.7271,-1.7271,-1.7271,-1.7271,-1.7271,-1.7271,-1.7271,-1.7271,-1.7271,-1.7271,-1.7271,-1.7271,-1.7271,-1.7271,-1.7271,-1.7271,-1.7271,-1.7271,-1.7271,-4.7644,-4.7221,-4.6401,-4.7635,-4.4962,-4.1717,-4.0844,-3.854,-3.6107,-3.4297,-3.368,-3.3367,-3.3146,-3.254,-3.2346,-3.2917,-3.2924,-3.2742,-3.2501,-3.2787,-3.3003,-3.2631,-3.2904,-3.3203,-3.3436,-3.3255,-3.3125,-3.3125,-3.3125,-3.3125,-3.3125,-3.3125,-3.3125,-3.3125,-3.2696,-3.2579,-3.28,-3.28,-3.2904,-3.3125,-3.2445,-3.209,-3.2001,-2.951,-2.8398,-2.8294,-2.6623,-2.6832,0.0,-2.5364,-2.5259,-2.6508,-2.3688,-2.2639,-2.2639,-2.2639,-2.2639,-2.2639,-2.2639,-2.2639,-2.2851,-2.3899,-2.4215,-2.3688,-2.0851,-2.117,-2.2639,-2.2639,-2.2639,-2.2639,-2.2639,-2.2639,-2.2639,-2.2639,-2.2639,-2.2639,-2.2639,-2.2639,-2.2118,-2.0326,-2.0014,-1.938,-1.7587,-1.7271,-1.7271,-1.7271,-1.7271,-1.7271,-1.7271,-1.7271,-1.7271,-1.7271,-1.7271,-1.7271,-1.7271,-1.7271,-1.7271,-1.7271,-1.7271,-1.7271,-1.7271,-1.7271,-1.7271,-1.7271,-1.7271,-1.7271,-1.7271,-1.7271,-1.7271,-1.7271,-1.7271,-1.7271,-4.8437,-4.871,-4.8264,-4.8642,-4.6158,-4.3155,-4.1336,-3.8677,-3.6088,-3.431,-3.3706,-3.338,-3.3198,-3.2735,-3.2657,-3.3341,-3.3289,-3.293,-3.2527,-3.2657,-3.2599,-3.1817,-3.2125,-3.2476,-3.2476,-3.2476,-3.2476,-3.2476,-3.2476,-3.2476,-3.2476,-3.2476,-3.2307,-3.1943,-3.193,-3.2021,-3.2203,-3.2203,-3.2294,-3.2476,-3.2878,-3.3159,-3.3073,-3.1501,-3.0734,-3.0633,-2.8774,-2.8978,-3.0531,-2.7749,-2.7835,-2.942,-2.6617,-2.5666,-2.5889,-2.5889,-2.5889,-2.5889,-2.5889,-2.5889,-2.5994,-2.6832,-2.6518,-2.5679,-2.4532,-2.5574,-2.6937,-2.6099,-2.5889,-2.5889,-2.5889,-2.5889,-2.5889,-2.5889,-2.5889,-2.5889,-2.5889,-2.5889,-2.5259,-2.3274,-2.2957,-2.233,-2.0326,-2.0014,-2.0014,-2.0014,-1.9273,-1.8639,-1.8639,-1.7902,-1.7271,-1.7271,-1.7271,-1.7694,-1.8538,-1.7795,-1.7271,-1.7271,-1.7271,-1.7271,-1.7271,-1.7271,-1.7271,-1.7271,-1.7271,-1.7271,-1.7271,-1.7271,-1.7271,-1.7271,-1.7271,-1.7271,-4.9698,-4.9925,-4.9338,-4.6649,-4.3604,-4.0624,-3.8592,-3.5708,-3.3445,-3.3445,-3.3445,-3.3263,-3.2592,-3.2488,-3.267,-3.3354,-3.2865,-3.2476,-3.2476,-3.1995,-3.1726,-3.1726,-3.2112,-3.2463,-3.2463,-3.2463,-3.2463,-3.2463,-3.2463,0.0,-3.2463,-3.2463,-3.1943,-3.0708,-3.0682,-3.1047,-3.1713,-3.1618,-3.1904,-3.2463,-3.2463,-3.2463,-3.2463,-3.2476,-3.2476,-3.2476,-3.2476,-3.2476,0.0,-2.9578,-2.8781,-2.8911,-2.6055,-2.5391,-2.5984,-2.5984,-2.5984,-2.5984,-2.5879,-2.5889,-2.6403,-2.9127,-2.819,-2.6413,-2.9127,-2.9957,-2.9438,-2.6727,-2.5889,-2.5889,-2.5889,-2.5889,-2.5889,-2.5889,-2.5889,-2.5889,-2.5889,-2.5889,-2.5889,-2.5889,-2.5889,-2.5899,-2.5889,-2.5889,-2.5889,-2.5889,-2.3476,-2.1587,-2.1587,-1.9166,-1.7372,-1.7372,-1.7372,-1.8538,-2.1382,-1.9067,-1.7372,-1.7372,-1.7372,-1.7372,-1.7372,-1.7372,-1.7372,-1.7372,-1.7372,-1.7372,-1.7372,-1.7271,-1.7271,-1.7271,-1.7271,-1.7271,-4.7171,-4.7243,-4.6552,-4.3964,-4.0891,-3.8433,-3.8207,-3.5937,-3.393,-3.393,-3.393,-3.3878,-3.3696,-3.3346,-3.3367,-3.3826,-3.355,-3.2943,-3.2527,-3.1995,-3.1476,-3.1073,-3.1164,-3.1268,-3.1268,-3.1268,-3.1268,-3.1268,-3.1268,-3.1268,-3.1268,-3.1268,-3.1019,-3.0695,-3.0682,-3.0852,-3.1021,-3.1021,-3.1112,-3.1281,-3.1683,-3.1878,-3.1891,-3.2294,-3.2476,-3.2476,-3.2476,-3.2476,0.0,-3.1573,-3.1367,-3.1407,-3.0507,-3.0307,-3.0538,-3.0538,-3.0538,-3.0599,-3.1073,-3.1206,-3.1368,-3.2577,-3.2393,-3.1792,-3.2254,-3.2445,-3.2318,-3.1859,-3.175,-3.175,-3.175,-3.175,-3.175,-3.175,-3.175,-3.175,-3.175,-3.175,-3.113,-2.9127,-2.8711,-2.8086,-2.6204,-2.5889,-2.5889,-2.5889,-2.5154,-2.4637,-2.4637,-2.3899,-2.3371,-2.3371,-2.3371,-2.3688,-2.4532,-2.3793,-2.3371,-2.3371,-2.3371,-2.3371,-2.3371,-2.3371,-2.3371,-2.3371,-2.1382,-2.0326,-2.0326,-1.8324,-1.7271,-1.7271,-1.7271,-1.7271,-4.4548,-4.4548,-4.3867,-4.1198,-3.8944,-3.7258,-3.6924,-3.5362,-3.3969,-3.4436,-3.4345,-3.4177,-3.4177,-3.4005,-3.3888,-3.4125,-3.3797,-3.3237,-3.2553,-3.1995,-3.1424,-3.0747,-3.0682,-3.0682,-3.0682,-3.0682,-3.0682,-3.0682,-3.0682,-3.0682,-3.0682,-3.0682,-3.0682,-3.0682,-3.0682,-3.0682,-3.0682,-3.0682,-3.0682,-3.0682,-3.1125,-3.1281,-3.1307,-3.1631,-3.1787,-3.1787,-3.1787,-3.1787,0.0,-3.1787,-3.193,-3.2138,-3.2138,-3.2281,-3.2476,-3.2476,-3.2476,-3.2527,-3.2865,-3.3094,-3.3146,-3.3384,-3.3501,-3.3436,-3.3099,-3.3094,-3.306,-3.341,-3.3501,-3.3501,-3.3501,-3.3501,-3.3501,-3.3501,-3.3501,-3.3501,-3.3501,-3.3683,-3.342,-3.1652,-3.1502,-3.113,-2.9449,-2.9138,-2.9138,-2.9138,-2.819,-2.7459,-2.7459,-2.6518,-2.5889,-2.5889,-2.7101,-2.7764,-2.748,-2.6518,-2.5889,-2.5889,-2.5889,-2.5889,-2.5889,-2.5889,-2.5889,-2.5889,-2.411,-2.3265,-2.3265,-2.1587,-2.0744,-2.0744,-2.0744,-2.0744,-4.1561,-4.1577,-4.1099,-3.8124,-3.7177,-3.6665,-3.5281,-3.4228,-3.38,-3.476,-3.4683,-3.4306,-3.4203,-3.4368,-3.4573,-3.4573,-3.4248,-3.3851,-3.3209,-3.2408,-3.1734,-3.1103,-3.0854,-3.0682,-3.0682,-3.0682,-3.0682,-3.0682,-3.0682,-3.0682,-3.0682,-3.0682,-3.0682,-3.0682,-3.0682,-3.0682,-3.0682,-3.0682,-3.0682,-3.0682,-3.0682,-3.0682,-3.0682,-3.0682,-3.0682,-3.0682,-3.0682,-3.0682,0.0,-3.0682,-3.1073,-3.1554,-3.1554,-3.1865,-3.232,-3.232,-3.232,-3.232,-3.2372,-3.2398,-3.2398,-3.2463,-3.2398,-3.232,-3.2385,-3.2398,-3.2411,-3.2463,-3.2476,-3.2476,-3.2476,-3.2476,-3.2476,-3.2476,-3.2476,-3.2476,-3.2476,-3.2878,-3.3354,-3.3354,-3.3771,-3.4021,-3.4021,-3.406,-3.4099,-3.4099,-3.198,-3.036,-3.036,-2.8297,-2.6704,-2.6572,-2.9399,-3.0997,-3.0429,-2.8086,-2.6623,-2.6623,-2.6623,-2.6623,-2.6623,-2.6623,-2.6623,-2.6623,-2.6308,-2.6204,-2.6204,-2.5994,-2.5889,-2.5889,-2.5889,-2.5889,-3.6904,-3.7363,-3.7822,-3.2934,-3.2975,-3.4423,-3.4904,-3.4773,-3.467,-3.4929,-3.5332,-3.528,-3.4345,-3.5871,-3.7261,-3.7261,-3.8059,-3.8557,-3.8418,-3.574,-3.3715,-3.3587,-3.1943,-3.0682,-3.0682,-3.0682,0.0,-3.0682,-3.0682,-3.0682,-3.0682,-3.0682,-3.0682,-3.0682,-3.0682,-3.0682,-3.0682,-3.0682,-3.0682,-3.0682,-3.0682,-3.0682,-3.0682,-3.0682,-3.0682,-3.0682,-3.0682,-3.0682,-3.0682,-3.0682,-3.0747,-3.0956,-3.0956,-3.1021,-3.1032,-3.1032,-3.1032,-3.119,-3.1657,-3.1813,-3.1878,-3.232,-3.1865,-3.1216,-3.1683,-3.1813,-3.1904,-3.2346,-3.2476,-3.2476,-3.2476,-3.2476,-3.2476,-3.2476,-3.2476,-3.2476,-3.2476,-3.2579,-3.2657,-3.2657,-3.2761,-3.2839,-3.2839,-3.3216,-3.3615,-3.3615,-3.3766,-3.3923,-3.3923,-3.3877,-3.3311,-3.2001,-3.2872,-3.347,-3.3343,-3.2701,-3.2393,-3.2393,-3.2393,-3.2393,-3.2393,-3.2393,-3.2393,-3.2393,-3.0187,-2.9023,-2.9023,-2.6937,-2.5889,-2.5889,-2.5889,-2.5889,-3.1207,-3.1547,-3.2249,-3.0601,-3.11,-3.2528,-3.4511,-3.4747,-3.48,-3.5371,-3.6309,-3.6925,-3.6568,-3.8457,-3.9916,-3.9581,-3.9831,-3.9965,-3.9611,-3.6607,-3.439,-3.439,-3.2218,-3.0682,-3.0682,-3.0682,-3.0682,-3.0682,-3.0682,-3.0682,-3.0682,-3.0682,-3.0682,-3.0682,-3.0682,-3.0682,-3.0682,-3.0682,-3.0682,-3.0682,-3.0682,-3.0682,-3.0682,-3.0682,-3.0682,-3.0682,-3.0682,-3.0682,-3.0682,-3.0682,-3.0682,-3.0682,-3.0682,-3.0682,-3.0682,-3.0682,-3.0682,-3.0721,-3.1112,-3.1216,-3.1268,-3.1554,-3.1255,-3.0734,-3.1125,-3.1216,-3.1281,-3.1567,-3.1657,-3.1657,-3.1657,-3.1657,-3.1657,-3.1657,-3.1657,-3.1657,-3.1657,-3.1865,-3.2073,-3.2073,-3.2514,-3.2891,-3.2891,-3.3237,-3.3524,-3.3797,-3.3787,-3.393,-3.4203,-3.4735,-3.4644,-3.3563,-3.3693,-3.3657,-3.3384,-3.3358,-3.3358,-3.3358,-3.3618,-3.3875,-3.3875,-3.4034,-3.4177,-3.4177,-3.2555,-3.1591,-3.1591,-2.9894,-2.9047,-2.9047,-2.9047,-2.9047,-2.605,-2.628,-2.7193,-2.9351,-3.0268,-3.1311,-3.445,-3.4761,-3.4618,-3.5592,-3.7146,-3.8356,-3.8777,-4.1091,-4.2708,-4.2331,-4.1961,-4.1515,-4.0859,-3.8081,-3.597,-3.5638,-3.3454,-3.1852,-3.1406,-3.1314,0.0,0.0,-3.113,-3.113,-3.0774,-3.0682,-3.0682,-3.0682,-3.0682,-3.0959,-3.1314,-3.1314,-3.1314,-3.1314,-3.1314,-3.113,-3.0682,-3.0682,-3.0682,-3.0682,-3.0682,0.0,-3.0682,-3.0682,-3.0682,-3.0682,-3.0682,-3.0682,-3.0682,-3.0682,-3.0682,-3.0682,-3.0682,-3.0682,-3.0682,-3.0682,-3.0682,-3.0682,-3.0682,-3.0682,-3.0682,-3.0682,-3.0682,-3.0682,-3.0682,-3.0682,-3.0682,-3.0682,-3.0682,-3.0682,-3.0682,-3.1138,-3.1515,-3.17,-3.2495,-3.3172,-3.3276,-3.3289,-3.3445,-3.3813,-3.3164,-3.28,-3.3367,-3.3667,-3.3654,-3.3185,-3.3224,-3.3094,-3.2514,-3.2476,-3.2476,-3.2476,-3.2917,-3.3289,-3.3289,-3.3732,-3.3878,-3.3878,-3.3524,-3.3289,-3.3289,-3.2709,-3.2476,-3.2476,-3.2476,-3.2476,-2.3563,-2.4741,-2.6711,-2.7332,-2.8994,-3.1404,-3.5053,-3.5371,-3.4903,-3.5058,-3.7202,-3.885,-3.827,-4.2265,-4.5726,-4.6379,-4.7633,-4.8401,-4.7655,-4.4684,-4.2121,-4.0674,-3.8413,-3.6132,-3.4118,-3.3936,-3.3027,-3.0867,-3.2662,-3.3027,-3.0867,-3.0682,-3.0682,-3.0682,-3.0682,-3.176,-3.3936,-3.3936,-3.3936,-3.3936,-3.3936,-3.2753,-3.0682,-3.0682,-3.0682,-3.0682,-3.0682,-3.0682,-3.0682,-3.0682,-3.0682,-3.0682,-3.0682,-3.0682,-3.0682,-3.0682,-3.0682,-3.0682,-3.0682,-3.0682,-3.0682,-3.0682,-3.0682,-3.0682,-3.0682,-3.0682,-3.0682,-3.0682,-3.0682,-3.0682,-3.0682,-3.0682,-3.0682,-3.0682,-3.0682,-3.0682,-3.0682,-3.0734,-3.1034,-3.1528,-3.1843,-3.2008,-3.2501,-3.2592,-3.2618,-3.2683,-3.2995,-3.3354,-3.3432,-3.2625,-3.2039,-3.1961,-3.2294,-3.2553,-3.2476,-3.2476,-3.2476,-3.2476,-3.254,-3.2592,-3.2592,-3.2657,-3.2696,-3.2696,-3.2618,-3.2592,-3.2592,-3.2514,-3.2476,-3.2476,-3.2476,-3.2476,-2.0574,-2.2546,-2.5361,-2.6934,-2.9212,-3.1694,-3.4704,-3.5008,-3.5072,-3.6925,-3.9538,-4.1977,-4.3476,-4.6686,-4.9139,-4.947,-4.9374,-4.8995,-4.814,-4.5271,-4.2776,-4.153,-3.9294,-3.7543,-3.6489,-3.64,-3.5339,-3.2935,-3.4978,-3.5339,-3.2935,-3.2753,-3.2127,-3.0761,-3.0682,-3.1943,-3.439,-3.5698,-3.64,-3.64,-3.64,-3.5773,-3.4783,-3.4783,-3.4075,-3.2753,-3.2753,-3.2035,-3.0682,-3.0682,-3.0682,-3.0682,-3.0682,-3.0682,-3.0682,-3.0682,-3.0682,-3.0682,-3.0682,-3.0682,-3.0682,-3.0682,-3.0682,-3.0682,-3.0682,-3.0682,-3.0682,-3.0682,-3.0682,-3.0682,-3.0682,-3.0682,-3.0852,-3.1177,-3.1008,-3.0852,-3.119,-3.0995,-3.0943,-3.1515,-3.2247,-3.2768,-3.3016,-3.3055,-3.3055,-3.3055,-3.2729,-3.2599,-3.2813,-3.2234,-3.2186,-3.3479,-3.239,-3.2067,-3.3462,-3.2256,-3.1515,-3.1515,-3.1826,-3.2008,-3.2008,-3.2307,-3.2476,-3.2476,-3.2164,-3.2008,-3.2008,-3.167,-3.1515,-3.1515,-3.1515,-3.1515,-2.0942,-2.2398,-2.4596,-2.8069,-3.0149,-3.195,-3.4628,-3.4709,-3.5101,-3.8164,-4.109,-4.3969,-4.7131,-4.9439,-5.1045,-5.1254,-5.0229,-4.909,-4.8235,-4.5923,-4.3936,-4.2807,-4.092,-3.9487,-3.8854,-3.8766,0.0,0.0,-3.7178,-3.709,-3.4771,-3.4831,-3.4041,-3.2012,-3.2301,-3.3292,-3.4921,-3.7536,-3.8766,-3.8766,-3.8766,-3.8501,-3.7898,-3.7898,-3.6936,-3.5263,-3.5263,-3.427,-3.2465,-3.193,-3.1668,-3.1576,-3.0946,-3.0682,-3.0682,-3.0682,-3.0682,-3.0828,-3.1846,-3.1683,-3.124,-3.1919,-3.1882,-3.1468,-3.1628,-3.1668,-3.1668,-3.1668,-3.1668,-3.176,-3.2374,-3.2557,-3.2708,-3.3407,-3.3089,-3.2722,-3.3421,-3.3186,-3.3007,-3.3462,-3.4538,-3.5465,-3.5465,-3.4885,-3.4402,-3.4402,-3.2962,-3.2556,-3.4304,-3.4151,-3.4463,-3.6062,-3.4147,-3.3532,-3.5188,-3.3635,-3.2557,-3.2557,-3.2983,-3.2965,-3.2431,-3.2751,-3.2705,-3.2047,-3.1631,-3.1411,-3.1411,-3.0982,-3.0682,-3.0682,-3.0682,-3.0682,-2.6974,-2.582,-2.5131,-3.1212,-3.1983,-3.214,-3.5232,-3.5008,-3.4981,-3.7606,-4.0367,-4.3035,-4.5656,-4.8327,-5.0266,-5.1178,-5.1216,-5.0855,-4.9925,-4.9054,-4.7898,-4.6181,-4.5101,0.0,0.0,0.0,0.0,-3.8743,0.0,-3.7812,-3.5488,-3.6021,-3.6068,-3.5167,-3.6685,-3.7225,-3.6455,-3.964,-4.1216,-4.1216,-4.1216,-4.0083,-3.7898,-3.7898,-3.781,-3.7721,-3.7721,-3.7632,-3.7365,-3.5173,-3.4208,-3.4027,-3.1576,-3.0682,-3.0682,-3.0682,-3.0682,-3.1221,-3.4943,-3.4482,-3.2617,-3.5371,-3.4876,-3.343,-3.4006,-3.4208,-3.4208,-3.4208,-3.4208,-3.4737,-3.692,-3.7543,-3.7702,-3.8492,-3.8126,-3.7718,-3.8492,-3.862,-3.8695,-3.8727,-3.9861,-4.0819,-4.0819,-3.874,-3.7125,-3.7125,-3.4438,-3.4235,-3.9328,-4.0045,-3.9663,-3.8989,-3.8711,-3.8423,-3.7769,-3.7632,-3.7543,-3.7543,-3.7575,-3.6536,-3.4343,-3.4281,-3.3216,-3.0852,-3.0734,-3.0813,-3.0813,-3.0695,-3.0682,-3.0682,-3.0682,-3.0682,-2.7245,-2.8304,-2.9576,-3.1425,-3.2839,-3.4471,-3.7309,-3.7268,-3.7952,-4.2299,-4.4448,-4.6263,-4.8909,-5.024,-5.0931,-5.1254,-5.0836,-5.0172,-4.9317,-4.8008,-4.6717,-4.5683,-4.4705,-4.3632,0.0,0.0,0.0,-4.2048,-4.1532,-4.0226,-3.7777,-3.7864,-3.7213,-3.5477,-3.5954,-3.6848,-3.7999,-3.9192,-4.062,-4.2186,-4.2186,-4.1946,-4.1659,-4.1659,-4.1141,-4.0137,-3.9574,-3.8509,-3.6915,-3.5622,-3.5368,-3.5856,-3.4976,-3.4861,-3.5309,-3.5309,-3.4965,-3.4591,-3.5467,-3.5161,-3.4413,-3.5493,-3.5615,-3.5409,-3.5081,-3.5414,-3.5661,-3.5143,-3.502,-3.5192,-3.6037,-3.6628,-3.721,-3.7912,-3.8412,-3.8839,-3.9547,-3.9784,-4.0006,-4.0364,-4.0864,-4.1348,-4.1718,-4.1017,-4.0289,-3.9853,-3.9184,-3.9404,-4.1332,-4.1218,-4.1414,-4.2571,-4.1097,-4.0424,-4.1668,-3.9825,-3.8646,-3.8646,-3.8139,-3.7543,-3.6668,-3.6668,-3.6206,-3.5399,-3.3817,-3.3831,-3.5309,-3.3831,-3.3817,-3.5309,-3.5309,-3.5309,-3.04,-3.1325,-3.226,-3.294,-3.4712,-3.6799,-3.861,-3.9314,-4.0718,-4.5165,-4.6438,-4.7705,-5.0355,-5.0874,-5.0874,-5.0874,-5.0153,-4.9393,-4.8916,-4.7286,-4.6052,-4.5588,-4.4686,0.0,0.0,-4.3604,-4.3528,-4.2877,-4.2427,-4.1316,-3.9336,-3.9489,-3.8782,-3.6984,-3.7474,-3.835,-3.9651,-4.0001,-4.0913,-4.254,-4.254,-4.2825,-4.3357,-4.3357,-4.2777,-4.1757,-4.1235,-4.0067,-3.8505,-3.708,-3.6911,-3.7354,-3.6588,-3.6619,-3.7018,-3.7018,-3.7515,-3.8015,-3.7525,-3.6697,-3.604,-3.7026,-3.743,-3.7324,-3.6763,-3.7124,-3.762,-3.6829,-3.6548,-3.6848,-3.7865,-3.8539,-3.9251,-4.0253,-4.0749,-4.1213,-4.198,-4.2316,-4.2471,-4.2857,-4.3353,-4.3866,-4.4378,-4.4589,-4.4378,-4.3006,-4.3258,-4.3867,-4.4662,-4.4412,-4.4685,-4.5963,-4.4405,-4.3725,-4.498,-4.3157,-4.1849,-4.1849,-4.1166,-4.0402,-3.9605,-3.9251,-3.8678,-3.7898,-3.64,-3.6311,-3.7898,-3.6311,-3.64,-3.7898,-3.7898,-3.7898,-3.6864,-3.5189,-3.3207,-3.6145,-3.8071,-3.9215,-3.9317,-4.0913,-4.3101,-4.5649,-4.6149,-4.6937,-4.9528,-4.9906,-4.9887,-4.9887,-4.926,-4.8783,-4.8783,-4.7267,-4.6204,-4.6204,-4.5464,-4.4866,0.0,-4.423,-4.3091,-4.1399,-4.1229,-4.0908,-4.0129,-4.0794,-4.0851,-4.0072,-4.167,-4.2066,-4.1172,-4.2047,-4.2465,-4.2465,-4.2465,-4.2465,-4.2465,-4.2503,-4.2522,-4.254,-4.2522,-4.2503,-4.2342,-3.9892,-3.8959,-3.8748,-3.6432,-3.5529,-3.5629,-3.5497,-3.7954,-4.1153,-4.1153,-3.933,-3.7454,-4.0248,-4.0359,-3.9222,-3.8959,-3.9584,-4.004,-3.9204,-3.8994,-3.9679,-4.2894,-4.3736,-4.4173,-4.5787,-4.5578,-4.5151,-4.6071,-4.6261,-4.628,-4.628,-4.759,-4.8783,-4.8783,-4.9412,-4.9092,-4.6517,-4.6097,-4.7075,-4.9585,-4.9887,-4.9678,-4.8954,-4.8859,-4.8444,-4.7609,-4.7514,-4.7495,-4.7495,-4.6736,-4.5296,-4.3027,-4.2074,-4.0484,-3.818,-3.8108,-3.8092,-3.8164,-3.8059,-3.8059,-3.8164,-3.8164,-3.8164,-3.7933,-3.9768,-4.0882,-4.1405,-4.1832,-4.2671,-4.4553,-4.54,-4.6408,-4.846,-4.8939,-4.9129,-4.9831,-4.9507,-4.909,-4.909,-4.8368,-4.7799,-4.7799,-4.6394,-4.5455,-4.5455,-4.461,-4.4241,-4.4828,-4.423,-4.3566,-4.311,-4.1873,-4.1096,-4.0927,-4.0547,-4.0225,-4.0053,-4.051,-4.0662,-4.0338,-4.0643,-4.0757,-4.0757,-4.0757,-4.0757,-4.0776,-4.1345,-4.1952,-4.2503,-4.1895,-4.1551,-4.1494,-4.0269,-4.007,-4.0529,-3.9894,-3.9999,-4.0443,-3.9184,-3.9415,-4.0338,-4.0338,-3.9864,-3.9315,-4.0091,-4.0502,-4.0575,-3.9884,-4.0274,-4.0923,-4.0682,-4.0529,-4.0891,-4.2493,-4.3319,-4.3869,-4.4344,-4.5198,-4.5957,-4.6204,-4.6717,-4.7134,-4.7134,-4.7495,-4.7799,-4.7799,-4.852,-4.8885,-4.8103,-4.749,-4.7525,-4.8902,-4.909,-4.9241,-4.9621,-4.9678,-4.9489,-4.9243,-4.8748,-4.8387,-4.8387,-4.759,-4.6848,-4.6204,-4.5873,-4.5198,-4.3994,-4.2284,-4.1915,-4.2948,-4.1234,-4.132,-4.2948,-4.2948,-4.2948,-4.0616,-4.227,-4.3508,-4.2904,-4.3625,-4.4664,-4.551,-4.6866,-4.8067,-4.8737,-4.8864,-4.8864,-4.8864,-4.8539,-4.8197,-4.8197,-4.7495,-4.6944,-4.6944,-4.5843,-4.5008,-4.5008,-4.4572,-4.4774,-4.6141,-4.5018,-4.443,-4.5032,-4.331,-4.193,-4.1229,-4.0794,-4.0357,-4.0072,-4.0053,-4.0053,-4.0053,-4.0053,-4.0053,-4.0053,-4.0053,-4.0053,-4.0072,-4.049,-4.1003,-4.1518,-4.0946,-4.0737,-4.0699,-4.0263,-4.0282,-4.0737,-4.0737,-4.1041,-4.1423,-4.0415,-4.0053,-4.0053,-4.0053,-4.0053,-4.0053,-4.0053,-4.0566,-4.1096,-4.0661,-4.1117,-4.18,-4.18,-4.18,-4.199,-4.2844,-4.3395,-4.385,-4.4108,-4.5008,-4.5711,-4.5711,-4.609,-4.6344,-4.6344,-4.6717,-4.6944,-4.6944,-4.7647,-4.868,-5.0213,-5.0209,-5.0289,-5.0811,-5.0872,-5.1233,-5.2248,-5.2349,-5.2143,-5.152,-5.1089,-5.0426,-4.9353,-4.8463,-4.7989,-4.7989,-4.7647,-4.7248,-4.6774,-4.5055,-4.4649,-4.5502,-4.3714,-4.3549,-4.4885,-4.4885,-4.4525,-4.433,-4.3754,-4.3124,-4.3183,-4.5085,-4.6526,0.0,-4.7174,-4.8939,-4.7987,-4.7815,-4.7726,-4.7457,-4.7381,-4.7324,-4.7324,-4.6641,-4.6109,-4.6109,-4.5445,-4.5055,-4.5544,-4.5629,-4.6432,-4.8347,-4.6831,-4.6035,-4.7081,-4.5297,-4.3335,-4.1551,-4.1304,-4.0985,-4.0508,-4.0167,-4.011,-4.0336,-4.011,-4.0053,-4.0053,-4.0053,-4.0053,-4.0053,-4.0053,-4.0053,-4.0053,-4.0053,-4.0053,-4.0053,-4.0053,-4.0053,-4.0053,-4.0053,-4.0053,-4.0053,-4.0053,-4.0053,-4.0053,-4.0053,-4.0053,-4.0053,-4.0053,-4.049,-4.1058,-4.1058,-4.1648,-4.2294,-4.2484,-4.254,-4.2749,-4.366,-4.3888,-4.4078,-4.4715,-4.4885,-4.4885,-4.4885,-4.514,-4.531,-4.531,-4.616,-4.6852,-4.6852,-4.7547,-4.9077,-5.2107,-5.3145,-5.3625,-5.3754,-5.367,-5.4144,-5.5291,-5.54,-5.5002,-5.3931,-5.4025,-5.3077,-5.0923,-4.9837,-4.9323,-4.9323,-4.8322,-4.7666,-4.7457,-4.6755,-4.6242,-4.5957,-4.5217,-4.4715,-4.462,-4.462,-4.3786,0.0,0.0,0.0,0.0,0.0,0.0,0.0,-5.2678,-5.1014,-5.0261,-5.0061,-4.9553,-4.7726,-4.6926,-4.647,-4.647,-4.5768,-4.5132,-4.5132,-4.4999,-4.62,-4.976,-5.0248,-5.041,-5.0814,-5.0491,-4.9595,-4.8101,-4.696,-4.5486,-4.3363,-4.193,-4.1853,-4.326,-4.1191,-4.0767,-4.2249,-4.0767,-4.0053,-4.0053,-4.0053,-4.0053,-4.0053,-4.0053,-4.0053,-4.0053,-4.0053,-4.0053,-4.0053,-4.0053,-4.0053,-4.0053,-4.0053,-4.0053,-4.0053,-4.0053,-4.0053,-4.0053,-4.0053,-4.0053,-4.0053,-4.0053,-4.0167,-4.0301,-4.0301,-4.0415,-4.0852,-4.2161,-4.254,-4.2882,-4.4279,-4.4658,-4.4696,-4.4866,-4.4885,-4.4885,-4.4885,-4.6348,-4.7541,-4.7541,-4.917,-5.0524,-5.0524,-5.1124,-5.1649,-5.1709,-5.1893,-5.2203,-5.2777,-5.2885,-5.3232,-5.4101,-5.4187,-5.4513,-5.5156,-5.6018,-5.6269,-5.5819,-5.3811,-5.2743,-5.2743,-5.061,-4.8788,-4.7476,-4.7305,-4.6242,-4.4249,-4.4078,-4.366,-4.3015,-4.3015,-4.2484,0.0,0.0,0.0,0.0,0.0,0.0,0.0,0.0,0.0,0.0,0.0,-5.0415,-4.8204,0.0,-4.6824,-4.5769,-4.5169,-4.5291,-4.6432,-4.658,-4.7809,-5.1158,-5.1559,-5.1937,-5.2969,-5.2096,-5.1457,-5.1392,-5.0101,-4.8636,-4.6998,-4.513,-4.46,-4.5612,-4.3325,-4.2787,-4.4201,-4.335,-4.2858,-4.2858,-4.2858,-4.2858,-4.2858,-4.1846,-4.19,-4.2785,-4.1846,-4.14,-4.14,-4.14,-4.0842,-4.0129,-4.1047,-4.0842,-4.0129,-4.1047,-4.0823,-4.0185,-4.1122,-4.14,-4.14,-4.14,-4.2048,-4.294,-4.3388,-4.3912,-4.4566,-4.5836,-4.6571,-4.7202,-4.7999,-4.8223,-4.8223,-4.8223,-4.8223,-4.8223,-4.8223,-4.9107,-4.9821,-4.9821,-5.0733,-5.1559,-5.1559,-5.3634,-5.5182,-5.4752,-5.4683,-5.4868,-5.5275,-5.5344,-5.5449,-5.5853,-5.5922,-5.6337,-5.7454,-5.6963,-5.6762,-5.734,-5.5116,-5.3311,-5.2193,-5.0972,-4.9402,-4.7476,-4.7058,-4.6033,-4.4279,-4.3964,-4.3338,-4.2522,-4.1667,-4.1022,0.0,0.0,0.0,0.0,0.0,0.0,0.0,0.0,0.0,0.0,0.0,0.0,0.0,0.0,0.0,-4.6412,-4.62,-4.6851,-4.8594,-4.9229,-5.0286,-5.2494,-5.2754,-5.3386,-5.5102,-5.3778,-5.3307,-5.4536,-5.3026,-5.1585,-5.0503,-4.8634,-4.7832,-4.8326,-4.5984,-4.5307,-4.6563,-4.5938,-4.5708,-4.5708,0.0,0.0,-4.5637,-4.4056,-4.4201,-4.5566,-4.3984,-4.3329,-4.3329,-4.3329,-4.2491,-4.1271,-4.2764,-4.2417,-4.1271,-4.2764,-4.2417,-4.1345,-4.2838,-4.3329,-4.3329,-4.3329,-4.4418,-4.5789,-4.6572,-4.7355,0.0,-4.9017,-4.9942,-5.0717,-5.1087,-5.1196,-5.1239,-5.1414,-5.1559,-5.1559,-5.1559,-5.1777,-5.2096,-5.2096,-5.2437,-5.2754,-5.2754,-5.5676,-5.7942,-5.7668,-5.7788,-5.7837,-5.7617,-5.7788,-5.791,-5.791,-5.791,-5.835,-5.9423,-5.7837,-5.7359,-5.8688,-5.6627,-5.4122,-5.1252,-5.0655,-4.9544,-4.7587,-4.6515,-4.5671,-4.5044,-4.3997,-4.3015,-4.2088,-4.0598,-3.9802,0.0,0.0,0.0,0.0,0.0,0.0,0.0,0.0,0.0,0.0,0.0,0.0,0.0,0.0,0.0,0.0,-5.0733,-5.0814,-5.1136,-5.271,-5.4714,-5.693,-5.7182,-5.7333,-5.7509,-5.7357,-5.6501,-5.4769,-5.4435,-5.3452,-5.1464,0.0,0.0,0.0,0.0,-4.7811,-4.964,-4.698,-4.5708,-4.5708,-4.5708,-4.5708,-4.5708,-4.5423,-4.5494,-4.5637,-4.5423,-4.5352,-4.5352,-4.5352,-4.5208,-4.5065,-4.528,-4.5208,-4.5087,-4.528,-4.5208,-4.5065,-4.528,0.0,0.0,-4.5352,-4.5494,-4.5659,-4.5767,-4.5876,-4.6181,-4.7064,-4.7411,-4.7888,-4.956,-4.9994,-5.0211,-5.1261,-5.1559,-5.1559,-5.1559,-5.2969,-5.4303,-5.4303,-5.5865,-5.7182,-5.7182,-5.7989,-5.8108,-5.6641,-5.7276,-5.7569,-5.647,-5.73,-5.791,-5.791,-5.791,0.0,-5.9423,-5.9679,-6.0726,-6.2898,-6.181,-5.8493,-5.2692,-5.0442,-4.885,-4.7804,-4.5883,-4.511,-4.558,-4.3618,-4.1857,-4.0338,-3.9655,-3.9084,0.0,0.0,0.0,0.0,0.0,0.0,0.0,0.0,0.0,0.0,0.0,0.0,0.0,0.0,0.0,0.0,-5.1087,-5.2357,-5.4916,-5.5398,-5.611,-5.7737,-5.791,-5.791,-5.791,-5.791,-5.7509,-5.6578,-5.6578,-5.6196,-5.5249,-5.368,-5.3406,-5.4852,-5.2108,-5.1044,-5.1847,-5.0604,-4.967,-4.9063,-4.9063,-4.9063,-4.8995,-4.7865,-4.8027,-4.8995,-4.7865,-4.7377,-4.7377,-4.7377,-4.6722,-4.5779,0.0,0.0,0.0,0.0,-4.5289,-4.4951,-4.6084,-4.6068,-4.5415,-4.5415,-4.6245,-4.718,-4.718,-4.8062,-4.9157,-4.9531,-5.051,-5.1629,-5.2394,-5.2604,-5.272,-5.3162,-5.3353,-5.3353,-5.3353,-5.4024,-5.464,-5.464,-5.6175,0.0,-5.8711,-5.9008,-5.9177,-5.9232,-5.9609,-6.0066,-6.0292,-6.0828,-6.088,-6.0233,-6.02,-6.0336,-6.0828,-6.0085,0.0,0.0,0.0,-5.8933,-5.7352,-5.4073,0.0,0.0,0.0,-4.6781,-4.5412,-4.272,0.0,0.0,-4.1433,-4.1214,0.0,0.0,0.0,0.0,0.0,0.0,0.0,0.0,0.0,0.0,0.0,0.0,0.0,0.0,0.0,0.0,-5.3008,-5.5106,-5.938,-5.8234,-5.7521,-5.9032,-5.7917,-5.7129,-5.7422,-5.7178,-5.7007,-5.7007,-5.7007,-5.7007,-5.7007,-5.5468,-5.5131,-5.6178,-5.4445,-5.3634,-5.3932,-5.3322,-5.2707,-5.1926,-5.1632,-5.151,-5.151,-5.0022,-5.0158,-5.1419,-5.0022,-4.9385,-4.9385,-4.9385,-4.8581,-4.7401,-4.8487,-4.8707,-4.8337,-4.6908,-4.5887,-4.5415,-4.6885,-4.679,-4.607,-4.607,-4.7037,-4.8184,-4.8184,-4.9345,-5.0679,-5.0973,-5.2102,-5.342,-5.403,-5.4201,-5.4274,-5.4567,-5.464,-5.4758,-5.5227,-5.5298,-5.5414,-5.5878,-5.6897,-5.7903,-5.8874,-5.9448,-5.9938,-6.0405,-6.074,-6.1248,-6.2309,-6.2616,-6.2685,-6.2283,-6.223,-6.223,-6.223,-6.1201,-6.1588,-6.3989,-6.1325,-6.0424,-6.2029,-5.8006,-5.495,-5.343,-5.1499,-4.9552,0.0,0.0,0.0,0.0,0.0,0.0,0.0,0.0,0.0,0.0,0.0,0.0,0.0,0.0,0.0,0.0,0.0,0.0,0.0,0.0,0.0,0.0,0.0,0.0,-6.4469,-6.1564,-5.984,-6.2193,-5.7881,-5.5153,-5.6105,-5.5348,-5.4738,-5.4738,-5.4738,-5.4738,-5.4738,-5.4667,-5.5105,-5.6129,-5.5154,-5.5081,-5.6056,-5.4079,-5.3005,-5.305,-5.1999,-5.151,-5.151,-5.1419,-5.1419,-5.151,-5.1419,-5.1419,-5.1419,-5.1419,-5.1352,-5.1255,-5.0158,-4.907,-4.8218,-4.8155,-4.8131,-4.8107,-4.817,-4.8145,-4.8121,-4.8121,-4.8121,-4.8184,-4.8184,-4.8232,-4.8476,-4.954,-4.9857,-5.0394,-5.2517,-5.3078,-5.3347,-5.4396,-5.464,-5.5087,-5.6727,-5.707,-5.7521,-5.9011,-5.9045,-5.8657,-5.8113,-5.9333,-5.989,-5.8292,-5.8871,0.0,-5.9973,-6.0834,-6.1959,-6.3195,-6.3329,-6.3329,-6.3329,-6.3841,-6.4689,-6.5927,-6.4819,-6.4707,-6.5889,-6.1056,-5.8319,-5.8319,-5.5056,-5.3249,-5.3043,0.0,0.0,0.0,0.0,0.0,0.0,0.0,0.0,0.0,0.0,0.0,0.0,0.0,0.0,0.0,0.0,0.0,0.0,0.0,0.0,0.0,0.0,0.0,0.0,0.0,-6.0084,-6.1279,-6.0071,-5.8366,-5.6396,-5.7014,-5.7074,-5.5762,-5.5031,-5.5087,-5.62,-5.627,-5.6446,-5.6824,-5.6471,-5.5564,-5.4128,-5.4442,-5.4093,-5.3098,-5.3087,-5.2871,-5.2536,-5.1828,-5.151,-5.151,-5.151,-5.151,-5.151,-5.151,-5.1194,-5.0703,-5.0325,-4.9318,-4.8184,-4.8184,-4.8184,-4.8086,-4.7441,-4.7197,-4.7051,-4.6258,-4.6015,-4.6015,-4.6015,-4.6551,-4.7638,-4.9799,-5.0915,-5.2015,-5.4581,-5.529,-5.5304,-5.5695,-5.5799,-5.5928,-5.648,-5.6608,-5.6799,-5.7306,-5.904,-6.0114,-5.9029,-6.0056,-6.0771,-6.019,-6.1892,-6.325,-6.3319,-6.6054,-6.7833,-6.7302,-6.7993,-6.8487,-6.8487,-6.6671,-6.6209,-6.7915,-6.5317,-6.4434,-6.6049,-6.3305,-6.1927,-6.2358,-5.913,-5.5722,-5.2214,0.0,0.0,0.0,0.0,0.0,0.0,0.0,0.0,0.0,0.0,0.0,0.0,0.0,0.0,0.0,0.0,0.0,0.0,0.0,0.0,0.0,0.0,0.0,0.0,0.0,0.0,-6.1949,-6.1034,0.0,-5.7699,-5.8698,-5.8974,-5.7724,-5.6571,-5.6414,-5.7504,-5.7114,-5.7021,-5.7438,-5.7438,-5.6774,-5.5347,-5.6001,-5.5794,-5.4808,-5.4751,-5.4596,-5.4202,-5.3559,-5.323,-5.323,-5.323,-5.3002,-5.2494,-5.2065,-5.159,-5.1254,-5.1254,-5.0683,-4.9924,-4.9484,-4.9332,-4.918,-4.8008,-4.7629,-4.7502,-4.6769,-4.6182,-4.5772,-4.5772,-4.6661,-4.8013,-4.9642,-5.1261,-5.2859,-5.4539,-5.4967,-5.5074,-5.5591,-5.5671,-5.5988,-5.7,-5.7291,-5.7029,-5.6238,-5.778,-5.9089,-5.8631,-5.9324,-6.0284,-6.1736,-6.3366,-6.4779,-6.5765,-6.8259,-6.9729,-6.9227,-7.0419,-7.1211,-7.1211,-6.9182,-6.8695,-7.0451,-6.7813,-6.6956,-6.8641,-6.7112,-6.5891,-6.5289,-6.1914,-5.781,0.0,0.0,0.0,0.0,0.0,0.0,0.0,0.0,0.0,0.0,0.0,0.0,0.0,0.0,0.0,0.0,0.0,0.0,0.0,0.0,0.0,0.0,0.0,0.0,0.0,0.0,0.0,-6.4128,-6.1057,0.0,0.0,0.0,0.0,-6.0175,-5.894,-5.8203,-5.8275,-5.7072,-5.6868,-5.7843,-5.795,-5.8449,-5.9286,-5.8449,-5.7941,-5.7904,-5.694,-5.6464,-5.6457,-5.6403,-5.6376,-5.6376,-5.6296,-5.5591,-5.4345,-5.3172,-5.2779,-5.2921,-5.2948,-5.2978,-5.285,-5.1795,-5.1308,-5.1039,-4.988,-4.9423,-4.9342,-4.9289,-4.8431,-4.7413,-4.736,-4.8242,0.0,0.0,-5.0955,-5.287,-5.2867,-5.2779,-5.3016,-5.4314,-5.4583,-5.5382,-5.8214,-5.8817,-5.8207,-5.607,-5.568,-5.6025,-5.7126,0.0,-5.8767,-6.2364,-6.3115,-6.4221,-6.6771,-6.734,-6.7932,-6.9091,-7.048,-7.1311,-7.1311,-7.114,-7.167,-7.319,-7.1845,-7.1728,-7.319,-7.1792,-6.9605,-6.6628,-6.296,0.0,0.0,0.0,0.0,0.0,0.0,0.0,0.0,0.0,0.0,0.0,0.0,0.0,0.0,0.0,0.0,0.0,0.0,0.0,0.0,0.0,0.0,0.0,0.0,0.0,0.0,-6.5716,-6.5214,-6.4524,-6.4706,-6.3554,0.0,0.0,0.0,0.0,0.0,0.0,-5.7269,-5.6996,-5.6968,-5.7214,-5.8159,-5.8196,-5.7199,-5.8162,-5.8436,-5.7904,-5.8168,-5.7998,-5.7512,-5.6717,-5.6376,-5.6322,-5.5315,-5.472,-5.4524,-5.573,-5.5102,-5.3396,-5.4256,-5.3424,-5.1849,-5.2388,-5.1443,-4.9961,-5.058,-5.0203,-4.9235,-4.8243,-4.7681,-4.7279,-4.6294,0.0,0.0,0.0,0.0,-5.356,-5.6735,-5.6897,-5.6349,-5.6663,-5.6748,-5.6971,-5.7695,-5.789,-5.7712,-5.7047,-5.6906,-5.6916,-5.7009,-5.8758,0.0,0.0,0.0,-6.4724,-6.5012,-6.8213,-7.0153,-6.9395,-7.0549,-7.1374,-7.1374,-7.033,-6.9875,-7.0287,-6.9929,-6.9875,-7.0256,-6.7826,-6.5073,-6.2307,0.0,0.0,0.0,0.0,0.0,0.0,0.0,0.0,0.0,0.0,0.0,0.0,0.0,0.0,0.0,0.0,0.0,0.0,0.0,0.0,0.0,0.0,0.0,0.0,0.0,0.0,0.0,-6.4175,-6.5251,-6.4824,-6.5621,-6.4885,0.0,0.0,0.0,0.0,0.0,0.0,0.0,0.0,0.0,-5.9688,-5.9301,-5.885,-5.8404,-5.8831,-5.9166,-5.9364,-5.9731,-5.9759,-5.9337,-5.8762,-5.8456,-5.8459,-5.7148,-5.6256,-5.5926,-5.7595,-5.7109,-5.5453,0.0,0.0,0.0,0.0,-5.4807,-5.3568,-5.3115,-5.2461,-5.1578,-5.0266,0.0,0.0,0.0,0.0,0.0,0.0,0.0,-5.3965,-5.5445,-5.5271,-5.4851,-5.4972,-5.5018,-5.5163,-5.5716,-5.5646,-5.5388,-5.501,-5.495,-5.5182,-5.5932,-5.7875,0.0,0.0,0.0,-6.6334,-6.6674,-6.9766,-7.1544,-7.0741,-7.1446,-7.2275,-7.2897,-7.183,-7.1374,-7.2024,-7.1896,-7.1461,-7.0768,-6.8289,-6.5261,0.0,0.0,0.0,0.0,0.0,0.0,0.0,0.0,0.0,0.0,0.0,0.0,0.0,0.0,0.0,0.0,0.0,0.0,0.0,0.0,0.0,0.0,0.0,0.0,0.0,0.0,0.0,0.0,0.0,-6.3553,-6.5173,0.0,0.0,0.0,0.0,0.0,0.0,0.0,0.0,0.0,0.0,0.0,0.0,0.0,-6.0119,-6.1337,-6.0336,-6.0202,-6.1006,-6.1181,-6.1041,-6.0758,-6.0758,-6.0758,-6.067,-5.9655,0.0,-5.8249,-5.9187,0.0,0.0,0.0,0.0,0.0,0.0,0.0,0.0,0.0,0.0,0.0,0.0,0.0,0.0,0.0,0.0,0.0,0.0,0.0,0.0,0.0,0.0,-5.1573,-5.1824,-5.1858,-5.2051,-5.2814,-5.2645,-5.2345,-5.2293,-5.2316,-5.288,0.0,0.0,0.0,0.0,0.0,0.0,-6.9472,-7.1193,-7.2329,-7.2329,-7.2828,-7.3613,-7.4896,-7.4354,-7.4442,-7.5584,-7.4831,-7.365,-7.2182,-6.9636,0.0,0.0,0.0,0.0,0.0,0.0,0.0,0.0,0.0,0.0,0.0,0.0,0.0,0.0,0.0,0.0,0.0,0.0,0.0,0.0,0.0,0.0,0.0,0.0,0.0,0.0,0.0,0.0,0.0,0.0,0.0,0.0,0.0,0.0,0.0,0.0,0.0,0.0,0.0,0.0,0.0,0.0,0.0,0.0,0.0,0.0,0.0,0.0,0.0,0.0,-6.0792,-6.027,-5.8167,-5.8167,-5.8167,-5.8239,-5.884,-6.0055,-6.1533,-6.1077,0.0,0.0,0.0,0.0,0.0,0.0,0.0,0.0,0.0,0.0,0.0,0.0,0.0,0.0,0.0,0.0,0.0,0.0,0.0,0.0,0.0,0.0,-5.2647,-5.2654,-5.2673,-5.2102,-5.005,0.0,0.0,0.0,0.0,0.0,0.0,0.0,0.0,0.0,0.0,0.0,-6.8858,-7.0997,-7.2329,-7.2329,-7.3522,-7.4476,-7.4677,-7.5737,-7.5924,-7.4917,-7.2201,-7.0211,0.0,0.0,0.0,0.0,0.0,0.0,0.0,0.0,0.0,0.0,0.0,0.0,0.0,0.0,0.0,0.0,0.0,0.0,0.0,0.0,0.0,0.0,0.0,0.0,0.0,0.0,0.0,0.0,0.0,0.0,0.0,0.0,0.0,0.0,0.0,0.0,0.0,0.0,0.0,0.0,0.0,0.0,0.0,0.0,0.0,0.0,0.0,0.0,0.0,0.0,0.0,0.0,0.0,0.0,0.0,0.0,0.0,0.0,0.0,-6.0947,0.0,0.0,0.0,0.0,0.0,0.0,0.0,0.0,0.0,0.0,0.0,0.0,0.0,0.0,0.0,0.0,0.0,0.0,0.0,0.0,0.0,0.0,0.0,0.0,0.0,0.0,0.0,0.0,0.0,0.0,0.0,0.0,0.0,0.0,0.0,0.0,0.0,0.0,0.0,0.0,-6.9961,-7.2865,-7.461,-7.4286,-7.5218,-7.6046,-7.6454,-7.7463,-7.7213,-7.5055,-7.3184,0.0,0.0,0.0,0.0,0.0,0.0,0.0,0.0,0.0,0.0,0.0,0.0,0.0,0.0,0.0,0.0,0.0,0.0,0.0,0.0,0.0,0.0,0.0,0.0,0.0,0.0,0.0,0.0,0.0,0.0,0.0,0.0,0.0,0.0,0.0,0.0,0.0,0.0,0.0,0.0,0.0,0.0,0.0,0.0,0.0,0.0,0.0,0.0,0.0,0.0,0.0,0.0,0.0,0.0,0.0,0.0,0.0,0.0,0.0,-6.2231,0.0,0.0,0.0,0.0,0.0,0.0,0.0,0.0,0.0,0.0,0.0,0.0,0.0,0.0,0.0,0.0,0.0,0.0,0.0,0.0,0.0,0.0,0.0,0.0,0.0,0.0,0.0,0.0,0.0,0.0,0.0,0.0,0.0,0.0,0.0,0.0,0.0,0.0,0.0,0.0,0.0,-7.1753,-7.5259,-7.7437,-7.7254,-7.8001,-7.8764,-7.9354,-7.9906,-7.8851,-7.5825,-7.4177,0.0,0.0,0.0,0.0,0.0,0.0,0.0,0.0,0.0,0.0,0.0,0.0,0.0,0.0,0.0,0.0,0.0,0.0,0.0,0.0,0.0,0.0,0.0,0.0,0.0,0.0,0.0,0.0,0.0,0.0,0.0,0.0,0.0,0.0,0.0,0.0,0.0,0.0,0.0,0.0,0.0,0.0,0.0,0.0,0.0,0.0,0.0,0.0,0.0,0.0,0.0,0.0,0.0,0.0,0.0,0.0,0.0,0.0,0.0,0.0,0.0,0.0,0.0,0.0,0.0,0.0,0.0,0.0,0.0,0.0,0.0,0.0,0.0,0.0,0.0,0.0,0.0,0.0,0.0,0.0,0.0,0.0,0.0,0.0,0.0,0.0,0.0,0.0,0.0,0.0,0.0,0.0,0.0,0.0,0.0,0.0,0.0,0.0,0.0,0.0,0.0,-7.3697,-7.7217,-7.9771,-8.1155,-8.2622,-8.3537,-8.3608,-8.3662,-8.1779,-7.7284,0.0,0.0,0.0,0.0,0.0,0.0,0.0,0.0,0.0,0.0,0.0,0.0,0.0,0.0,0.0,0.0,0.0,0.0,0.0,0.0,0.0,0.0,0.0,0.0,0.0,0.0,0.0,0.0,0.0,0.0,0.0,0.0,0.0,0.0,0.0,0.0,0.0,0.0,0.0,0.0,0.0,0.0,0.0,0.0,0.0,0.0,0.0,0.0,0.0,0.0,0.0,0.0,0.0,0.0,0.0,0.0,0.0,0.0,0.0,0.0,0.0,0.0,0.0,0.0,0.0,0.0,0.0,0.0,0.0,0.0,0.0,0.0,0.0,0.0,0.0,0.0,0.0,0.0,0.0,0.0,0.0,0.0,0.0,0.0,0.0,0.0,0.0,0.0,0.0,0.0,0.0,0.0,0.0,0.0,0.0,0.0,0.0,0.0,0.0,0.0,0.0,0.0,-7.4776,-7.9228,-8.2179,-8.2394,-8.3823,-8.4672,-8.4398,-8.431,-8.2417,-7.802,0.0,0.0,0.0,0.0,0.0,0.0,0.0,0.0,0.0,0.0,0.0,0.0,0.0,0.0,0.0,0.0,0.0,0.0,0.0,0.0,0.0,0.0,0.0,0.0,0.0,0.0,0.0,0.0,0.0,0.0,0.0,0.0,0.0,0.0,0.0,0.0,0.0,0.0,0.0,0.0,0.0,0.0,0.0,0.0,0.0,0.0,0.0,0.0,0.0,0.0,0.0,0.0,0.0,0.0,0.0,0.0,0.0,0.0,0.0,0.0,0.0,0.0,0.0,0.0,0.0,0.0,0.0,0.0,0.0,0.0,0.0,0.0,0.0,0.0,0.0,0.0,0.0,0.0,0.0,0.0,0.0,0.0,0.0,0.0,0.0,0.0,0.0,0.0,0.0,0.0,0.0,0.0,0.0,0.0,0.0,0.0,0.0,0.0,0.0,0.0,0.0,0.0,-7.6251,-8.1292,-8.4604,-8.4686,-8.5666,-8.6226,-8.5961,-8.491,-8.2408,-7.805,0.0,0.0,0.0,0.0,0.0,0.0,0.0,0.0,0.0,0.0,0.0,0.0,0.0,0.0,0.0,0.0,0.0,0.0,0.0,0.0,0.0,0.0,0.0,0.0,0.0,0.0,0.0,0.0,0.0,0.0,0.0,0.0,0.0,0.0,0.0,0.0,0.0,0.0,0.0,0.0,0.0,0.0,0.0,0.0,0.0,0.0,0.0,0.0,0.0,0.0,0.0,0.0,0.0,0.0,0.0,0.0,0.0,0.0,0.0,0.0,0.0,0.0,0.0,0.0,0.0,0.0,0.0,0.0,0.0,0.0,0.0,0.0,0.0,0.0,0.0,0.0,0.0,0.0,0.0,0.0,0.0,0.0,0.0,0.0,0.0,0.0,0.0,0.0,0.0,0.0,0.0,0.0,0.0,0.0,0.0,0.0,0.0,0.0,0.0,0.0,0.0,0.0,-7.8511,-8.3398,-8.7157,-8.8958,-8.9174,-8.9174,-8.9174,-8.5966,-8.1984,0.0,0.0,0.0,0.0,0.0,0.0,0.0,0.0,0.0,0.0,0.0,0.0,0.0,0.0,0.0,0.0,0.0,0.0,0.0,0.0,0.0,0.0,0.0,0.0,0.0,0.0,0.0,0.0,0.0,0.0,0.0,0.0,0.0,0.0,0.0,0.0,0.0,0.0,0.0,0.0,0.0,0.0,0.0,0.0,0.0,0.0,0.0,0.0,0.0,0.0,0.0,0.0,0.0,0.0,0.0,0.0,0.0,0.0,0.0,0.0,0.0,0.0,0.0,0.0,0.0,0.0,0.0,0.0,0.0,0.0,0.0,0.0,0.0,0.0,0.0,0.0,0.0,0.0,0.0,0.0,0.0,0.0,0.0,0.0,0.0,0.0,0.0,0.0,0.0,0.0,0.0,0.0,0.0,0.0,0.0,0.0,0.0,0.0,0.0,0.0,0.0,0.0,0.0,-7.8511,-8.2431,-8.5924,0.0,-8.922,-8.9222,-8.9216,-8.7228,-8.3662,-7.8234,0.0,0.0,0.0,0.0,0.0,0.0,0.0,0.0,0.0,0.0,0.0,0.0,0.0,0.0,0.0,0.0,0.0,0.0,0.0,0.0,0.0,0.0,0.0,0.0,0.0,0.0,0.0,0.0,0.0,0.0,0.0,0.0,0.0,0.0,0.0,0.0,0.0,0.0,0.0,0.0,0.0,0.0,0.0,0.0,0.0,0.0,0.0,0.0,0.0,0.0,0.0,0.0,0.0,0.0,0.0,0.0,0.0,0.0,0.0,0.0,0.0,0.0,0.0,0.0,0.0,0.0,0.0,0.0,0.0,0.0,0.0,0.0,0.0,0.0,0.0,0.0,0.0,0.0,0.0,0.0,0.0,0.0,0.0,0.0,0.0,0.0,0.0,0.0,0.0,0.0,0.0,0.0,0.0,0.0,0.0,0.0,0.0,0.0,0.0,0.0,0.0,0.0,0.0,-8.3264,-8.6967,0.0,-8.9433,-8.9386,-8.9363,-8.7758,-8.4357,-7.8681,0.0,0.0,0.0,0.0,0.0,0.0,0.0,0.0,0.0,0.0,0.0,0.0,0.0,0.0,0.0,0.0,0.0,0.0,0.0,0.0,0.0,0.0,0.0,0.0,0.0,0.0,0.0,0.0,0.0,0.0,0.0,0.0,0.0,0.0,0.0,0.0,0.0,0.0,0.0,0.0,0.0,0.0,0.0,0.0,0.0,0.0,0.0,0.0,0.0,0.0,0.0,0.0,0.0,0.0,0.0,0.0,0.0,0.0,0.0,0.0,0.0,0.0,0.0,0.0,0.0,0.0,0.0,0.0,0.0,0.0,0.0,0.0,0.0,0.0,0.0,0.0,0.0,0.0,0.0,0.0,0.0,0.0,0.0,0.0,0.0,0.0,0.0,0.0,0.0,0.0,0.0,0.0,0.0,0.0,0.0,0.0,0.0,0.0,0.0,0.0,0.0,0.0,0.0,-8.5139,-8.9326,-8.9903,-8.9755,-8.9585,-8.9567,-8.775,-8.4214,-7.8591,-7.3626,0.0,0.0,0.0,0.0,0.0,0.0,0.0,0.0,0.0,0.0,0.0,0.0,0.0,0.0,0.0,0.0,0.0,0.0,0.0,0.0,0.0,0.0,0.0,0.0,0.0,0.0,0.0,0.0,0.0,0.0,0.0,0.0,0.0,0.0,0.0,0.0,0.0,0.0,0.0,0.0,0.0,0.0,0.0,0.0,0.0,0.0,0.0,0.0,0.0,0.0,0.0,0.0,0.0,0.0,0.0,0.0,0.0,0.0,0.0,0.0,0.0,0.0,0.0,0.0,0.0,0.0,0.0,0.0,0.0,0.0,0.0,0.0,0.0,0.0,0.0,0.0,0.0,0.0,0.0,0.0,0.0,0.0,0.0,0.0,0.0,0.0,0.0,0.0,0.0,0.0,0.0,0.0,0.0,0.0,0.0,0.0,0.0,0.0,0.0,0.0,0.0,0.0,-8.2116,-8.5444,-8.9297,-8.9644,-8.9508,-8.9173,-8.8272,-8.4756,-7.7887,-7.4085,0.0,0.0,0.0,0.0,0.0,0.0,0.0,0.0,0.0,0.0,0.0,0.0,0.0,0.0,0.0,0.0,0.0,0.0,0.0,0.0,0.0,0.0,0.0,0.0,0.0,0.0,0.0,0.0,0.0,0.0,0.0,0.0,0.0,0.0,0.0,0.0,0.0,0.0,0.0,0.0,0.0,0.0,0.0,0.0,0.0,0.0,0.0,0.0,0.0,0.0,0.0,0.0,0.0,0.0,0.0,0.0,0.0,0.0,0.0,0.0,0.0,0.0,0.0,0.0,0.0,0.0,0.0,0.0,0.0,0.0,0.0,0.0,0.0,0.0,0.0,0.0,0.0,0.0,0.0,0.0,0.0,0.0,0.0,0.0,0.0,0.0,0.0,0.0,0.0,0.0,0.0,0.0,0.0,0.0,0.0,0.0,0.0,0.0,0.0,0.0,0.0,0.0,-7.9104,-8.319,-8.9006,-8.9498,-8.9299,-8.9033,-8.7664,-8.3906,-7.7053,-7.2698,0.0,0.0,0.0,0.0,0.0,0.0,0.0,0.0,0.0,0.0,0.0,0.0,0.0,0.0,0.0,0.0,0.0,0.0,0.0,0.0,0.0,0.0,0.0,0.0,0.0,0.0,0.0,0.0,0.0,0.0,0.0,0.0,0.0,0.0,0.0,0.0,0.0,0.0,0.0,0.0,0.0,0.0,0.0,0.0,0.0,0.0,0.0,0.0,0.0,0.0,0.0,0.0,0.0,0.0,0.0,0.0,0.0,0.0,0.0,0.0,0.0,0.0,0.0,0.0,0.0,0.0,0.0,0.0,0.0,0.0,0.0,0.0,0.0,0.0,0.0,0.0,0.0,0.0,0.0,0.0,0.0,0.0,0.0,0.0,0.0,0.0,0.0,0.0,0.0,0.0,0.0,0.0,0.0,0.0,0.0,0.0,0.0,0.0,0.0,0.0,0.0,0.0,0.0,-8.1806,-8.7825,-8.8915,-8.9148,-8.8982,-8.6385,-8.2339,-7.6542,0.0,0.0,0.0,0.0,0.0,0.0,0.0,0.0,0.0,0.0,0.0,0.0,0.0,0.0,0.0,0.0,0.0,0.0,0.0,0.0,0.0,0.0,0.0,0.0,0.0,0.0,0.0,0.0,0.0,0.0,0.0,0.0,0.0,0.0,0.0,0.0,0.0,0.0,0.0,0.0,0.0,0.0,0.0,0.0,0.0,0.0,0.0,0.0,0.0,0.0,0.0,0.0,0.0,0.0,0.0,0.0,0.0,0.0,0.0,0.0,0.0,0.0,0.0,0.0,0.0,0.0,0.0,0.0,0.0,0.0,0.0,0.0,0.0,0.0,0.0,0.0,0.0,0.0,0.0,0.0,0.0,0.0,0.0,0.0,0.0,0.0,0.0,0.0,0.0,0.0,0.0,0.0,0.0,0.0,0.0,0.0,0.0,0.0,0.0,0.0,0.0,0.0,0.0,0.0,-8.0483,-8.3073,-8.6854,-8.9066,-8.8718,-8.4827,-8.085,-7.7233,0.0,0.0,0.0,0.0,0.0,0.0,0.0,0.0,0.0,0.0,0.0,0.0,0.0,0.0]}],[{"header":{"parameterUnit":"kt","parameterCategory":2,"dx":1,"dy":1,"la1":29.285339999999998,"la2":30.599998999999997,"lo1":-89.70041500000002,"lo2":-87.6738589999976,"nx":112,"ny":82,"refTime":"2022-10-15T12:00:00:Z","depth":0,"parameterNumber":2,"parameterNumberName":"V-component_of_WINDS"},"data":[10.2014,10.376,0.0,9.8249,9.7842,0.0,9.0381,0.0,9.1309,0.0,0.0,0.0,0.0,9.1207,8.9942,9.0552,8.9782,8.8118,0.0,8.4511,0.0,0.0,0.0,0.0,0.0,0.0,0.0,0.0,0.0,0.0,0.0,0.0,10.4975,10.4975,10.824,11.0024,11.0024,11.0024,11.0024,11.0024,11.0024,11.0024,11.0024,11.0024,11.0024,11.0024,11.0024,11.0024,11.0024,11.0024,11.0024,11.0024,11.0024,11.0024,11.0024,11.0024,11.0024,11.0024,11.0024,11.0024,11.0024,11.0024,11.0024,11.0138,11.0746,11.1657,11.2682,11.3289,11.4239,11.5074,11.5074,11.5491,11.5909,11.5909,11.6365,11.682,11.682,11.682,11.7086,11.8111,11.8301,11.8643,11.9744,11.9933,11.9554,11.8491,11.925,11.9933,11.9933,11.9933,11.9933,11.9933,11.9933,11.9933,11.9933,11.9933,11.9933,11.9933,11.9933,11.9933,11.9933,11.9933,11.9933,11.9933,11.9933,11.9933,11.9933,11.9933,11.9933,11.9933,11.9933,11.9933,0.0,0.0,10.0267,9.4643,0.0,0.0,0.0,0.0,0.0,0.0,0.0,0.0,0.0,8.9009,8.8678,8.8076,8.8139,8.7511,0.0,0.0,0.0,0.0,0.0,0.0,0.0,0.0,0.0,0.0,0.0,0.0,0.0,10.3191,10.4368,10.4937,10.7708,10.9455,11.0024,11.0024,11.0024,11.0024,11.0024,11.0024,11.0024,11.0024,11.0024,11.0024,11.0024,11.0024,11.0024,11.0024,11.0024,11.0024,11.0024,11.0024,11.0024,11.0024,11.0024,11.0024,11.0024,11.0024,11.0024,11.0024,11.0024,11.0024,11.0024,11.0784,11.1695,11.1695,11.2492,11.3365,11.3365,11.3783,11.4239,11.4239,11.4656,11.5074,11.5074,11.5074,11.5378,11.6403,11.6592,11.6972,11.8111,11.8301,11.7921,11.6782,11.758,11.8301,11.8301,11.8301,11.8491,11.9022,11.9098,11.9326,11.9895,11.9933,11.9933,11.9933,11.9933,11.9933,11.9933,11.9933,11.9933,11.9933,11.9933,11.9933,11.9933,11.9933,11.9933,11.9933,11.9933,11.9933,9.8711,9.6243,0.0,9.0617,0.0,0.0,0.0,0.0,9.0268,0.0,0.0,0.0,8.9409,8.8225,8.6898,8.5239,8.5103,0.0,0.0,0.0,0.0,0.0,0.0,0.0,0.0,0.0,0.0,0.0,0.0,0.0,9.9736,10.152,10.3229,10.4899,10.6607,10.8316,10.9986,11.0024,11.0024,11.0024,11.0024,11.0024,11.0024,11.0024,11.0024,11.0024,11.0024,11.0024,11.0024,11.0024,11.0024,11.0024,11.0024,11.0024,11.0024,11.0024,11.0024,11.0024,11.0024,11.0024,11.0024,11.0024,11.0024,11.0024,11.0024,11.0024,11.0024,11.0024,11.0024,11.0024,11.0024,11.1239,11.2454,11.2454,11.3707,11.4922,11.4922,11.4922,11.4922,11.496,11.4998,11.5036,11.5074,11.5036,11.4998,11.4998,11.5036,11.5074,11.5074,11.5074,11.5643,11.7162,11.7314,11.7997,11.963,11.9782,11.9782,11.9857,11.9895,11.9933,11.9933,11.9933,11.9933,11.9933,11.9933,11.9933,11.9933,11.9933,11.9933,11.9933,11.982,11.9782,9.461,9.4458,9.4496,9.2291,9.158,0.0,0.0,0.0,0.0,0.0,0.0,0.0,0.0,0.0,8.7837,8.9787,0.0,9.0434,0.0,0.0,0.0,0.0,0.0,0.0,0.0,0.0,0.0,0.0,0.0,9.7761,9.9812,10.152,10.3229,10.4899,10.6607,10.8316,10.9986,11.0024,11.0024,11.0024,11.0024,11.0024,11.0024,11.0024,11.0024,11.0024,11.0024,11.0024,11.0024,11.0024,11.0024,11.0024,11.0024,11.0024,11.0024,11.0024,11.0024,11.0024,11.0024,11.0024,11.0024,11.0024,11.0024,11.0024,11.0024,11.0024,11.0024,11.0024,11.0024,11.0024,11.0024,11.0366,11.0708,11.0708,11.1087,11.1391,11.1391,11.1391,11.1771,11.2986,11.3251,11.3631,11.4846,11.4049,11.3251,11.3251,11.4277,11.5074,11.5074,11.5074,11.5226,11.5681,11.5719,11.5909,11.6365,11.6403,11.6896,11.8035,11.925,11.9933,11.9933,11.9933,11.9933,11.9933,11.9933,11.9933,11.9933,11.9933,11.9933,11.9895,11.7504,11.6403,9.3547,9.3244,9.3737,9.2788,9.187,9.0967,8.9867,0.0,8.8527,0.0,0.0,0.0,0.0,0.0,0.0,0.0,9.1443,0.0,0.0,0.0,0.0,0.0,0.0,0.0,0.0,0.0,0.0,0.0,9.8445,9.8255,9.985,10.0837,10.2165,10.3874,10.4861,10.619,10.7898,10.862,10.8961,10.8961,10.9683,11.0024,11.0024,11.0024,11.0024,11.0024,11.0024,11.0024,11.0024,11.0024,11.0024,11.0024,11.0024,11.0024,11.0024,11.0024,11.0024,11.0024,11.0024,11.0024,11.0024,11.0024,11.0024,11.0024,11.0024,11.0024,11.0024,11.0024,11.0024,11.0024,11.0024,11.0024,11.0024,11.0024,11.0024,11.0024,11.0024,11.0024,11.0328,11.1315,11.1467,11.1809,11.2796,11.215,11.1467,11.1467,11.2302,11.2948,11.2948,11.2948,11.3213,11.3935,11.4011,11.4314,11.5036,11.5074,11.5453,11.6365,11.7352,11.7883,11.7883,11.7883,11.7883,11.7883,11.7883,11.7883,11.7883,11.7883,11.7883,11.7845,11.5947,11.5074,9.4193,9.2408,9.2219,9.2219,9.0814,8.9483,0.0,0.0,8.9581,9.0283,0.0,0.0,0.0,0.0,0.0,0.0,0.0,0.0,0.0,0.0,0.0,0.0,0.0,0.0,0.0,9.8635,9.8407,9.9812,9.8635,9.8445,9.985,9.9926,10.0685,10.2393,10.2431,10.3266,10.4937,10.6456,10.7291,10.7519,10.8999,10.9835,11.0024,11.0024,11.0024,11.0024,11.0024,11.0024,11.0024,11.0024,11.0024,11.0024,11.0024,11.0024,11.0024,11.0024,11.0024,11.0024,11.0024,11.0024,11.0024,11.0024,11.0024,11.0024,11.0024,11.0024,11.0024,11.0024,11.0024,11.0024,11.0024,11.0024,11.0024,11.0024,11.0024,11.0024,11.0024,11.0024,11.0024,11.0024,11.0024,11.0024,11.0024,11.0024,11.0024,11.0024,11.0024,11.0024,11.0024,11.0024,11.0594,11.2112,11.2264,11.2872,11.439,11.4504,11.458,11.477,11.477,11.4884,11.5074,11.5074,11.5074,11.5074,11.5074,11.5074,11.5074,11.5074,11.4884,11.4504,11.4504,11.4504,9.3244,9.1535,9.0472,9.0472,8.8194,8.66,0.0,0.0,0.0,0.0,0.0,0.0,0.0,0.0,0.0,0.0,0.0,0.0,0.0,0.0,0.0,0.0,0.0,0.0,0.0,9.966,9.9584,9.9888,9.966,9.9584,9.9888,9.9926,10.0685,10.2393,10.2431,10.3266,10.4937,10.5317,10.6152,10.7481,10.7822,10.8696,11.0024,11.0024,11.0024,11.0024,11.0024,11.0024,11.0024,11.0024,11.0024,11.0024,11.0024,11.0024,11.0024,11.0024,11.0024,11.0024,11.0024,11.0024,11.0024,11.0024,11.0024,11.0024,11.0024,11.0024,11.0024,11.0024,11.0024,11.0024,11.0024,11.0024,11.0024,11.0024,11.0024,11.0024,11.0024,11.0024,11.0024,11.0024,11.0024,11.0024,11.0024,11.0024,11.0024,11.0024,11.0024,11.0024,11.0024,11.0024,11.0138,11.048,11.0518,11.0632,11.0974,11.1011,11.1581,11.2948,11.3024,11.3669,11.5036,11.5074,11.5074,11.5074,11.5074,11.5074,11.5074,11.5074,11.3669,11.1011,11.1011,11.1011,9.0889,8.9371,8.8536,8.7701,8.6182,0.0,0.0,8.8726,9.0396,9.6281,9.685,9.7306,10.0571,10.1216,10.1254,10.1178,10.3304,10.4975,0.0,0.0,0.0,0.0,0.0,0.0,9.9926,9.9926,9.9926,9.9926,9.9926,9.9926,9.9926,9.9926,10.0305,10.114,10.1178,10.1596,10.2431,10.3266,10.414,10.4975,10.581,10.6683,10.7481,10.7481,10.7481,10.7519,10.8392,10.8772,10.8809,10.9683,11.0024,11.0024,11.0024,11.0024,11.0024,11.0024,11.0024,11.0024,11.0024,11.0024,11.0024,11.0024,11.0024,11.0024,11.0024,11.0024,11.0024,11.0024,11.0024,11.0024,11.0024,11.0024,11.0024,11.0024,11.0024,11.0024,11.0024,11.0024,11.0024,11.0024,11.0024,11.0024,11.0024,11.0024,11.0024,11.0024,11.0024,11.0024,11.0024,11.0024,11.0024,11.0024,11.0024,11.0024,11.0024,11.0024,11.0404,11.1239,11.1277,11.1657,11.2492,11.253,11.253,11.253,11.253,11.253,11.253,11.253,11.1657,11.0024,11.0024,11.0024,8.7995,8.6978,8.6638,8.5309,8.4701,0.0,8.7852,8.9523,9.1725,0.0,9.8597,10.0495,10.209,10.4861,10.5924,10.2887,10.581,10.8087,10.7013,0.0,0.0,0.0,0.0,0.0,9.9926,9.9926,9.9926,9.9926,9.9926,9.9926,9.9926,9.9926,9.9926,9.9926,9.9926,9.9926,9.9926,10.1292,10.2128,10.2469,10.3836,10.4671,10.4975,10.4975,10.4975,10.5051,10.6418,10.7177,10.7595,10.8961,10.9531,10.9569,10.9873,11.0024,11.0024,11.0024,11.0024,11.0024,11.0024,11.0024,11.0024,11.0024,11.0024,11.0024,11.0024,11.0024,11.0024,11.0024,11.0024,11.0024,11.0024,11.0024,11.0024,11.0024,11.0024,11.0024,11.0024,11.0024,11.0024,11.0024,11.0024,11.0024,11.0024,11.0024,11.0024,11.0024,11.0024,11.0024,11.0024,11.0024,11.0024,11.0024,11.0024,11.0024,11.0024,11.0024,11.0024,11.0024,11.0024,11.0024,11.0024,11.0024,11.0024,11.0024,11.0024,11.0024,11.0024,11.0024,11.0024,11.0024,11.0024,11.0024,8.5212,8.5142,8.5195,8.4967,8.3828,0.0,9.0548,9.2105,9.4458,0.0,10.6418,10.9151,11.0822,11.2682,11.3327,11.1467,11.1619,11.0235,10.5249,10.4805,0.0,0.0,0.0,0.0,9.9926,9.9926,9.9926,9.9926,9.9926,9.9926,9.9926,9.9926,9.9926,9.9926,9.9926,9.9926,9.9926,10.0115,10.0951,10.2431,10.2621,10.3494,10.4975,10.4975,10.4975,10.4975,10.5165,10.6076,10.7519,10.7671,10.7784,10.7936,10.9455,11.0024,11.0024,11.0024,11.0024,11.0024,11.0024,11.0024,11.0024,11.0024,11.0024,11.0024,11.0024,11.0024,11.0024,11.0024,11.0024,11.0024,11.0024,11.0024,11.0024,11.0024,11.0024,11.0024,11.0024,11.0024,11.0024,11.0024,11.0024,11.0024,11.0024,11.0024,11.0024,11.0024,11.0024,11.0024,11.0024,11.0024,11.0024,11.0024,11.0024,11.0024,11.0024,11.0024,11.0024,11.0024,11.0024,11.0024,11.0024,11.0024,11.0024,11.0024,11.0024,11.0024,11.0024,11.0024,11.0024,11.0024,11.0024,11.0024,8.2977,8.3353,8.3259,8.2347,0.0,0.0,9.0168,9.3914,9.8437,0.0,10.8706,11.1453,11.3159,11.4834,11.5106,11.242,11.1219,10.9468,10.6128,10.4144,10.2468,0.0,0.0,0.0,0.0,9.9807,9.9926,9.9926,9.9926,9.9926,9.9926,9.9926,9.9926,9.9926,9.9926,9.9926,9.9926,9.9926,10.0267,10.0951,10.0951,10.133,10.2014,10.2014,10.2014,10.209,10.3077,10.3912,10.4557,10.4557,10.5127,10.6076,10.6797,10.7671,10.8544,10.8544,10.9151,11.0024,11.0024,11.0024,11.0024,11.0024,11.0024,11.0024,11.0024,11.0024,11.0024,11.0024,11.0024,11.0024,11.0024,11.0024,11.0024,11.0024,11.0024,11.0024,11.0024,11.0024,11.0024,11.0024,11.0024,11.0024,11.0024,11.0024,11.0024,11.0024,11.0024,11.0024,11.0024,11.0024,11.0024,11.0024,11.0024,11.0024,11.0024,11.0024,11.0024,11.0024,11.0024,11.0024,11.0024,11.0024,11.0024,11.0024,11.0024,11.0024,11.0024,11.0024,11.0024,11.0024,11.0024,11.0024,8.1673,0.0,0.0,0.0,0.0,0.0,9.3127,9.7497,10.2257,10.7311,11.0821,11.323,11.396,11.5483,11.5324,11.1295,10.9774,10.816,10.5458,10.3131,10.1464,10.0966,10.0037,0.0,0.0,0.0,0.0,0.0,9.9745,9.9745,9.9745,9.976,9.9846,9.9926,9.9926,9.9926,9.9926,9.9926,9.9926,9.9926,9.9926,9.9926,9.9926,9.9926,9.9926,10.0001,10.1216,10.1748,10.1786,10.2241,10.3153,10.4292,10.4785,10.5734,10.6797,10.6797,10.7557,10.862,10.862,10.8923,10.9303,10.9303,10.9645,11.0024,11.0024,11.0024,11.0024,11.0024,11.0024,11.0024,11.0024,11.0024,11.0024,11.0024,11.0024,11.0024,11.0024,11.0024,11.0024,11.0024,11.0024,11.0024,11.0024,11.0024,11.0024,11.0024,11.0024,11.0024,11.0024,11.0024,11.0024,11.0024,11.0024,11.0024,11.0024,11.0024,11.0024,11.0024,11.0024,11.0024,11.0024,11.0024,11.0024,11.0024,11.0024,11.0024,11.0024,11.0024,11.0024,11.0024,11.0024,11.0024,0.0,0.0,0.0,9.0613,9.1501,9.3759,10.1916,10.3919,10.5458,11.0421,11.41,11.5975,11.4409,11.5479,11.4847,10.9268,10.8553,10.6886,10.1775,10.1404,10.1015,9.9253,9.9201,9.9328,9.9328,9.9328,9.9337,9.9337,9.9337,9.9337,9.9337,9.9455,9.9658,9.9925,9.9926,9.9926,9.9926,9.9926,9.9926,9.9926,9.9926,9.9926,9.9926,9.9926,9.9926,9.9926,9.9963,10.0001,10.0115,10.1748,10.2469,10.2659,10.433,10.5013,10.5051,10.5051,10.5051,10.5127,10.5127,10.619,10.7557,10.7557,10.8696,11.0024,11.0024,11.0024,11.0024,11.0024,11.0024,11.0024,11.0024,11.0024,11.0024,11.0024,11.0024,11.0024,11.0024,11.0024,11.0024,11.0024,11.0024,11.0024,11.0024,11.0024,11.0024,11.0024,11.0024,11.0024,11.0024,11.0024,11.0024,11.0024,11.0024,11.0024,11.0024,11.0024,11.0024,11.0024,11.0024,11.0024,11.0024,11.0024,11.0024,11.0024,11.0024,11.0024,11.0024,11.0024,11.0024,11.0024,11.0024,11.0024,8.5658,8.8246,9.0594,9.2757,9.5827,9.906,10.1867,10.4917,10.7636,10.9323,11.1309,11.2588,11.2004,11.0594,10.8535,10.5534,10.4153,10.2899,10.1156,10.0158,9.937,9.8753,9.8915,9.9057,9.9057,9.9245,9.9309,9.9309,9.9309,0.0,9.9309,9.9353,9.9449,9.9654,9.9658,9.9754,9.9926,9.9757,9.9757,9.9926,9.9754,9.9757,9.9926,9.9926,9.9926,9.9926,9.9926,9.9926,9.9963,10.0533,10.0761,10.0837,10.1406,10.2317,10.3304,10.3304,10.3988,10.4975,10.4975,10.5355,10.581,10.581,10.619,10.6645,10.6645,10.7443,10.8354,10.8354,10.9151,11.0024,11.0024,11.0024,11.0024,11.0024,11.0024,11.0024,11.0024,11.0024,11.0024,11.0024,11.0024,11.0024,11.0024,11.0024,11.0024,11.0024,11.0024,11.0024,11.0024,11.0024,11.0024,11.0024,11.0024,11.0024,11.0024,11.0024,11.0024,11.0024,11.0024,11.0024,11.0024,11.0024,11.0024,11.0024,11.0024,11.0024,11.0024,11.0024,11.0024,11.0024,11.0024,11.0024,8.8586,9.1499,9.3942,9.6727,10.0332,10.35,10.4654,10.7257,10.9417,10.9434,11.0167,11.0468,10.9309,10.6371,10.3791,10.2707,10.1566,10.0669,10.0127,9.9193,9.8576,9.8576,9.8733,9.8822,9.8822,9.8972,9.9069,9.9069,9.9069,9.9069,9.9069,9.9143,9.9211,9.9302,9.9416,9.9534,9.9686,9.9534,9.9534,9.9686,9.9583,9.9606,9.9762,9.9887,9.9926,9.9925,9.975,9.9686,9.9686,9.9686,9.9686,9.9686,9.9686,10.0369,10.1324,10.1389,10.2078,10.303,10.3114,10.3532,10.4064,10.4064,10.4481,10.4975,10.4975,10.5734,10.657,10.657,10.7367,10.8354,10.8961,10.9113,10.9265,10.9873,11.0024,10.9835,10.9227,10.9113,10.9303,10.991,11.0024,11.0024,11.0024,11.0024,11.0024,11.0024,11.0024,11.0024,11.0024,11.0024,11.0024,11.0024,11.0024,11.0024,11.0024,11.0024,11.0024,11.0024,11.0024,11.0024,11.0024,11.0024,11.0024,11.0024,11.0024,11.0024,11.0024,11.0024,11.0024,11.0024,11.0024,11.0024,9.0705,9.3996,9.7585,10.2445,10.4876,10.6857,10.9982,11.0655,11.0617,11.0468,11.043,10.9458,10.6259,10.3006,10.0781,10.0781,10.0781,10.0239,9.8763,9.8576,9.8576,9.8576,9.8576,9.8576,9.8576,9.8576,9.8576,9.8576,9.8576,9.8576,9.8576,9.879,9.8943,9.8958,9.9189,9.9299,9.9309,9.9309,9.9309,9.9318,9.9443,9.9512,9.9522,9.9758,9.9887,9.9847,9.9498,9.9309,9.9309,9.9309,9.9309,9.9309,9.9309,9.9309,9.9346,9.9468,9.9517,9.9536,9.9802,10.095,10.2278,10.2279,10.338,10.4709,10.4709,10.4785,10.4823,10.4823,10.4899,10.5355,10.6949,10.7367,10.7784,10.9379,10.9759,10.9303,10.7708,10.7367,10.786,10.9569,10.9835,10.9797,10.9873,10.9797,10.9797,10.9873,10.9873,10.991,10.9986,11.0024,11.0024,11.0024,11.0024,11.0024,11.0024,11.0024,11.0024,11.0024,11.0024,11.0024,11.0024,11.0024,11.0024,11.0024,11.0024,11.0024,11.0024,11.0024,11.0024,11.0024,11.0024,11.0024,9.6856,9.9921,10.2408,10.611,10.7343,10.7904,10.8727,10.8914,10.8241,10.5773,10.5287,10.4651,10.2538,10.0501,9.9118,9.9118,9.9118,9.9006,9.8613,9.8576,9.8576,9.8576,9.8576,9.8576,9.8576,9.8576,9.8576,9.8576,9.8576,9.8576,9.8576,9.8612,9.8763,9.8943,9.9017,9.9143,9.9309,9.9309,9.9309,9.9309,9.9185,9.919,9.9369,9.9462,9.9484,9.9477,9.9364,9.9309,9.9309,9.9309,9.9309,9.9309,9.9309,9.9309,9.9318,9.9382,9.9407,9.9378,9.9432,9.9749,10.0118,10.0228,10.0559,10.0951,10.1138,10.209,10.3077,10.3077,10.3988,10.5051,10.5506,10.562,10.5734,10.6152,10.6266,10.6152,10.5696,10.562,10.6114,10.7822,10.7139,10.6645,10.7936,10.7101,10.6683,10.7936,10.8126,10.862,10.9873,11.0024,11.0024,11.0024,11.0024,11.0024,11.0024,11.0024,11.0024,11.0024,11.0024,11.0024,11.0024,11.0024,11.0024,11.0024,11.0024,11.0024,11.0024,11.0024,11.0024,11.0024,11.0024,11.0024,9.7585,10.1062,10.4203,10.7456,10.8278,10.8278,10.8278,10.8278,10.753,10.5063,10.3941,10.2894,10.1192,9.9604,9.8576,9.8576,9.8576,9.8576,9.8576,9.8576,9.8576,9.8576,9.8576,9.8576,9.8576,9.8576,9.8576,9.8576,9.8576,9.8576,9.8576,9.8576,9.8612,9.8758,9.8774,9.8847,9.899,9.899,9.899,9.899,9.8986,9.903,9.9178,9.9259,9.9223,9.899,9.899,9.899,9.899,9.899,9.899,9.899,9.899,9.899,9.9003,9.9119,9.9166,9.9189,9.9269,9.9309,9.9337,9.9387,9.9467,9.9499,9.9699,10.0402,10.1165,10.1292,10.2014,10.2925,10.3646,10.3874,10.4064,10.4785,10.4975,10.4557,10.3077,10.3342,10.414,10.5089,10.5089,10.5279,10.6228,10.5582,10.5317,10.6228,10.638,10.6721,10.7671,10.7822,10.7822,10.7822,10.7822,10.7822,10.7822,10.7822,10.7822,10.7822,10.7822,10.7822,10.7822,10.8506,10.8923,10.8923,10.8164,10.7822,10.7822,10.7822,10.7822,10.7822,10.7822,10.7822,9.6164,10.0165,10.4502,10.7493,10.8278,10.8278,10.8278,10.8278,10.7829,10.6259,10.4614,10.2969,10.1491,9.9753,9.8576,9.8576,9.8576,9.8576,9.8576,9.8576,9.8576,9.8576,9.8576,9.8576,9.8576,9.8576,9.8576,9.8576,9.8576,9.8576,9.8576,9.8576,9.8576,9.8576,9.8576,9.8576,9.8576,9.8576,9.8576,9.8538,9.879,9.8885,9.89,9.9119,9.8976,9.8576,9.8576,9.8576,9.8576,9.8576,9.8576,9.8576,9.8576,9.8576,9.8576,9.8785,9.8885,9.8929,9.9155,9.9245,9.9255,9.9287,9.9259,9.9309,9.9455,9.9502,9.9532,9.9802,9.9848,10.019,10.171,10.2128,10.2469,10.395,10.4292,10.3494,10.0571,10.1064,10.2128,10.2128,10.3456,10.4557,10.433,10.4292,10.4368,10.4595,10.4633,10.4709,10.4937,10.4975,10.4975,10.4975,10.4975,10.4975,10.4975,10.4975,10.4975,10.4975,10.4975,10.4975,10.4975,10.638,10.7063,10.6835,10.562,10.4975,10.4975,10.4975,10.4975,10.4975,10.4975,10.4975,9.9211,10.2707,10.5923,10.7792,10.8278,10.8278,10.8278,10.8278,10.7829,10.6259,10.4614,10.3305,10.3044,10.0539,9.8576,9.8576,9.8576,9.8576,9.8576,9.8576,9.8576,9.8576,9.8576,9.8576,9.8576,9.8576,9.8576,9.8576,9.8576,9.8576,9.8576,9.8576,9.8576,9.8576,9.8576,9.8576,9.8576,9.8576,9.8576,9.8576,9.8575,9.8612,9.863,9.8664,9.861,9.8576,9.8576,9.8576,9.8576,9.8576,9.8576,9.8576,9.8576,9.8576,9.8538,9.8631,9.8612,9.863,9.8681,9.8698,9.8729,9.8958,9.9017,9.9044,9.9299,9.9382,9.9386,9.9527,9.9595,9.9692,10.0227,10.0343,10.0419,10.0723,10.0799,10.0647,10.0039,10.0153,10.0343,10.0343,10.171,10.2431,10.1027,10.0799,10.1254,10.2659,10.2887,10.338,10.4785,10.4975,10.4975,10.4975,10.4975,10.4975,10.4975,10.4975,10.4975,10.4975,10.4975,10.4975,10.4975,10.5241,10.4747,10.3342,10.4405,10.4975,10.4975,10.4975,10.4975,10.4975,10.4975,10.4975,9.7633,10.116,10.4801,10.5549,10.7007,10.8278,10.8278,10.8278,10.8054,10.7306,10.5175,10.3418,10.3418,10.0763,9.8576,9.8576,9.8576,9.8576,9.8576,9.8576,9.8576,9.8576,9.8576,9.8576,9.8576,9.8576,9.8576,9.8576,9.8576,9.8576,9.8576,9.8576,9.8576,9.8576,9.8576,9.8576,9.8576,9.8576,9.8576,9.8576,9.8576,9.8576,9.8576,9.8576,9.8576,9.8576,9.8576,9.8576,9.8576,9.8576,9.8576,9.8576,9.8576,9.8576,9.8576,9.8576,9.8576,9.8576,9.8576,9.8576,9.8576,9.8678,9.8763,9.879,9.9069,9.9131,9.9163,9.9386,9.9439,9.946,9.9578,9.9679,9.9712,9.9712,9.9679,9.9612,9.9702,9.9712,9.9758,9.9887,10.0571,10.0875,10.0039,9.9926,10.0191,10.0989,10.1102,10.1406,10.2241,10.2317,10.2317,10.2317,10.2317,10.2317,10.2317,10.2317,10.2317,10.2317,10.2317,10.2317,10.2317,10.2317,10.1938,10.114,10.19,10.2317,10.2317,10.2317,10.2317,10.2317,10.2317,10.2317,9.5704,9.9281,10.3313,10.3826,10.5885,10.7867,10.8203,10.8278,10.8278,10.8278,10.596,10.3829,10.3492,10.1025,9.8931,9.8613,9.8576,9.8576,9.8576,9.8576,9.8576,9.8576,9.8576,9.8576,9.8576,9.8576,9.8576,9.8576,9.8576,9.8576,9.8576,9.8576,9.8576,9.8576,9.8576,9.8576,9.8576,9.8576,9.8576,9.8576,9.8576,9.8576,9.8576,9.8576,9.8576,9.8576,9.8576,9.8576,9.8576,9.8576,9.8576,9.8576,9.8576,9.8576,9.8576,9.8576,9.8576,9.8576,9.8576,9.8576,9.8576,9.8576,9.8576,9.8613,9.8806,9.8878,9.8915,9.9189,9.9266,9.9239,9.9299,9.9417,9.9474,9.9405,9.9378,9.9364,9.9455,9.9485,9.9555,9.9747,9.9803,9.9846,9.9846,9.9887,9.9926,9.9926,9.9926,9.9926,9.9926,9.9926,9.9926,9.9926,9.9926,9.9926,9.9926,9.9926,9.9926,9.9926,9.9926,9.9926,9.9926,9.9926,9.9926,9.9926,9.9926,9.9926,9.9926,9.9926,9.9926,9.9926,9.9926,9.9926,9.6634,9.9714,10.2887,10.5147,10.5923,10.6521,10.7942,10.8278,10.8278,10.8278,10.6895,10.525,10.3717,10.1902,10.0202,9.88,9.8576,9.8576,9.8576,9.8576,9.8576,9.8576,9.8576,9.8576,9.8576,9.8576,9.8576,9.8576,9.8576,9.8576,9.8576,9.8576,9.8576,9.8576,9.8576,9.8576,9.8576,9.8576,9.8576,9.8576,9.8576,9.8576,9.8576,9.8576,9.8576,9.8576,9.8576,9.8576,9.8576,9.8576,9.8576,9.8576,9.8576,9.8576,9.8576,9.8576,9.8576,9.8576,9.8576,9.8576,9.8576,9.8576,9.8576,9.8538,9.8594,9.8594,9.8666,9.89,9.8976,9.9043,9.9287,9.9328,9.9289,9.9057,9.9189,9.9318,9.9346,9.9346,9.9355,9.9373,9.9493,9.9545,9.9545,9.9758,9.9926,9.9926,9.9926,9.9926,9.9926,9.9926,9.9926,9.9926,9.9926,9.9926,9.9926,9.9926,9.9926,9.9926,9.9926,9.9926,9.9926,9.9926,9.9926,9.9926,9.9926,9.9926,9.9926,9.9926,9.9926,9.9926,9.9926,9.9926,9.0483,9.3629,9.7585,9.9021,10.2317,10.5513,10.6608,10.6512,10.6281,10.6758,10.4764,10.3006,10.3343,10.1249,9.9566,9.9903,9.9155,9.8576,9.8576,9.8576,9.8576,9.8576,9.8576,9.8576,9.8576,9.8576,9.8576,9.8576,9.8576,9.8576,9.8576,9.8576,9.8576,9.8576,9.8576,9.8576,9.8576,9.8576,9.8576,9.8576,9.8576,9.8576,9.8576,9.8576,9.8576,9.8576,9.8576,9.8576,9.8576,9.8576,9.8576,9.8576,9.8576,9.8576,9.8576,9.8576,9.8576,9.8576,9.8576,9.8576,9.8576,9.8576,9.8576,9.8576,9.8576,9.8576,9.8576,9.8681,9.8695,9.8746,9.8832,9.8976,9.9043,9.8774,9.879,9.89,9.9044,9.9095,9.9143,9.9279,9.9353,9.9417,9.9417,9.948,9.9561,9.9561,9.9561,9.9588,9.9658,9.9806,9.9926,9.9926,9.9926,9.9926,9.9926,9.9926,9.9926,9.9926,9.9926,9.9926,9.9926,9.9926,9.9926,9.9926,9.9926,9.9926,9.9926,9.9926,9.9926,9.9926,9.9926,9.9926,8.6804,8.9841,9.3871,9.5134,9.9263,10.3361,10.4843,10.4786,10.4708,10.6005,10.4566,10.3156,10.338,10.1548,10.0202,10.0781,9.9566,9.8576,9.8576,9.8576,9.8576,9.8576,9.8576,9.8576,9.8576,9.8576,9.8576,9.8576,9.8576,9.8576,9.8576,9.8576,9.8576,9.8576,9.8576,9.8576,9.8576,9.8576,9.8576,9.8576,9.8576,9.8576,9.8576,9.8576,9.8576,9.8576,9.8576,9.8576,9.8576,9.8576,9.8576,9.8576,9.8576,9.8576,9.8576,9.8576,9.8576,9.8576,9.8576,9.8576,9.8576,9.8576,9.8576,9.8576,9.8576,9.8576,9.8576,9.8576,9.8576,9.8576,9.8576,9.8698,9.879,9.8575,9.8576,9.8631,9.879,9.8816,9.887,9.9044,9.9166,9.9234,9.9234,9.9259,9.9309,9.9309,9.9309,9.9373,9.9449,9.9625,9.9739,9.9739,9.9794,9.9803,9.9803,9.9887,9.9926,9.9926,9.9926,9.9887,9.9804,9.9803,9.9803,9.9803,9.9887,9.9846,9.9739,9.9758,9.9758,9.9739,9.9739,9.9739,8.7798,9.033,9.3308,9.5804,9.7624,9.9622,10.2741,10.3408,10.4123,10.6581,10.7696,10.7231,10.4016,10.3418,10.2819,10.1155,9.9566,9.8576,9.8576,9.8576,9.8576,9.8576,9.8576,9.8576,9.8576,9.8576,9.8576,9.8576,9.8576,9.8576,9.8576,9.8576,9.8576,9.8576,9.8576,9.8576,9.8576,9.8576,9.8576,9.8576,9.8576,9.8576,9.8576,9.8576,9.8576,9.8576,9.8576,9.8576,9.8576,9.8576,9.8576,9.8576,9.8576,9.8576,9.8576,9.8576,9.8576,9.8576,9.8576,9.8576,9.8576,9.8576,9.8576,9.8576,9.8576,9.8576,9.8576,9.8576,9.8576,9.8576,9.8576,9.8538,9.8538,9.8576,9.8576,9.8538,9.8538,9.8538,9.8538,9.8538,9.8774,9.892,9.892,9.9166,9.9309,9.9309,9.9309,9.9318,9.9318,9.9318,9.9318,9.9318,9.9443,9.9532,9.9532,9.976,9.9926,9.9926,9.9926,9.9803,9.9536,9.9532,9.9532,9.9532,9.9764,9.9734,9.9318,9.9462,9.9455,9.9318,9.9318,9.9318,8.5593,8.7954,9.0884,9.3272,9.5925,9.8606,10.1209,10.2216,10.3001,10.4292,10.5196,10.5258,10.3711,10.1585,10.0277,10.0818,9.9566,9.8576,9.8576,9.8576,9.8576,9.8576,9.8576,9.8576,9.8576,9.8576,9.8576,9.8576,9.8576,9.8576,9.8576,9.8576,9.8576,9.8576,9.8576,9.8576,9.8576,9.8576,9.8576,9.8576,9.8576,9.8576,9.8576,9.8576,9.8576,9.8576,9.8576,9.8576,9.8576,9.8576,9.8576,9.8576,9.8576,9.8576,9.8576,9.8576,9.8576,9.8576,9.8576,9.8576,9.8576,9.8576,9.8576,9.8576,9.8576,9.8576,9.8576,9.8576,9.8576,9.8576,9.8576,9.8576,9.8576,9.8576,9.8576,9.8576,9.8576,9.8576,9.8576,9.8576,9.8612,9.8681,9.8681,9.8763,9.8822,9.8822,9.8822,9.8878,9.9019,9.9044,9.9131,9.9299,9.9382,9.9386,9.9386,9.9484,9.9518,9.9518,9.9518,9.9491,9.9394,9.9386,9.9386,9.9386,9.9453,9.9462,9.9309,9.9353,9.9353,9.9309,9.9309,9.9309,8.5979,8.8155,9.076,9.3435,9.5155,9.6599,9.8014,9.8751,9.951,10.0895,10.1558,10.1986,10.2448,10.0411,9.9132,10.0647,9.9335,9.811,9.811,9.8366,9.8425,9.8151,9.8366,9.8576,9.8576,9.8576,9.8576,9.8576,9.8576,9.8576,9.8576,9.8576,9.8576,9.8576,9.8576,9.8576,9.8576,9.8576,9.8576,9.8576,9.8576,9.8576,9.8576,9.8576,9.8576,9.8576,9.8576,9.8576,9.8576,9.8576,9.8576,9.8576,9.8576,9.8576,9.8576,9.8576,9.8576,9.8576,9.8576,9.8576,9.8576,9.8576,9.8576,9.8576,9.8576,9.8576,9.8576,9.8576,9.8576,9.8576,9.8576,9.8576,9.8576,9.8576,9.8576,9.8576,9.8576,9.8576,9.8576,9.8576,9.8576,9.8576,9.8576,9.8576,9.8576,9.8576,9.8576,9.8612,9.8774,9.8769,9.8863,9.903,9.9056,9.907,9.9189,9.9259,9.9309,9.9309,9.9155,9.907,9.9189,9.9163,9.9163,9.9163,9.9259,9.9255,9.9056,9.9143,9.9131,9.9056,9.9056,9.9056,8.8084,9.0225,9.2257,9.5148,9.5148,9.4434,9.4434,9.4327,9.491,9.7266,9.7654,9.8246,10.0496,9.9725,9.9148,10.041,9.893,9.759,9.7479,9.7999,9.812,9.7442,9.7899,9.8332,9.8444,9.8481,9.8501,9.8576,9.8576,9.8576,9.8576,9.8576,9.8576,9.8576,9.8576,9.8576,9.8576,9.8576,9.8576,9.8576,9.8576,9.8576,9.8576,9.8576,9.8576,9.8576,9.8576,9.8576,9.8576,9.8576,9.8576,9.8576,9.8576,9.8576,9.8576,9.8576,9.8576,9.8576,9.8576,9.8576,9.8576,9.8576,9.8576,9.8576,9.8576,9.8576,9.8576,9.8576,9.8576,9.8576,9.8576,9.8576,9.8576,9.8576,9.8576,9.8576,9.8576,9.8576,9.8576,9.8576,9.8576,9.8576,9.8576,9.8576,9.8576,9.8576,9.8576,9.8576,9.8576,9.8576,9.8576,9.8576,9.8576,9.8646,9.8885,9.9143,9.9259,9.9259,9.8816,9.8664,9.89,9.8915,9.8915,9.8915,9.9155,9.9056,9.8576,9.8769,9.8806,9.8576,9.8576,9.8576,8.5478,8.8548,9.1437,9.101,9.5184,9.9393,9.9393,9.8466,9.7952,9.911,9.9354,9.9296,9.9293,9.8999,9.8617,9.8244,9.9256,9.963,9.8456,9.7322,9.6794,9.733,9.6375,9.6242,9.7564,9.7676,9.7888,9.8501,9.8576,9.8576,9.8576,9.8576,9.8576,9.8576,9.8576,9.8576,9.8576,9.8576,9.8576,9.8576,9.8576,9.8576,9.8576,9.8576,9.8576,9.8576,9.8576,9.8576,9.8576,9.8576,9.8576,9.8576,9.8576,9.8576,9.8576,9.8576,9.8576,9.8576,9.8576,9.8576,9.8576,9.8576,9.8576,9.8576,9.8576,9.8576,9.8576,9.8576,9.8576,9.8576,9.8576,9.8576,9.8576,9.8576,9.8576,9.8576,9.8576,9.8576,9.8576,9.8576,9.8576,9.8576,9.8576,9.8576,9.8576,9.8576,9.8576,9.8576,9.8576,9.8576,9.8576,9.8576,9.8576,9.8576,9.861,9.8733,9.8708,9.8708,9.8612,9.8576,9.8666,9.8666,9.8666,9.8666,9.8695,9.8681,9.8576,9.8612,9.8612,9.8576,9.8576,9.8576,8.4965,8.8481,9.1195,8.8218,9.2104,9.6504,9.579,9.554,9.5548,9.5989,9.6635,9.7244,9.7612,9.7344,9.701,9.693,9.7942,9.8311,9.7093,9.6768,9.6568,9.6338,9.581,9.587,9.6756,9.683,9.7167,9.7931,9.8011,9.8172,9.852,9.8576,9.8576,9.8576,9.8576,9.8576,9.8576,9.8209,9.8011,9.8011,9.8386,9.8366,9.8031,9.8386,9.8576,9.8576,0.0,9.8576,9.8576,9.8576,9.8576,9.8576,9.8576,9.8576,9.8576,9.8576,9.8576,9.8576,9.8576,9.8576,9.8576,9.8576,9.8576,9.8576,9.8576,9.8576,9.8576,9.8576,9.8576,9.8576,9.8576,9.8576,9.8576,9.8576,9.8576,9.8576,9.8576,9.8576,9.8576,9.8576,9.8576,9.8576,9.8576,9.8576,9.8576,9.8576,9.8576,9.8576,9.8576,9.8576,9.8576,9.8576,9.8576,9.8576,9.8576,9.8576,9.8576,9.8576,9.8576,9.8576,9.8576,9.8576,9.8576,9.8576,9.8576,9.8576,9.8576,9.8576,9.8576,9.8576,9.8576,9.8576,8.4869,8.8204,9.0448,8.669,8.888,9.1615,9.0546,9.1152,9.1901,9.1901,9.297,9.4327,9.5719,9.5198,9.4971,9.638,9.6084,9.556,9.5264,9.6146,9.6405,9.5169,9.5423,9.5771,9.6028,9.6028,9.6366,9.7142,9.7228,9.7502,9.8151,9.8209,9.8209,9.8209,9.8209,9.8209,9.8209,9.7525,9.7228,9.7191,9.8011,9.8011,9.7395,9.8209,9.8576,9.8576,0.0,9.8576,9.8576,9.8576,9.8576,9.8576,9.8576,9.8576,9.8576,9.8576,9.8576,9.8576,9.8576,9.8576,9.8576,9.8576,9.8576,9.8576,9.8576,9.8576,9.8576,9.8576,9.8576,9.8576,9.8576,9.8576,9.8576,9.8576,9.8576,9.8576,9.8576,9.8576,9.8576,9.8576,9.8576,9.8576,9.8576,9.8576,9.8576,9.8576,9.8576,9.8576,9.8576,9.8576,9.8576,9.8576,9.8576,9.8576,9.8576,9.8576,9.8576,9.8576,9.8576,9.8576,9.8576,9.8576,9.8576,9.8576,9.8576,9.8576,9.8576,9.8576,9.8576,9.8576,9.8576,9.8576,8.2236,8.4376,8.7042,8.7638,9.0668,9.3864,9.5043,9.4399,9.3543,9.3543,9.3721,9.3971,9.422,9.3082,9.3227,9.6838,9.5076,9.3899,9.5787,9.5017,9.4446,9.4996,9.3989,9.3795,9.5096,9.5205,9.555,9.6339,9.6394,9.6458,9.6593,9.6593,9.6593,9.6593,9.6593,9.6593,9.6593,9.6449,9.6394,9.6431,9.7167,9.7502,9.7395,9.8209,9.8576,9.8576,9.8576,0.0,9.8576,9.8576,9.8576,9.8576,9.8576,9.8576,9.8576,9.8576,9.8576,9.8576,9.8576,9.8576,9.8576,9.8576,9.8576,9.8576,9.8576,9.8576,9.8576,9.8576,9.8576,9.8576,9.8576,9.8576,9.8576,9.8576,9.8576,9.8576,9.8576,9.8576,9.8576,9.8576,9.8576,9.8576,9.8576,9.8576,9.8576,9.8576,9.8576,9.8576,9.8576,9.8576,9.8576,9.8576,9.8576,9.8576,9.8576,9.8576,9.8576,9.8576,9.8576,9.8576,9.8576,9.8576,9.8576,9.8576,9.8576,9.8576,9.8576,9.8576,9.8576,9.8576,9.8576,9.8576,7.9877,8.0927,8.323,8.641,8.8356,9.029,9.3396,9.3516,9.3143,9.3751,9.3899,9.3899,9.3899,9.2578,9.244,9.5127,9.3617,9.2628,9.4142,9.365,9.349,9.4298,9.3799,9.3619,9.4337,9.4408,9.4717,9.5519,9.5581,9.5763,9.6199,9.6199,9.6199,9.6199,9.6199,9.6028,9.5581,9.5581,9.5581,9.5611,9.6366,9.653,9.6134,9.7372,9.7947,9.7968,9.8366,9.8327,9.7968,9.8386,9.829,9.7968,9.8386,9.8576,9.8576,9.8576,9.8576,9.8576,9.8576,9.8576,9.8576,9.8576,9.8576,9.8576,9.8576,9.8576,9.8576,9.8576,9.8576,9.8576,9.8576,9.8576,9.8576,9.8576,9.8576,9.8576,9.8576,9.8576,9.8576,9.8576,9.8576,9.8576,9.8576,9.8576,9.8576,9.8576,9.8576,9.8576,9.8576,9.8576,9.8576,9.8576,9.8576,9.8576,9.8576,9.8576,9.8576,9.8576,9.8576,9.8576,9.8576,9.8576,9.8576,9.8576,9.8576,9.8576,9.8576,9.8576,9.8576,9.8576,9.8576,9.8576,7.919,0.0,8.1496,8.5316,8.648,8.7671,0.0,9.2351,9.2685,9.3213,9.3327,9.3257,9.2865,9.1508,9.0973,9.2544,9.1473,9.0795,9.1762,9.1897,9.2388,9.3724,9.3899,9.4042,9.447,9.4113,9.4122,9.4753,9.4785,9.5014,9.5611,9.5672,9.5672,9.5672,9.4943,9.4486,9.4243,9.4243,9.4424,9.4785,9.5581,9.5642,9.5076,9.6476,9.7118,9.7142,9.7742,9.7676,9.7167,9.7968,9.7947,9.7479,9.825,9.8576,9.8576,9.8576,9.8576,9.8576,9.8576,9.8576,9.852,9.8347,9.827,9.8327,9.8501,9.8576,9.8576,9.8576,9.8576,9.8576,9.8576,9.8576,9.8576,9.8576,9.8576,9.8576,9.8576,9.8576,9.8576,9.8576,9.8576,9.8576,9.8576,9.8576,9.8576,9.8576,9.8576,9.8576,9.8576,9.8576,9.8576,9.8576,9.8576,9.8576,9.8576,9.8576,9.8576,9.8576,9.8576,9.8576,9.8576,9.8576,9.8576,9.8576,9.8576,9.8576,9.8576,9.8576,9.8576,9.8576,9.8576,9.8576,0.0,8.2765,8.4108,8.5855,8.7903,8.9987,9.1723,9.295,0.0,9.2008,9.1722,9.1259,8.9832,8.8262,8.7727,8.9297,8.8262,8.7727,8.926,8.9474,9.0546,9.3543,9.3899,9.4506,9.6114,9.4827,9.3899,9.3938,9.3975,9.3975,9.4049,9.4049,9.4049,9.4049,9.126,9.0402,9.1796,9.1796,9.251,9.3975,9.4751,9.5112,9.508,9.594,9.6283,0.0,9.6339,9.6339,9.6339,9.7142,9.7456,9.7479,9.825,9.8576,9.8576,9.8576,9.8576,9.8576,9.8576,9.8576,9.8462,9.7698,9.7479,9.7593,9.8347,9.8576,9.8576,9.8576,9.8576,9.8576,9.8576,9.8576,9.8576,9.8576,9.8576,9.8576,9.8576,9.8576,9.8576,9.8576,9.8576,9.8576,9.8576,9.8576,9.8576,9.8576,9.8576,9.8576,9.8576,9.8576,9.8576,9.8576,9.8576,9.8576,9.8576,9.8576,9.8576,9.8576,9.8576,9.8576,9.8576,9.8576,9.8576,9.8576,9.8576,9.8576,9.8576,9.8576,9.8576,9.8576,9.8576,9.8576,8.336,8.3251,8.3494,8.5936,8.7065,8.8204,9.0406,9.1906,9.2848,9.2966,9.2221,9.1366,9.0759,8.9404,8.8869,9.0439,9.0153,8.9654,8.9297,9.0082,9.0367,8.9654,9.0403,9.1224,9.1866,9.1366,9.101,9.101,9.101,9.101,9.101,9.101,9.101,9.101,8.9832,8.9511,9.0118,9.0118,9.0403,9.101,9.2261,9.2867,9.2938,9.4674,9.5488,9.5519,9.5999,9.594,0.0,9.6339,9.6366,9.5991,9.6804,9.7093,9.7093,9.7093,9.7093,9.7093,9.7093,9.7093,9.7044,9.6752,9.6673,9.6804,9.7571,9.7502,9.7093,9.7093,9.7093,9.7093,9.7093,9.7093,9.7093,9.7093,9.7093,9.7093,9.7093,9.7093,9.7252,9.772,9.7823,9.7989,9.8481,9.8576,9.8576,9.8576,9.8576,9.8576,9.8576,9.8576,9.8576,9.8576,9.8576,9.8576,9.8576,9.8576,9.8576,9.8576,9.8576,9.8576,9.8576,9.8576,9.8576,9.8576,9.8576,9.8576,9.8576,9.8576,9.8576,9.8576,9.8576,9.8576,8.4962,8.4368,8.423,8.6635,8.7039,8.7509,9.0182,9.1395,9.2204,9.3001,9.2293,9.1401,9.0902,8.9939,8.9725,9.1294,9.1152,9.0474,8.9368,8.9725,8.9262,8.7122,8.8262,8.9226,8.9226,8.9226,8.9226,8.9226,8.9226,8.9226,8.9226,8.9226,8.8762,8.7763,8.7727,8.7977,8.8477,8.8477,8.8726,8.9226,9.0332,9.0795,9.0867,9.2467,9.3205,9.3238,9.3749,9.3686,9.3271,9.4057,9.4348,9.4384,9.5172,9.5787,9.6199,9.6199,9.6199,9.6199,9.6199,9.6199,9.6171,9.594,9.6028,9.6255,9.6593,9.6283,9.5911,9.6142,9.6199,9.6199,9.6199,9.6199,9.6199,9.6199,9.6199,9.6199,9.6199,9.6199,9.6366,9.6943,9.7019,9.7204,9.772,9.7823,9.7823,9.7823,9.8011,9.8172,9.8172,9.8386,9.8576,9.8576,9.8576,9.8462,9.8229,9.8406,9.8576,9.8576,9.8576,9.8576,9.8576,9.8576,9.8576,9.8576,9.8576,9.8576,9.8576,9.8576,9.8576,9.8576,9.8576,9.8576,8.6296,8.6691,8.6983,8.8197,8.8177,8.8629,9.1472,9.1822,9.158,9.158,9.158,9.108,8.9547,8.9261,8.9761,9.133,9.0296,8.9226,8.9226,8.7906,8.6872,8.6872,8.8227,8.919,8.919,8.919,8.919,8.919,8.919,0.0,8.919,8.919,8.7763,8.4657,8.4586,8.5301,8.6837,8.6871,8.7656,8.919,8.919,8.919,8.919,8.9226,8.9226,8.9226,8.9226,8.9226,0.0,9.0028,9.1282,9.2753,9.3556,9.476,9.6134,9.6134,9.6134,9.6134,9.6162,9.6199,9.602,9.5269,9.555,9.6056,9.5269,9.5011,9.5173,9.597,9.6199,9.6199,9.6199,9.6199,9.6199,9.6199,9.6199,9.6199,9.6199,9.6199,9.6199,9.6199,9.6199,9.6236,9.6199,9.6199,9.6199,9.6199,9.6855,9.7372,9.7372,9.8031,9.852,9.852,9.852,9.8229,9.7456,9.809,9.852,9.852,9.852,9.852,9.852,9.852,9.852,9.852,9.852,9.852,9.852,9.8576,9.8576,9.8576,9.8576,9.8576,8.7789,8.7923,8.8248,8.9396,8.9467,8.9725,9.1675,9.2711,9.3221,9.3221,9.3221,9.3079,9.2579,9.1616,9.1366,9.2936,9.1865,9.051,8.9368,8.7906,8.6479,8.5373,8.5622,8.5908,8.5908,8.5908,8.5908,8.5908,8.5908,8.5908,8.5908,8.5908,8.5514,8.4621,8.4586,8.4766,8.523,8.523,8.548,8.5944,8.7049,8.7585,8.762,8.8726,8.9226,8.9226,8.9226,8.9226,0.0,8.9469,8.9822,9.0251,9.0519,9.0906,9.1269,9.1269,9.1269,9.1449,9.2532,9.2928,9.3073,9.3944,9.4409,9.4333,9.3011,9.2583,9.2868,9.419,9.4547,9.4547,9.4547,9.4547,9.4547,9.4547,9.4547,9.4547,9.4547,9.4547,9.4753,9.5269,9.5395,9.5581,9.6114,9.6199,9.6199,9.6199,9.6394,9.6567,9.6567,9.6752,9.6881,9.6881,9.6881,9.6804,9.6593,9.6778,9.6881,9.6881,9.6881,9.6881,9.6881,9.6881,9.6881,9.6881,9.7456,9.772,9.772,9.827,9.8576,9.8576,9.8576,9.8576,8.9106,8.9106,8.9444,9.0662,9.0373,9.0507,9.3139,9.3337,9.3328,9.4613,9.4363,9.3899,9.3899,9.3113,9.2792,9.3757,9.2542,9.1009,8.944,8.7906,8.6336,8.4764,8.4586,8.4586,8.4586,8.4586,8.4586,8.4586,8.4586,8.4586,8.4586,8.4586,8.4586,8.4586,8.4586,8.4586,8.4586,8.4586,8.4586,8.4586,8.5515,8.5944,8.6015,8.6907,8.7335,8.7335,8.7335,8.7335,0.0,8.7335,8.7727,8.8298,8.8298,8.8691,8.9226,8.9226,8.9226,8.9368,9.0296,9.0617,9.0759,9.1723,9.2044,9.1866,9.0938,9.0617,9.0831,9.1794,9.2044,9.2044,9.2044,9.2044,9.2044,9.2044,9.2044,9.2044,9.2044,9.2544,9.3083,9.3579,9.415,9.4753,9.5209,9.5305,9.5305,9.5305,9.555,9.5763,9.5763,9.6028,9.6199,9.6199,9.6496,9.6426,9.5836,9.6028,9.6199,9.6199,9.6199,9.6199,9.6199,9.6199,9.6199,9.6199,9.6699,9.6906,9.6906,9.7372,9.7593,9.7593,9.7593,9.7593,9.0413,9.0447,9.0707,9.2039,9.1155,9.1035,9.5314,9.4042,9.2865,9.5828,9.5291,9.4256,9.3971,9.3789,9.3714,9.3714,9.2214,9.0539,8.9117,8.7552,8.602,8.4594,8.4483,8.4586,8.4586,8.4586,8.4586,8.4586,8.4586,8.4586,8.4586,8.4586,8.4586,8.4586,8.4586,8.4586,8.4586,8.4586,8.4586,8.4586,8.4586,8.4586,8.4586,8.4586,8.4586,8.4586,8.4586,8.4586,0.0,8.4586,8.5373,8.6693,8.6693,8.7549,8.8798,8.8798,8.8798,8.8798,8.894,8.9012,8.9012,8.919,8.9012,8.8798,8.8976,8.9012,8.9047,8.919,8.9226,8.9226,8.9226,8.9226,8.9226,8.9226,8.9226,8.9226,8.9226,9.0332,9.133,9.133,9.2471,9.3471,9.3471,9.3578,9.3685,9.3685,9.455,9.5202,9.5202,9.5914,9.6291,9.5816,9.6535,9.6473,9.506,9.5581,9.5999,9.5999,9.5999,9.5999,9.5999,9.5999,9.5999,9.5999,9.6085,9.6114,9.6114,9.6171,9.6199,9.6199,9.6199,9.6199,9.2207,9.2186,9.2163,9.398,9.2798,9.2068,9.5574,9.5864,9.5578,9.6292,9.7074,9.6932,9.4363,9.3143,9.2514,9.2514,8.9389,8.6854,8.6542,8.497,8.371,8.3393,8.4036,8.4586,8.4586,8.4586,0.0,8.4586,8.4586,8.4586,8.4586,8.4586,8.4586,8.4586,8.4586,8.4586,8.4586,8.4586,8.4586,8.4586,8.4586,8.4586,8.4586,8.4586,8.4586,8.4586,8.4586,8.4586,8.4586,8.4586,8.4764,8.5052,8.5052,8.523,8.5549,8.5549,8.5549,8.5694,8.6978,8.7406,8.7585,8.8798,8.7549,8.5765,8.7049,8.7406,8.7656,8.8869,8.9226,8.9226,8.9226,8.9226,8.9226,8.9226,8.9226,8.9226,8.9226,8.9511,8.9725,8.9725,9.0011,9.0225,9.0225,9.1259,9.2043,9.2043,9.437,9.6128,9.6128,9.7351,9.6743,9.2938,9.3801,9.4516,9.4158,9.4303,9.4409,9.4409,9.4409,9.4409,9.4409,9.4409,9.4409,9.4409,9.5018,9.5301,9.5301,9.5911,9.6199,9.6199,9.6199,9.6199,9.6764,9.6734,9.6382,9.632,9.5362,9.4804,9.612,9.5792,9.5612,9.7181,9.647,9.5259,9.4339,9.2558,9.0985,9.022,8.7655,8.5462,8.4705,8.3689,8.3024,8.3024,8.3931,8.4586,8.4586,8.4586,8.4586,8.4586,8.4586,8.4586,8.4586,8.4586,8.4586,8.4586,8.4586,8.4586,8.4586,8.4586,8.4586,8.4586,8.4586,8.4586,8.4586,8.4586,8.4586,8.4586,8.4586,8.4586,8.4586,8.4586,8.4586,8.4586,8.4586,8.4586,8.4586,8.4586,8.4586,8.4693,8.548,8.5765,8.5908,8.6693,8.5872,8.4728,8.5515,8.5765,8.5944,8.6728,8.6978,8.6978,8.6978,8.6978,8.6978,8.6978,8.6978,8.6978,8.6978,8.7549,8.812,8.812,8.9333,9.0367,9.0367,9.1009,9.1794,9.2542,9.2829,9.3221,9.3971,9.5433,9.5184,9.1901,9.2257,9.2472,9.1723,9.1652,9.1652,9.1652,9.2365,9.2756,9.2756,9.3507,9.3899,9.3899,9.355,9.3399,9.3399,9.3039,9.283,9.283,9.283,9.283,10.1182,10.1162,10.0605,9.8691,9.7857,9.7449,9.6948,9.5505,9.5112,9.7788,9.5214,9.2887,9.3905,9.1752,8.954,8.85,8.6994,8.5354,8.3773,8.3321,8.2973,8.2454,8.3324,8.4071,8.4279,8.4313,0.0,0.0,8.4381,8.4381,8.4552,8.4586,8.4586,8.4586,8.4586,8.4485,8.4313,8.4313,8.4313,8.4313,8.4313,8.4381,8.4586,8.4586,8.4586,8.4586,8.4586,0.0,8.4586,8.4586,8.4586,8.4586,8.4586,8.4586,8.4586,8.4586,8.4586,8.4586,8.4586,8.4586,8.4586,8.4586,8.4586,8.4586,8.4586,8.4586,8.4586,8.4586,8.4586,8.4586,8.4586,8.4586,8.4586,8.4586,8.4586,8.4586,8.4586,8.5551,8.6586,8.6801,8.8976,9.0831,9.1116,9.1152,9.158,9.29,9.1117,9.0118,9.1366,9.2186,9.215,9.0866,9.0973,9.0617,8.9333,8.9226,8.9226,8.9226,9.0439,9.1152,9.1152,9.2364,9.3079,9.3079,9.1794,9.1152,9.1152,8.9868,8.9226,8.9226,8.9226,8.9226,10.1556,10.1588,10.1009,10.0686,9.9073,9.7738,9.8305,9.7181,9.6221,9.6649,9.5355,9.3792,9.2677,9.038,8.902,9.0051,8.8187,8.5986,8.4445,8.4039,8.289,8.026,8.0989,8.2115,8.3136,8.321,8.3576,8.4519,8.3719,8.3576,8.4519,8.4586,8.4586,8.4586,8.4586,8.4106,8.321,8.321,8.321,8.321,8.321,8.3683,8.4586,8.4586,8.4586,8.4586,8.4586,8.4586,8.4586,8.4586,8.4586,8.4586,8.4586,8.4586,8.4586,8.4586,8.4586,8.4586,8.4586,8.4586,8.4586,8.4586,8.4586,8.4586,8.4586,8.4586,8.4586,8.4586,8.4586,8.4586,8.4586,8.4586,8.4586,8.4586,8.4586,8.4586,8.4586,8.4728,8.5266,8.6621,8.7193,8.7941,8.9297,8.9547,8.9618,8.9797,9.0653,9.133,9.1544,8.9333,8.7728,8.7514,8.8726,8.944,8.9226,8.9226,8.9226,8.9226,8.9404,8.9547,8.9547,8.9725,8.9832,8.9832,8.9618,8.9547,8.9547,8.9333,8.9226,8.9226,8.9226,8.9226,10.4023,10.439,10.4133,10.2757,10.0631,9.8641,9.7663,9.6183,9.5067,9.5259,9.4287,9.3185,9.2705,9.0405,8.8878,8.9476,8.7268,8.4861,8.3382,8.2947,8.1954,7.9778,8.0565,8.1438,8.1957,8.1996,8.2501,8.3612,8.2654,8.2501,8.3612,8.3683,8.3966,8.4516,8.4586,8.4036,8.3024,8.2346,8.1996,8.1996,8.1996,8.2272,8.2695,8.2695,8.3031,8.3683,8.3683,8.4001,8.4586,8.4586,8.4586,8.4586,8.4586,8.4586,8.4586,8.4586,8.4586,8.4586,8.4586,8.4586,8.4586,8.4586,8.4586,8.4586,8.4586,8.4586,8.4586,8.4586,8.4586,8.4586,8.4586,8.4586,8.4766,8.5658,8.5194,8.4766,8.5694,8.5159,8.5016,8.6586,8.8299,8.9725,9.0403,9.051,9.051,9.051,8.9618,8.9262,9.0153,8.8263,8.6662,8.609,8.6343,8.6342,8.577,8.6272,8.6586,8.6586,8.7442,8.7941,8.7941,8.8762,8.9226,8.9226,8.8369,8.7941,8.7941,8.7014,8.6586,8.6586,8.6586,8.6586,10.5885,10.6518,10.6539,10.4301,10.1781,9.9437,9.7449,9.5362,9.3882,9.3869,9.2833,9.1925,9.1756,8.9883,8.8412,8.8774,8.6998,8.5026,8.3546,8.2848,8.177,7.9877,8.0093,8.0513,8.0778,8.0821,0.0,0.0,8.0184,8.0225,8.1422,8.1809,8.2182,8.2586,8.333,8.3184,8.2019,8.119,8.0821,8.0821,8.0821,8.0947,8.1273,8.1273,8.1756,8.2574,8.2574,8.2991,8.3755,8.4001,8.414,8.4175,8.4449,8.4586,8.4586,8.4586,8.4586,8.4412,8.3505,8.3079,8.3003,8.3152,8.3328,8.3607,8.4034,8.414,8.414,8.414,8.414,8.4106,8.379,8.3719,8.4108,8.5629,8.4815,8.4144,8.5664,8.5063,8.4603,8.577,8.8529,9.0613,9.0613,9.0878,9.1103,9.1103,8.9047,8.7659,8.8213,8.7254,8.611,8.4957,8.4518,8.3783,8.2648,8.3251,8.3719,8.3719,8.4816,8.5597,8.5882,8.7018,8.7766,8.8048,8.6907,8.63,8.63,8.5123,8.4586,8.4586,8.4586,8.4586,10.5727,10.6522,10.6726,10.495,10.2214,9.9655,9.8806,9.6183,9.3562,9.2497,9.1201,8.9973,8.8885,8.7635,8.7283,8.8642,8.8708,8.8083,8.6691,8.5178,8.3171,8.0392,7.891,0.0,0.0,0.0,0.0,7.5833,0.0,7.6047,7.7201,7.8586,7.8689,7.739,8.0035,8.0748,7.9305,7.9506,7.9599,7.9599,7.9599,8.0175,8.1273,8.1273,8.1314,8.1355,8.1355,8.1397,8.1519,8.2613,8.3099,8.3173,8.4175,8.4586,8.4586,8.4586,8.4586,8.4064,8.0604,7.9066,7.8745,7.9213,7.9971,8.0956,8.2607,8.3099,8.3099,8.3099,8.3099,8.2838,8.1722,8.1438,8.1782,8.3257,8.2465,8.1817,8.3257,8.3533,8.3457,8.3525,8.5971,8.8037,8.8037,8.9096,8.9904,8.9904,8.9423,8.8321,8.6049,8.5634,8.5058,8.3613,8.3491,8.2871,8.1459,8.1397,8.1438,8.1438,8.1507,8.2061,8.3167,8.3274,8.3787,8.4766,8.4728,8.4659,8.4659,8.4621,8.4586,8.4586,8.4586,8.4586,10.3028,10.3372,10.3568,10.199,9.9586,9.7343,9.6251,9.431,9.2192,9.0196,9.0131,9.0067,8.8919,8.8348,8.8215,8.8774,8.805,8.69,8.542,8.3151,8.0916,7.8926,7.7431,7.6339,0.0,0.0,0.0,7.5663,7.4733,7.4669,7.5768,7.6361,7.6722,7.6955,7.799,7.7908,7.6633,7.6712,7.6396,7.5716,7.5716,7.6457,7.7735,7.7735,7.8611,8.0064,7.9157,7.9174,7.9846,7.9309,7.9672,8.0535,8.0921,8.1631,8.2431,8.2431,8.1876,8.0756,7.8504,7.7601,7.752,7.7658,7.8604,7.9529,7.9259,7.9776,8.0331,7.9398,7.912,7.9043,7.862,7.9226,8.0253,8.1769,8.2374,8.3054,8.4568,8.4834,8.5065,8.6071,8.7137,8.8168,8.921,8.9744,8.9698,8.8729,8.9317,8.9552,8.8636,8.7642,8.6582,8.5384,8.4965,8.4278,8.3118,8.2797,8.2642,8.2642,8.1789,8.1438,8.1877,8.1877,8.2041,8.2392,8.3177,8.3212,8.2431,8.3212,8.3177,8.2431,8.2431,8.2431,10.2221,10.206,10.1928,10.0632,9.8023,9.5552,9.4671,9.2899,9.092,8.8881,8.9208,8.9484,8.8326,8.8116,8.8116,8.8116,8.6867,8.5552,8.4512,8.1902,7.9765,7.8762,7.7398,0.0,0.0,7.5524,7.5392,7.4452,7.3485,7.3026,7.3208,7.3686,7.4104,7.4382,7.5367,7.5266,7.3987,7.4445,7.4382,7.3682,7.3682,7.4175,7.5096,7.5096,7.5995,7.751,7.6541,7.6559,7.7229,7.666,7.6952,7.7877,7.824,7.8979,7.984,7.984,7.8431,7.6455,7.5469,7.5031,7.4928,7.5081,7.6321,7.7596,7.6644,7.7397,7.8212,7.6781,7.641,7.6393,7.6572,7.7297,7.8511,8.0515,8.1286,8.1987,8.3514,8.3727,8.4032,8.5027,8.6011,8.7028,8.8045,8.8704,8.8767,8.8175,8.8938,8.9444,8.9092,8.8113,8.6994,8.5766,8.5301,8.467,8.3493,8.3126,8.3027,8.3027,8.1671,8.1035,8.1427,8.0924,8.0863,8.1273,8.1996,8.2036,8.1273,8.2036,8.1996,8.1273,8.1273,8.1273,10.3383,10.2561,10.1823,10.1019,9.7584,9.4381,9.4338,9.2164,8.9858,8.8633,8.8416,8.8044,8.6875,8.6658,8.6625,8.6625,8.5322,8.4282,8.4282,8.1869,8.0028,8.0028,7.8746,7.7907,0.0,7.6609,7.4636,7.1886,7.159,7.0855,6.9331,7.0657,7.0756,6.9233,7.1993,7.286,7.1491,7.2827,7.3551,7.3551,7.3551,7.3551,7.3551,7.3617,7.3649,7.3682,7.3649,7.3617,7.3709,7.4633,7.5039,7.5233,7.6382,7.6848,7.6843,7.6779,7.4488,7.1459,7.1459,7.1136,7.0813,7.1319,7.2997,7.4945,7.5039,7.604,7.6916,7.5511,7.5106,7.5219,7.5623,7.5754,7.651,7.9305,7.8943,7.84,7.9798,8.0127,8.0159,8.0159,8.2428,8.4282,8.4282,8.5585,8.6991,8.8181,8.8315,8.7841,8.6755,8.6625,8.6045,8.4578,8.4413,8.3908,8.2461,8.2297,8.2264,8.2264,8.0949,8.0676,8.178,8.0394,8.0101,8.1183,8.1259,8.1224,8.1149,8.1156,8.1156,8.1149,8.1149,8.1149,9.723,9.6904,9.6605,9.5224,9.3957,9.2828,9.1855,9.1058,8.9865,8.7649,8.7164,8.7057,8.6746,8.5749,8.5026,8.5026,8.3776,8.279,8.279,8.0357,7.8532,7.8532,7.7266,7.6821,7.7841,7.6609,7.5458,7.4669,7.2709,7.136,7.0888,7.023,6.9671,6.92,6.9989,7.0251,6.9868,7.0219,7.0416,7.0416,7.0416,7.0416,7.0449,7.1611,7.2663,7.3617,7.2564,7.2149,7.2051,7.1176,7.155,7.2555,7.2905,7.367,7.4293,7.2168,7.0741,6.9868,6.9868,6.9747,6.9666,6.9792,7.1044,7.2267,7.1218,7.1914,7.3073,7.2643,7.2555,7.283,7.3972,7.503,7.5984,7.6806,7.8285,7.9601,8.0028,8.0916,8.1639,8.1639,8.2264,8.279,8.279,8.4039,8.51,8.5457,8.4582,8.4214,8.4915,8.5026,8.5289,8.5946,8.6045,8.5934,8.5507,8.4434,8.3809,8.3809,8.2428,8.176,8.2082,8.1702,8.1122,8.0399,8.1226,8.0733,7.8894,7.9633,7.9588,7.8894,7.8894,7.8894,9.5109,9.4385,9.357,9.2008,9.1206,9.0321,8.8363,8.791,8.7389,8.5272,8.4849,8.4849,8.4849,8.4072,8.348,8.348,8.2264,8.131,8.131,7.9403,7.7957,7.7957,7.72,7.6776,7.6982,7.6809,7.6185,7.4946,7.3894,7.2807,7.159,7.0657,6.9901,6.9233,6.92,6.92,6.92,6.92,6.92,6.92,6.92,6.92,6.9233,7.0131,7.1019,7.173,7.092,7.0559,7.0493,6.9561,6.977,7.0559,7.0559,7.1085,7.1566,6.9824,6.92,6.92,6.92,6.92,6.92,6.92,7.0263,7.136,7.0427,7.1216,7.24,7.24,7.24,7.2729,7.4208,7.5162,7.5951,7.6591,7.7957,7.9173,7.9173,7.9831,8.0473,8.0473,8.0916,8.131,8.131,8.2527,8.2848,8.0946,8.0547,8.0675,8.1513,8.161,8.219,8.3615,8.3776,8.4262,8.5532,8.4816,8.4549,8.5268,8.3941,8.3119,8.3119,8.2527,8.1836,8.1014,8.1072,8.0342,7.8811,7.8863,7.8564,7.794,7.794,7.7315,9.4527,9.3036,9.1696,9.0281,8.8964,8.7273,0.0,8.4019,8.3708,8.2285,8.199,8.2042,8.2198,8.2066,8.1968,8.1968,8.0784,7.9864,7.9864,7.8713,7.7842,7.7512,7.7463,7.6895,7.5526,7.6609,7.6426,7.3902,7.4831,7.4494,7.2149,7.1722,7.081,6.9287,6.9222,6.9123,6.8992,6.9123,6.92,6.92,6.92,6.92,6.92,6.92,6.92,6.92,6.92,6.92,6.92,6.92,6.92,6.92,6.92,6.92,6.92,6.92,6.92,6.92,6.92,6.92,6.92,6.92,7.0131,7.1294,7.1294,7.2137,7.3255,7.3584,7.3682,7.4044,7.5622,7.6017,7.6345,7.7644,7.794,7.794,7.794,7.7793,7.7694,7.7694,7.856,7.9342,7.9342,8.0519,8.0086,7.5994,7.6431,7.73,7.7487,7.7545,7.8048,7.9332,7.9487,8.0592,8.3445,8.3791,8.4529,8.6021,8.503,8.4363,8.4363,8.3276,8.256,8.2198,8.0981,8.0094,7.9601,7.8318,7.7644,7.7479,7.7479,7.6032,0.0,0.0,0.0,0.0,0.0,0.0,0.0,8.249,8.2237,8.0827,8.0505,8.0863,8.2042,8.1277,8.0488,8.0488,7.9272,7.8368,7.8368,7.8137,7.7079,7.4648,7.432,7.4211,7.3935,7.4156,7.4576,7.5142,7.4428,7.4227,7.4917,7.2807,7.0875,6.9399,6.9236,6.8694,6.7613,6.8694,6.92,6.92,6.92,6.92,6.92,6.92,6.92,6.92,6.92,6.92,6.92,6.92,6.92,6.92,6.92,6.92,6.92,6.92,6.92,6.92,6.92,6.92,6.92,6.92,6.9397,6.9627,6.9627,6.9824,7.058,7.3025,7.3682,7.4274,7.6887,7.7545,7.7611,7.7907,7.794,7.794,7.794,7.6946,7.6081,7.6081,7.5355,7.4729,7.4729,7.5973,7.6214,7.4192,7.411,7.4727,7.5901,7.6057,7.6555,7.7986,7.8111,7.8763,8.044,8.1506,8.2255,8.2561,8.3658,8.4201,8.4201,8.5279,8.4717,8.2231,8.1935,8.0094,7.6641,7.6345,7.5622,7.4504,7.4504,7.3584,0.0,0.0,0.0,0.0,0.0,0.0,0.0,0.0,0.0,0.0,0.0,7.7263,7.8662,0.0,7.8122,7.8876,7.8433,7.7661,7.6895,7.6761,7.5957,7.3743,7.3463,7.315,7.2406,7.3037,7.3488,7.3395,7.3411,7.3481,7.3595,7.293,7.1203,6.8424,6.9,6.8307,6.6308,6.6913,6.7274,6.7274,6.7274,6.7274,6.7274,6.7953,6.7875,6.732,6.7953,6.8225,6.8225,6.8225,6.8649,6.9156,6.8483,6.8649,6.9156,6.8483,6.8616,6.908,6.8438,6.8225,6.8225,6.8225,6.7783,6.7402,6.8106,6.8763,6.9787,7.1949,7.3101,7.3914,7.5343,7.5695,7.5695,7.5695,7.5695,7.5695,7.5695,7.5079,7.4562,7.4562,7.399,7.3463,7.3463,7.2813,7.2078,7.1355,7.1264,7.1505,7.2198,7.2289,7.259,7.3285,7.3375,7.3919,7.5215,7.6631,7.7769,7.8381,8.0007,8.1312,8.2124,8.2976,8.3038,8.2231,8.1508,7.9732,7.6887,7.6148,7.5063,7.3649,7.217,7.1052,0.0,0.0,0.0,0.0,0.0,0.0,0.0,0.0,0.0,0.0,0.0,0.0,0.0,0.0,0.0,7.6863,7.7079,7.6641,7.5367,7.4908,7.4203,7.2751,7.261,7.2147,7.0845,7.1855,7.2205,7.1233,7.2318,7.2655,7.1792,7.2615,7.1416,6.7751,6.8496,6.7806,6.5279,6.5302,6.5278,6.5278,0.0,0.0,6.5328,6.6404,6.6308,6.5378,6.6452,6.6881,6.6881,6.6881,6.7507,6.8348,6.7288,6.7553,6.8348,6.7288,6.7553,6.8303,6.7242,6.6881,6.6881,6.6881,6.6163,6.5546,6.6666,6.7787,0.0,7.033,7.149,7.2431,7.296,7.3115,7.3177,7.3426,7.3463,7.3463,7.3463,7.3263,7.3037,7.3037,7.2839,7.261,7.261,7.0152,6.8293,6.8574,6.8869,6.8928,6.8666,6.8869,6.9015,6.9015,6.9015,6.9538,7.0818,7.1583,7.2597,7.4112,7.5318,7.6581,7.7986,7.8375,7.8903,7.9789,7.8967,7.7922,7.6661,7.5822,7.4504,7.2716,6.875,6.7235,0.0,0.0,0.0,0.0,0.0,0.0,0.0,0.0,0.0,0.0,0.0,0.0,0.0,0.0,0.0,0.0,7.399,7.3935,7.3712,7.2548,7.1144,6.9679,6.9521,6.9396,6.93,6.9426,6.9929,7.1055,7.1263,7.1908,7.3159,0.0,0.0,0.0,0.0,6.672,6.5132,6.526,6.5278,6.5278,6.5278,6.5278,6.5278,6.5477,6.5427,6.5328,6.5477,6.5526,6.5526,6.5526,6.5625,6.5724,6.5576,6.5625,6.5755,6.5576,6.5625,6.5724,6.5576,0.0,0.0,6.5526,6.5427,6.5359,6.5515,6.567,6.6106,6.7527,6.8025,6.871,7.1109,7.1732,7.2043,7.3209,7.3463,7.3463,7.3463,7.2406,7.1412,7.1412,7.039,6.9521,6.9521,6.7003,6.5535,6.7056,6.8259,6.8608,6.7448,6.8288,6.9015,6.9015,6.9015,0.0,7.0818,6.8653,6.8187,7.0471,6.9864,6.9864,7.0723,7.2206,7.2424,7.1206,7.2369,7.2719,7.2066,7.3315,7.2499,6.9517,6.2247,6.0041,0.0,0.0,0.0,0.0,0.0,0.0,0.0,0.0,0.0,0.0,0.0,0.0,0.0,0.0,0.0,0.0,7.296,7.2897,7.1085,6.9645,6.8829,6.8961,6.9015,6.9015,6.9015,6.9015,6.93,6.9867,6.9867,7.0175,7.0875,7.1074,7.0233,6.804,6.8216,6.6974,6.4025,6.4047,6.3718,6.294,6.294,6.294,6.2993,6.3808,6.3734,6.2993,6.3808,6.4172,6.4172,6.4172,6.4603,6.5228,0.0,0.0,0.0,0.0,6.483,6.4047,6.3284,6.2542,6.1939,6.1939,6.1369,6.0797,6.0797,6.1795,6.306,6.3683,6.4941,6.638,6.7516,6.7786,6.7936,6.8506,6.8597,6.8597,6.8597,6.807,6.7626,6.7626,6.6356,0.0,6.4072,6.2864,6.2496,6.3798,6.4484,6.4837,6.4938,6.5373,6.5428,6.4733,6.4557,6.4845,6.5373,6.5284,0.0,0.0,0.0,6.8395,6.7598,7.0153,0.0,0.0,0.0,6.7908,6.7964,6.6416,0.0,0.0,5.8491,5.8181,0.0,0.0,0.0,0.0,0.0,0.0,0.0,0.0,0.0,0.0,0.0,0.0,0.0,0.0,0.0,0.0,7.0344,7.0216,6.8158,6.6991,6.6904,6.851,6.8264,6.8084,6.8433,6.8142,6.7939,6.7939,6.7939,6.7939,6.7939,6.8958,6.8692,6.7098,6.7686,6.6827,6.4274,6.3547,6.2675,6.1746,6.1397,6.1252,6.1252,6.2327,6.2217,6.1279,6.2327,6.2785,6.2785,6.2785,6.3313,6.4059,6.2763,6.2062,6.1869,6.2818,6.2582,6.1656,6.069,5.9754,5.8967,5.8967,5.8345,5.755,5.755,5.8807,6.0264,6.0612,6.2093,6.3663,6.4391,6.4594,6.4681,6.503,6.5118,6.4969,6.452,6.446,6.4311,6.3857,6.1821,6.0091,5.978,5.9318,5.9417,6.0669,6.1139,6.1651,6.2309,6.2753,6.2685,6.2012,6.1959,6.1959,6.1959,6.2551,6.2809,6.2608,6.4906,6.5797,6.4655,6.6435,6.801,6.9162,6.5179,6.3281,0.0,0.0,0.0,0.0,0.0,0.0,0.0,0.0,0.0,0.0,0.0,0.0,0.0,0.0,0.0,0.0,0.0,0.0,0.0,0.0,0.0,0.0,0.0,0.0,6.5034,6.4733,6.5303,6.7575,6.6292,6.5728,6.7011,6.5961,6.5234,6.5234,6.5234,6.5234,6.5234,6.5294,6.5818,6.704,6.5876,6.5789,6.6953,6.4449,6.3169,6.3082,6.1833,6.1252,6.1252,6.1279,6.1279,6.1252,6.1279,6.1279,6.1279,6.1279,6.1335,6.1218,5.9908,5.8739,5.7719,5.7772,5.7743,5.7714,5.7661,5.7632,5.7603,5.7603,5.7603,5.755,5.755,5.7609,5.79,5.9039,5.9417,6.0057,6.2587,6.3256,6.3576,6.4827,6.5118,6.4641,6.3002,6.2691,6.2226,6.0709,5.7019,5.5058,5.786,5.7048,5.6462,5.8165,5.9517,0.0,5.9973,6.11,6.223,6.3195,6.3329,6.3329,6.3329,6.0848,5.9667,6.0676,5.9918,5.9815,6.0774,5.909,5.8192,5.8192,5.8399,5.8623,5.8911,0.0,0.0,0.0,0.0,0.0,0.0,0.0,0.0,0.0,0.0,0.0,0.0,0.0,0.0,0.0,0.0,0.0,0.0,0.0,0.0,0.0,0.0,0.0,0.0,0.0,6.2628,6.6146,6.4418,6.3975,6.6766,6.5587,6.508,6.6307,6.5583,6.4641,6.3523,6.3461,6.366,6.4086,6.3689,6.3778,6.4507,6.249,6.2089,6.314,6.0801,6.0687,6.2472,6.1629,6.1252,6.1252,6.1252,6.1252,6.1252,6.1252,5.9677,5.7184,5.6757,5.6984,5.755,5.755,5.755,5.7434,5.6538,5.6247,5.6073,5.5251,5.496,5.496,5.496,5.56,5.6273,5.6412,5.7046,5.7895,5.8531,5.8647,5.879,5.9205,5.9316,5.9194,5.8615,5.8491,5.8306,5.7808,5.4815,5.2372,5.257,5.2784,5.3178,5.3721,5.3683,5.426,5.6144,5.5059,5.4686,5.6348,5.7179,5.7595,5.7595,5.9116,5.9746,5.8907,6.0776,6.1547,6.0656,6.1133,6.059,5.866,5.9259,5.6703,5.0865,0.0,0.0,0.0,0.0,0.0,0.0,0.0,0.0,0.0,0.0,0.0,0.0,0.0,0.0,0.0,0.0,0.0,0.0,0.0,0.0,0.0,0.0,0.0,0.0,0.0,0.0,6.304,6.1703,0.0,6.4222,6.3361,6.3104,6.425,6.3244,6.2107,6.0995,6.0581,6.0616,6.1058,6.1058,6.1417,6.2148,6.0581,6.0358,6.1408,5.91,5.8932,6.0728,5.9876,5.9508,5.9508,5.9508,5.9254,5.8944,5.8462,5.6796,5.4365,5.4365,5.4949,5.5691,5.5321,5.5151,5.4981,5.3788,5.3363,5.3222,5.24,5.1856,5.1509,5.1509,5.2395,5.3324,5.3118,5.4254,5.5459,5.5258,5.5208,5.5315,5.5712,5.5793,5.5744,5.5527,5.5446,5.4952,5.3252,5.1232,4.9362,4.801,4.8362,4.8926,4.8997,4.8512,4.9037,5.1613,5.0279,4.9737,5.1459,5.2465,5.3055,5.3055,5.6398,5.7642,5.5788,5.8561,5.9368,5.7469,5.8211,5.7531,5.5027,5.5382,5.2167,0.0,0.0,0.0,0.0,0.0,0.0,0.0,0.0,0.0,0.0,0.0,0.0,0.0,0.0,0.0,0.0,0.0,0.0,0.0,0.0,0.0,0.0,0.0,0.0,0.0,0.0,0.0,5.8762,5.8322,0.0,0.0,0.0,0.0,5.9393,5.8428,5.7824,5.7643,5.67,5.6744,5.7969,5.8077,5.8705,6.0067,5.8705,5.8194,5.8284,5.694,5.6341,5.6457,5.6403,5.6376,5.6376,5.6296,5.5712,5.4702,5.3405,5.2779,5.269,5.2717,5.2633,5.2277,5.1345,5.0974,5.0706,4.9771,4.9423,4.9342,4.9289,4.8536,4.7621,4.7567,4.8242,0.0,0.0,5.0844,5.2525,5.2637,5.2779,5.3132,5.4196,5.4464,5.4305,5.3695,5.3543,5.218,4.7467,4.6514,4.5979,4.4232,0.0,4.4083,4.4176,4.4296,4.4968,4.6753,4.6933,4.7346,4.8603,4.9465,4.9933,4.9933,5.2641,5.3518,5.1486,5.3284,5.344,5.1486,5.0503,4.9192,4.7416,4.6908,0.0,0.0,0.0,0.0,0.0,0.0,0.0,0.0,0.0,0.0,0.0,0.0,0.0,0.0,0.0,0.0,0.0,0.0,0.0,0.0,0.0,0.0,0.0,0.0,0.0,0.0,5.5756,5.669,5.861,5.7499,5.7476,0.0,0.0,0.0,0.0,0.0,0.0,5.3874,5.3499,5.3473,5.3822,5.4591,5.571,5.7324,5.58,5.6063,5.8284,5.5684,5.5642,5.7763,5.6841,5.6376,5.6322,5.5557,5.5079,5.4524,5.0956,4.9614,4.9901,5.0705,5.1142,5.1399,5.1933,5.1107,4.9852,5.036,4.9985,4.9235,4.8348,4.789,4.7486,4.6699,0.0,0.0,0.0,0.0,4.7178,4.7501,4.8487,4.9526,4.9801,4.9877,4.9853,4.9714,4.9662,4.8641,4.5378,4.4761,4.4069,4.1801,4.2495,0.0,0.0,0.0,4.2536,4.3133,4.2935,4.3412,4.5173,4.6254,4.6795,4.6795,4.9017,5.0187,4.9674,5.0111,5.0187,4.9652,4.8157,4.6524,4.4648,0.0,0.0,0.0,0.0,0.0,0.0,0.0,0.0,0.0,0.0,0.0,0.0,0.0,0.0,0.0,0.0,0.0,0.0,0.0,0.0,0.0,0.0,0.0,0.0,0.0,0.0,0.0,5.0933,5.2019,5.4635,5.4094,5.4445,0.0,0.0,0.0,0.0,0.0,0.0,0.0,0.0,0.0,4.8876,4.9759,5.0932,5.2357,5.2164,5.3157,5.5358,5.3664,5.369,5.5332,5.4557,5.4273,5.4157,5.3059,5.2345,5.1584,4.7057,4.6452,4.8417,0.0,0.0,0.0,0.0,4.7017,4.5954,4.5666,4.5203,4.4541,4.3504,0.0,0.0,0.0,0.0,0.0,0.0,0.0,4.2543,4.293,4.3768,4.4715,4.5822,4.6063,4.6185,4.6648,4.5061,4.2693,3.9967,3.9467,3.8549,3.5718,3.634,0.0,0.0,0.0,3.7339,3.7818,3.788,3.8342,3.9415,4.125,4.2467,4.2833,4.6092,4.769,4.6773,4.669,4.5965,4.4436,4.195,3.9699,0.0,0.0,0.0,0.0,0.0,0.0,0.0,0.0,0.0,0.0,0.0,0.0,0.0,0.0,0.0,0.0,0.0,0.0,0.0,0.0,0.0,0.0,0.0,0.0,0.0,0.0,0.0,0.0,0.0,4.5647,4.9335,0.0,0.0,0.0,0.0,0.0,0.0,0.0,0.0,0.0,0.0,0.0,0.0,0.0,4.582,4.6853,4.8317,4.9626,5.0738,5.0884,5.0993,5.1095,5.1095,5.1095,5.1021,4.9394,0.0,4.6854,4.3002,0.0,0.0,0.0,0.0,0.0,0.0,0.0,0.0,0.0,0.0,0.0,0.0,0.0,0.0,0.0,0.0,0.0,0.0,0.0,0.0,0.0,0.0,3.9932,4.206,4.2558,4.2622,4.2768,3.9401,3.5641,3.3234,3.277,3.1852,0.0,0.0,0.0,0.0,0.0,0.0,3.2211,3.3103,3.3632,3.3632,3.6014,3.7913,3.8574,4.282,4.4619,4.2655,4.2445,4.0825,3.7376,3.4246,0.0,0.0,0.0,0.0,0.0,0.0,0.0,0.0,0.0,0.0,0.0,0.0,0.0,0.0,0.0,0.0,0.0,0.0,0.0,0.0,0.0,0.0,0.0,0.0,0.0,0.0,0.0,0.0,0.0,0.0,0.0,0.0,0.0,0.0,0.0,0.0,0.0,0.0,0.0,0.0,0.0,0.0,0.0,0.0,0.0,0.0,0.0,0.0,0.0,0.0,4.7496,4.8156,4.8808,4.8808,4.8808,4.8544,4.4743,4.2443,4.1505,4.2174,0.0,0.0,0.0,0.0,0.0,0.0,0.0,0.0,0.0,0.0,0.0,0.0,0.0,0.0,0.0,0.0,0.0,0.0,0.0,0.0,0.0,0.0,3.7988,3.8431,3.8533,3.725,3.258,0.0,0.0,0.0,0.0,0.0,0.0,0.0,0.0,0.0,0.0,0.0,2.9584,3.1889,3.3632,3.3632,3.4577,3.5224,3.5419,3.6633,3.7031,3.6237,3.5312,3.3583,0.0,0.0,0.0,0.0,0.0,0.0,0.0,0.0,0.0,0.0,0.0,0.0,0.0,0.0,0.0,0.0,0.0,0.0,0.0,0.0,0.0,0.0,0.0,0.0,0.0,0.0,0.0,0.0,0.0,0.0,0.0,0.0,0.0,0.0,0.0,0.0,0.0,0.0,0.0,0.0,0.0,0.0,0.0,0.0,0.0,0.0,0.0,0.0,0.0,0.0,0.0,0.0,0.0,0.0,0.0,0.0,0.0,0.0,0.0,3.7074,0.0,0.0,0.0,0.0,0.0,0.0,0.0,0.0,0.0,0.0,0.0,0.0,0.0,0.0,0.0,0.0,0.0,0.0,0.0,0.0,0.0,0.0,0.0,0.0,0.0,0.0,0.0,0.0,0.0,0.0,0.0,0.0,0.0,0.0,0.0,0.0,0.0,0.0,0.0,0.0,2.5464,2.6251,2.734,2.8423,3.0104,3.1791,3.3442,3.5098,3.5188,3.3417,3.1537,0.0,0.0,0.0,0.0,0.0,0.0,0.0,0.0,0.0,0.0,0.0,0.0,0.0,0.0,0.0,0.0,0.0,0.0,0.0,0.0,0.0,0.0,0.0,0.0,0.0,0.0,0.0,0.0,0.0,0.0,0.0,0.0,0.0,0.0,0.0,0.0,0.0,0.0,0.0,0.0,0.0,0.0,0.0,0.0,0.0,0.0,0.0,0.0,0.0,0.0,0.0,0.0,0.0,0.0,0.0,0.0,0.0,0.0,0.0,3.2482,0.0,0.0,0.0,0.0,0.0,0.0,0.0,0.0,0.0,0.0,0.0,0.0,0.0,0.0,0.0,0.0,0.0,0.0,0.0,0.0,0.0,0.0,0.0,0.0,0.0,0.0,0.0,0.0,0.0,0.0,0.0,0.0,0.0,0.0,0.0,0.0,0.0,0.0,0.0,0.0,0.0,2.1766,2.1137,2.1384,2.3251,2.5438,2.7795,3.0263,3.2386,3.2359,2.9392,2.709,0.0,0.0,0.0,0.0,0.0,0.0,0.0,0.0,0.0,0.0,0.0,0.0,0.0,0.0,0.0,0.0,0.0,0.0,0.0,0.0,0.0,0.0,0.0,0.0,0.0,0.0,0.0,0.0,0.0,0.0,0.0,0.0,0.0,0.0,0.0,0.0,0.0,0.0,0.0,0.0,0.0,0.0,0.0,0.0,0.0,0.0,0.0,0.0,0.0,0.0,0.0,0.0,0.0,0.0,0.0,0.0,0.0,0.0,0.0,0.0,0.0,0.0,0.0,0.0,0.0,0.0,0.0,0.0,0.0,0.0,0.0,0.0,0.0,0.0,0.0,0.0,0.0,0.0,0.0,0.0,0.0,0.0,0.0,0.0,0.0,0.0,0.0,0.0,0.0,0.0,0.0,0.0,0.0,0.0,0.0,0.0,0.0,0.0,0.0,0.0,0.0,2.0092,2.06,2.1188,2.1745,2.2429,2.2971,2.3285,2.3792,2.2775,1.9897,0.0,0.0,0.0,0.0,0.0,0.0,0.0,0.0,0.0,0.0,0.0,0.0,0.0,0.0,0.0,0.0,0.0,0.0,0.0,0.0,0.0,0.0,0.0,0.0,0.0,0.0,0.0,0.0,0.0,0.0,0.0,0.0,0.0,0.0,0.0,0.0,0.0,0.0,0.0,0.0,0.0,0.0,0.0,0.0,0.0,0.0,0.0,0.0,0.0,0.0,0.0,0.0,0.0,0.0,0.0,0.0,0.0,0.0,0.0,0.0,0.0,0.0,0.0,0.0,0.0,0.0,0.0,0.0,0.0,0.0,0.0,0.0,0.0,0.0,0.0,0.0,0.0,0.0,0.0,0.0,0.0,0.0,0.0,0.0,0.0,0.0,0.0,0.0,0.0,0.0,0.0,0.0,0.0,0.0,0.0,0.0,0.0,0.0,0.0,0.0,0.0,0.0,1.7866,1.7474,1.7843,1.9306,2.0027,2.023,2.0068,2.0436,1.8177,1.2444,0.0,0.0,0.0,0.0,0.0,0.0,0.0,0.0,0.0,0.0,0.0,0.0,0.0,0.0,0.0,0.0,0.0,0.0,0.0,0.0,0.0,0.0,0.0,0.0,0.0,0.0,0.0,0.0,0.0,0.0,0.0,0.0,0.0,0.0,0.0,0.0,0.0,0.0,0.0,0.0,0.0,0.0,0.0,0.0,0.0,0.0,0.0,0.0,0.0,0.0,0.0,0.0,0.0,0.0,0.0,0.0,0.0,0.0,0.0,0.0,0.0,0.0,0.0,0.0,0.0,0.0,0.0,0.0,0.0,0.0,0.0,0.0,0.0,0.0,0.0,0.0,0.0,0.0,0.0,0.0,0.0,0.0,0.0,0.0,0.0,0.0,0.0,0.0,0.0,0.0,0.0,0.0,0.0,0.0,0.0,0.0,0.0,0.0,0.0,0.0,0.0,0.0,1.4822,1.406,1.4063,1.4932,1.5491,1.5592,1.5351,1.4972,1.2132,0.6057,0.0,0.0,0.0,0.0,0.0,0.0,0.0,0.0,0.0,0.0,0.0,0.0,0.0,0.0,0.0,0.0,0.0,0.0,0.0,0.0,0.0,0.0,0.0,0.0,0.0,0.0,0.0,0.0,0.0,0.0,0.0,0.0,0.0,0.0,0.0,0.0,0.0,0.0,0.0,0.0,0.0,0.0,0.0,0.0,0.0,0.0,0.0,0.0,0.0,0.0,0.0,0.0,0.0,0.0,0.0,0.0,0.0,0.0,0.0,0.0,0.0,0.0,0.0,0.0,0.0,0.0,0.0,0.0,0.0,0.0,0.0,0.0,0.0,0.0,0.0,0.0,0.0,0.0,0.0,0.0,0.0,0.0,0.0,0.0,0.0,0.0,0.0,0.0,0.0,0.0,0.0,0.0,0.0,0.0,0.0,0.0,0.0,0.0,0.0,0.0,0.0,0.0,1.0685,1.0795,1.0412,0.8174,0.79,0.79,0.79,0.554,0.3132,0.0,0.0,0.0,0.0,0.0,0.0,0.0,0.0,0.0,0.0,0.0,0.0,0.0,0.0,0.0,0.0,0.0,0.0,0.0,0.0,0.0,0.0,0.0,0.0,0.0,0.0,0.0,0.0,0.0,0.0,0.0,0.0,0.0,0.0,0.0,0.0,0.0,0.0,0.0,0.0,0.0,0.0,0.0,0.0,0.0,0.0,0.0,0.0,0.0,0.0,0.0,0.0,0.0,0.0,0.0,0.0,0.0,0.0,0.0,0.0,0.0,0.0,0.0,0.0,0.0,0.0,0.0,0.0,0.0,0.0,0.0,0.0,0.0,0.0,0.0,0.0,0.0,0.0,0.0,0.0,0.0,0.0,0.0,0.0,0.0,0.0,0.0,0.0,0.0,0.0,0.0,0.0,0.0,0.0,0.0,0.0,0.0,0.0,0.0,0.0,0.0,0.0,0.0,1.0685,1.0578,1.017,0.0,0.7806,0.6337,0.2726,0.1713,-0.1552,-0.8223,0.0,0.0,0.0,0.0,0.0,0.0,0.0,0.0,0.0,0.0,0.0,0.0,0.0,0.0,0.0,0.0,0.0,0.0,0.0,0.0,0.0,0.0,0.0,0.0,0.0,0.0,0.0,0.0,0.0,0.0,0.0,0.0,0.0,0.0,0.0,0.0,0.0,0.0,0.0,0.0,0.0,0.0,0.0,0.0,0.0,0.0,0.0,0.0,0.0,0.0,0.0,0.0,0.0,0.0,0.0,0.0,0.0,0.0,0.0,0.0,0.0,0.0,0.0,0.0,0.0,0.0,0.0,0.0,0.0,0.0,0.0,0.0,0.0,0.0,0.0,0.0,0.0,0.0,0.0,0.0,0.0,0.0,0.0,0.0,0.0,0.0,0.0,0.0,0.0,0.0,0.0,0.0,0.0,0.0,0.0,0.0,0.0,0.0,0.0,0.0,0.0,0.0,0.0,0.8293,0.7417,0.0,0.4002,0.2048,-0.117,-0.316,-0.6732,-1.2638,0.0,0.0,0.0,0.0,0.0,0.0,0.0,0.0,0.0,0.0,0.0,0.0,0.0,0.0,0.0,0.0,0.0,0.0,0.0,0.0,0.0,0.0,0.0,0.0,0.0,0.0,0.0,0.0,0.0,0.0,0.0,0.0,0.0,0.0,0.0,0.0,0.0,0.0,0.0,0.0,0.0,0.0,0.0,0.0,0.0,0.0,0.0,0.0,0.0,0.0,0.0,0.0,0.0,0.0,0.0,0.0,0.0,0.0,0.0,0.0,0.0,0.0,0.0,0.0,0.0,0.0,0.0,0.0,0.0,0.0,0.0,0.0,0.0,0.0,0.0,0.0,0.0,0.0,0.0,0.0,0.0,0.0,0.0,0.0,0.0,0.0,0.0,0.0,0.0,0.0,0.0,0.0,0.0,0.0,0.0,0.0,0.0,0.0,0.0,0.0,0.0,0.0,0.0,0.4741,0.2827,0.0,-0.2448,-0.4009,-0.44,-0.8836,-1.2117,-1.3416,-1.4979,0.0,0.0,0.0,0.0,0.0,0.0,0.0,0.0,0.0,0.0,0.0,0.0,0.0,0.0,0.0,0.0,0.0,0.0,0.0,0.0,0.0,0.0,0.0,0.0,0.0,0.0,0.0,0.0,0.0,0.0,0.0,0.0,0.0,0.0,0.0,0.0,0.0,0.0,0.0,0.0,0.0,0.0,0.0,0.0,0.0,0.0,0.0,0.0,0.0,0.0,0.0,0.0,0.0,0.0,0.0,0.0,0.0,0.0,0.0,0.0,0.0,0.0,0.0,0.0,0.0,0.0,0.0,0.0,0.0,0.0,0.0,0.0,0.0,0.0,0.0,0.0,0.0,0.0,0.0,0.0,0.0,0.0,0.0,0.0,0.0,0.0,0.0,0.0,0.0,0.0,0.0,0.0,0.0,0.0,0.0,0.0,0.0,0.0,0.0,0.0,0.0,0.0,0.4393,0.1678,-0.2533,-0.3522,-0.5475,-0.9471,-1.2701,-1.5613,-1.8071,-2.1243,0.0,0.0,0.0,0.0,0.0,0.0,0.0,0.0,0.0,0.0,0.0,0.0,0.0,0.0,0.0,0.0,0.0,0.0,0.0,0.0,0.0,0.0,0.0,0.0,0.0,0.0,0.0,0.0,0.0,0.0,0.0,0.0,0.0,0.0,0.0,0.0,0.0,0.0,0.0,0.0,0.0,0.0,0.0,0.0,0.0,0.0,0.0,0.0,0.0,0.0,0.0,0.0,0.0,0.0,0.0,0.0,0.0,0.0,0.0,0.0,0.0,0.0,0.0,0.0,0.0,0.0,0.0,0.0,0.0,0.0,0.0,0.0,0.0,0.0,0.0,0.0,0.0,0.0,0.0,0.0,0.0,0.0,0.0,0.0,0.0,0.0,0.0,0.0,0.0,0.0,0.0,0.0,0.0,0.0,0.0,0.0,0.0,0.0,0.0,0.0,0.0,0.0,0.6226,0.2269,-0.3303,-0.4984,-0.7322,-1.1326,-1.4867,-1.8122,-2.0917,-2.5476,0.0,0.0,0.0,0.0,0.0,0.0,0.0,0.0,0.0,0.0,0.0,0.0,0.0,0.0,0.0,0.0,0.0,0.0,0.0,0.0,0.0,0.0,0.0,0.0,0.0,0.0,0.0,0.0,0.0,0.0,0.0,0.0,0.0,0.0,0.0,0.0,0.0,0.0,0.0,0.0,0.0,0.0,0.0,0.0,0.0,0.0,0.0,0.0,0.0,0.0,0.0,0.0,0.0,0.0,0.0,0.0,0.0,0.0,0.0,0.0,0.0,0.0,0.0,0.0,0.0,0.0,0.0,0.0,0.0,0.0,0.0,0.0,0.0,0.0,0.0,0.0,0.0,0.0,0.0,0.0,0.0,0.0,0.0,0.0,0.0,0.0,0.0,0.0,0.0,0.0,0.0,0.0,0.0,0.0,0.0,0.0,0.0,0.0,0.0,0.0,0.0,0.0,0.0,0.3751,-0.2204,-0.5828,-0.8977,-1.2011,-1.6401,-1.9863,-2.2039,0.0,0.0,0.0,0.0,0.0,0.0,0.0,0.0,0.0,0.0,0.0,0.0,0.0,0.0,0.0,0.0,0.0,0.0,0.0,0.0,0.0,0.0,0.0,0.0,0.0,0.0,0.0,0.0,0.0,0.0,0.0,0.0,0.0,0.0,0.0,0.0,0.0,0.0,0.0,0.0,0.0,0.0,0.0,0.0,0.0,0.0,0.0,0.0,0.0,0.0,0.0,0.0,0.0,0.0,0.0,0.0,0.0,0.0,0.0,0.0,0.0,0.0,0.0,0.0,0.0,0.0,0.0,0.0,0.0,0.0,0.0,0.0,0.0,0.0,0.0,0.0,0.0,0.0,0.0,0.0,0.0,0.0,0.0,0.0,0.0,0.0,0.0,0.0,0.0,0.0,0.0,0.0,0.0,0.0,0.0,0.0,0.0,0.0,0.0,0.0,0.0,0.0,0.0,0.0,0.5011,0.2357,-0.3887,-0.9754,-1.4548,-1.8709,-2.0815,-2.0244,0.0,0.0,0.0,0.0,0.0,0.0,0.0,0.0,0.0,0.0,0.0,0.0,0.0,0.0]}]]]